Darstellungsparameter: Aktuell verwendete Einstellungen:
Skalierung der Graphiken ... ?
xyx+y,   Skalierungsfaktor:      Skalierung: Modus: x, Faktor: 1
Darstellungszeitraum ... ?
Vom - - bis: - -   Zeitraum: 25.04.2019 - 24.04.2020
Min/Max/Avg-Anzeige ... ?
Zeige MMA aktuell
Zeige MMA Monat
Zeige MMA alles
Zeige --A aktuell
Zeige --A Monat
Zeige --A alles
Keine MMA-Anzeige
MMA:
Keine MMA-Graphiken
MMA-Basis: 25.04.2019 - 24.04.2020
Quicknavigation für Darstellung... ?
Tage:      1T, 2T, 3T, 5T -1T -2T -3T -5T +1T +2T +3T +5T
Wochen: 1W, 2W, 3W -1W -2W -3W +1W +2W +3W
Monate: 1M, 3M, 6M -1M -3M -6M +1M +3M +6M
Jahre:    1J, 3J, 5J, 10J -1J -3J -5J -10J +1J +3J +5J +10J
Nutze für die Darstellung ... ?
Originaldaten oder ...
Mittelwerte Minima Maxima auf...
Stundenbasis Tagesbasis Wochenbasis
Monatsbasis Jahresbasis      Datenbasis: Mittelwerte auf Stundenbasis
Darstellen als:
Statistik (Auto) Statistik J:M      Darstellung:
Zur Graphik,    zurück zur Übersicht aller Sensoren.
 
Tabellarische Datenbersicht: ?
 
Sensor: Nr:Datum:Temp:Abs-Feuchte:Windchill:Wind:
Aussen-T/F 1 25-04-2019 00:00:00 8.85833 C 8.3 g/m*3 8.86 C 0.4 km/h
2 25-04-2019 01:00:00 8.125 C 7.92 g/m*3 8.13 C 0.66667 km/h
3 25-04-2019 02:00:00 7.45 C 7.6 g/m*3 7.45 C 0 km/h
4 25-04-2019 03:00:00 7.2 C 7.54 g/m*3 7.2 C 0 km/h
5 25-04-2019 04:00:00 7.05833 C 7.47 g/m*3 7.06 C 0 km/h
6 25-04-2019 05:00:00 7.10833 C 7.49 g/m*3 7.11 C 0 km/h
7 25-04-2019 06:00:00 7.05833 C 7.53 g/m*3 7.06 C 0.4 km/h
8 25-04-2019 07:00:00 7.85833 C 7.95 g/m*3 7.86 C 0.53333 km/h
9 25-04-2019 08:00:00 9.16667 C 8.64 g/m*3 9.17 C 3.06667 km/h
10 25-04-2019 09:00:00 10.63333 C 9.49 g/m*3 10.63 C 0.13333 km/h
11 25-04-2019 10:00:00 11.54167 C 9.93 g/m*3 11.54 C 1.75 km/h
12 25-04-2019 11:00:00 14.14167 C 9.69 g/m*3 14.14 C 8.06667 km/h
13 25-04-2019 12:00:00 16.96667 C 9.24 g/m*3 16.97 C 8.60833 km/h
14 25-04-2019 13:00:00 18.6 C 9.35 g/m*3 18.6 C 8.61667 km/h
15 25-04-2019 14:00:00 20.25833 C 9.3 g/m*3 20.26 C 7.39167 km/h
16 25-04-2019 15:00:00 21.525 C 9.32 g/m*3 21.53 C 8.19167 km/h
17 25-04-2019 16:00:00 22.125 C 10.75 g/m*3 22.13 C 3.21667 km/h
18 25-04-2019 17:00:00 21.35 C 11.08 g/m*3 21.35 C 6.725 km/h
19 25-04-2019 18:00:00 20.55833 C 9.8 g/m*3 20.56 C 13.95833 km/h
20 25-04-2019 19:00:00 16.88333 C 8.82 g/m*3 16.88 C 17.45 km/h
21 25-04-2019 20:00:00 15.125 C 8.62 g/m*3 15.13 C 12.61667 km/h
22 25-04-2019 21:00:00 13.85 C 8.64 g/m*3 13.85 C 7.125 km/h
23 25-04-2019 22:00:00 13.04167 C 8.49 g/m*3 13.04 C 2.4 km/h
24 25-04-2019 23:00:00 12.425 C 8.57 g/m*3 12.43 C 0 km/h
25 26-04-2019 00:00:00 11.39167 C 8.43 g/m*3 11.39 C 0 km/h
Sensor: Nr:Datum:Temp:Abs-Feuchte:Windchill:Wind:
Aussen-T/F 26 26-04-2019 01:00:00 10.93333 C 8.5 g/m*3 10.93 C 0 km/h
27 26-04-2019 02:00:00 11.00833 C 8.44 g/m*3 11.01 C 0 km/h
28 26-04-2019 03:00:00 10.98333 C 8.31 g/m*3 10.98 C 0 km/h
29 26-04-2019 04:00:00 10.8 C 8.27 g/m*3 10.8 C 2.80833 km/h
30 26-04-2019 05:00:00 10.4 C 8.38 g/m*3 10.4 C 2.80833 km/h
31 26-04-2019 06:00:00 9.625 C 8.44 g/m*3 9.63 C 0.93333 km/h
32 26-04-2019 07:00:00 9.5 C 8.55 g/m*3 9.5 C 0.93333 km/h
33 26-04-2019 08:00:00 9.50833 C 8.62 g/m*3 9.51 C 0.8 km/h
34 26-04-2019 09:00:00 9.99167 C 8.92 g/m*3 9.99 C 3.08333 km/h
35 26-04-2019 10:00:00 10.275 C 9.08 g/m*3 10.28 C 3.48333 km/h
36 26-04-2019 11:00:00 10.88333 C 9.29 g/m*3 10.88 C 4.55833 km/h
37 26-04-2019 12:00:00 11.95833 C 9.42 g/m*3 11.96 C 8.73333 km/h
38 26-04-2019 13:00:00 13.00833 C 9.36 g/m*3 13.01 C 9.68333 km/h
39 26-04-2019 14:00:00 13.53333 C 9.16 g/m*3 13.53 C 10.9 km/h
40 26-04-2019 15:00:00 13.525 C 8.98 g/m*3 13.53 C 9 km/h
41 26-04-2019 16:00:00 15.06667 C 9.1 g/m*3 15.07 C 8.74167 km/h
42 26-04-2019 17:00:00 15.74167 C 8.85 g/m*3 15.74 C 6.025 km/h
43 26-04-2019 18:00:00 16.925 C 8.93 g/m*3 16.93 C 3.60833 km/h
44 26-04-2019 19:00:00 15.84167 C 9.71 g/m*3 15.84 C 0 km/h
45 26-04-2019 20:00:00 12.575 C 8.92 g/m*3 12.58 C 7.89167 km/h
46 26-04-2019 21:00:00 10.89167 C 8.66 g/m*3 10.89 C 2.13333 km/h
47 26-04-2019 22:00:00 10.45833 C 8.59 g/m*3 10.46 C 0 km/h
48 26-04-2019 23:00:00 10.00833 C 8.49 g/m*3 10.01 C 0 km/h
49 27-04-2019 00:00:00 9.20833 C 8.21 g/m*3 9.21 C 0 km/h
50 27-04-2019 01:00:00 9.14167 C 8.27 g/m*3 9.14 C 0 km/h
Sensor: Nr:Datum:Temp:Abs-Feuchte:Windchill:Wind:
Aussen-T/F 51 27-04-2019 02:00:00 8.575 C 7.99 g/m*3 8.57 C 0.26667 km/h
52 27-04-2019 03:00:00 7.875 C 7.71 g/m*3 7.88 C 0 km/h
53 27-04-2019 04:00:00 7.18333 C 7.39 g/m*3 7.18 C 0 km/h
54 27-04-2019 05:00:00 6.64167 C 7.18 g/m*3 6.64 C 0 km/h
55 27-04-2019 06:00:00 6.425 C 7.12 g/m*3 6.43 C 0 km/h
56 27-04-2019 07:00:00 7.15 C 7.51 g/m*3 7.15 C 0 km/h
57 27-04-2019 08:00:00 8.66667 C 8.36 g/m*3 8.67 C 0 km/h
58 27-04-2019 09:00:00 10.16667 C 9.01 g/m*3 10.17 C 1.33333 km/h
59 27-04-2019 10:00:00 11.30833 C 8.95 g/m*3 11.31 C 3.075 km/h
60 27-04-2019 11:00:00 12.64167 C 8.49 g/m*3 12.64 C 11.14167 km/h
61 27-04-2019 12:00:00 12.69167 C 9.08 g/m*3 12.69 C 9.29167 km/h
62 27-04-2019 13:00:00 13.025 C 8.85 g/m*3 13.03 C 14.90833 km/h
63 27-04-2019 14:00:00 9.525 C 8.21 g/m*3 8.62 C 7.24167 km/h
64 27-04-2019 15:00:00 10.46667 C 8.71 g/m*3 10.47 C 3.475 km/h
65 27-04-2019 16:00:00 11.75 C 8.58 g/m*3 11.75 C 6.85 km/h
66 27-04-2019 17:00:00 12.35 C 8.56 g/m*3 12.35 C 6.84167 km/h
67 27-04-2019 18:00:00 11.34167 C 8.22 g/m*3 11.34 C 5.89167 km/h
68 27-04-2019 19:00:00 9.55833 C 8.23 g/m*3 8.92 C 6.16667 km/h
69 27-04-2019 20:00:00 7.725 C 7.49 g/m*3 7.73 C 3.33333 km/h
70 27-04-2019 21:00:00 7.3 C 7.41 g/m*3 7.3 C 0.8 km/h
71 27-04-2019 22:00:00 6.76667 C 7.22 g/m*3 6.77 C 1.33333 km/h
72 27-04-2019 23:00:00 6.84167 C 7.28 g/m*3 6.84 C 4.55833 km/h
73 28-04-2019 00:00:00 6.86667 C 7.2 g/m*3 6.87 C 4.15 km/h
74 28-04-2019 01:00:00 6.875 C 7.09 g/m*3 5.87 C 6.025 km/h
75 28-04-2019 02:00:00 6.43333 C 6.8 g/m*3 5.45 C 5.76667 km/h
Sensor: Nr:Datum:Temp:Abs-Feuchte:Windchill:Wind:
Aussen-T/F 76 28-04-2019 03:00:00 6.19167 C 6.63 g/m*3 5 C 6.30833 km/h
77 28-04-2019 04:00:00 6.41667 C 6.58 g/m*3 4.26 C 10.475 km/h
78 28-04-2019 05:00:00 6.26667 C 6.55 g/m*3 4.13 C 10.20833 km/h
79 28-04-2019 06:00:00 6.2 C 6.53 g/m*3 4.7 C 7.39167 km/h
80 28-04-2019 07:00:00 6.80833 C 6.75 g/m*3 5.45 C 7.25833 km/h
81 28-04-2019 08:00:00 7.575 C 6.92 g/m*3 6.24 C 7.65833 km/h
82 28-04-2019 09:00:00 7.93333 C 7.13 g/m*3 7.93 C 4.28333 km/h
83 28-04-2019 10:00:00 8.90833 C 7.27 g/m*3 8.18 C 6.15 km/h
84 28-04-2019 11:00:00 10 C 6.98 g/m*3 8.42 C 11.3 km/h
85 28-04-2019 12:00:00 10.325 C 6.77 g/m*3 9.12 C 9.39167 km/h
86 28-04-2019 13:00:00 11.3 C 6.83 g/m*3 11.3 C 8.61667 km/h
87 28-04-2019 14:00:00 12.35 C 7.24 g/m*3 12.35 C 7.125 km/h
88 28-04-2019 15:00:00 11.50833 C 7.58 g/m*3 11.51 C 6.56667 km/h
89 28-04-2019 16:00:00 10.375 C 8.07 g/m*3 10.11 C 5.23333 km/h
90 28-04-2019 17:00:00 11.44167 C 8.14 g/m*3 11.44 C 2.54167 km/h
91 28-04-2019 18:00:00 11.48333 C 7.7 g/m*3 11.48 C 6.73333 km/h
92 28-04-2019 19:00:00 10.86667 C 7.54 g/m*3 10.24 C 6.975 km/h
93 28-04-2019 20:00:00 9.65 C 7.37 g/m*3 9.65 C 1.475 km/h
94 28-04-2019 21:00:00 7.30833 C 6.87 g/m*3 7.31 C 0 km/h
95 28-04-2019 22:00:00 5.96667 C 6.55 g/m*3 5.97 C 0 km/h
96 28-04-2019 23:00:00 5 C 6.27 g/m*3 5 C 0 km/h
97 29-04-2019 00:00:00 4.41667 C 6.12 g/m*3 4.42 C 0 km/h
98 29-04-2019 01:00:00 4.03333 C 5.99 g/m*3 4.03 C 0 km/h
99 29-04-2019 02:00:00 3.425 C 5.8 g/m*3 3.43 C 0 km/h
100 29-04-2019 03:00:00 3.675 C 5.91 g/m*3 3.68 C 0 km/h
Sensor: Nr:Datum:Temp:Abs-Feuchte:Windchill:Wind:
Aussen-T/F 101 29-04-2019 04:00:00 3.54167 C 5.89 g/m*3 3.54 C 0 km/h
102 29-04-2019 05:00:00 3.35833 C 5.85 g/m*3 3.36 C 4.26667 km/h
103 29-04-2019 06:00:00 3.15 C 5.77 g/m*3 3.15 C 1.46667 km/h
104 29-04-2019 07:00:00 3.225 C 5.79 g/m*3 3.23 C 1.73333 km/h
105 29-04-2019 08:00:00 3.85833 C 6.07 g/m*3 3.86 C 4.26667 km/h
106 29-04-2019 09:00:00 4.99167 C 6.59 g/m*3 4.99 C 4.13333 km/h
107 29-04-2019 10:00:00 6.51667 C 7.15 g/m*3 6.52 C 2.4 km/h
108 29-04-2019 11:00:00 8.7 C 7.85 g/m*3 8.7 C 2.4 km/h
109 29-04-2019 12:00:00 11.925 C 8.18 g/m*3 11.93 C 5.48333 km/h
110 29-04-2019 13:00:00 13.975 C 7.63 g/m*3 13.98 C 9.025 km/h
111 29-04-2019 14:00:00 14.83333 C 7.25 g/m*3 14.83 C 9.69167 km/h
112 29-04-2019 15:00:00 15.29167 C 7.35 g/m*3 15.29 C 9.68333 km/h
113 29-04-2019 16:00:00 15.31667 C 7.23 g/m*3 15.32 C 11.43333 km/h
114 29-04-2019 17:00:00 15.31667 C 7.29 g/m*3 15.32 C 11.7 km/h
115 29-04-2019 18:00:00 13.69167 C 8.13 g/m*3 13.69 C 7.26667 km/h
116 29-04-2019 19:00:00 11.075 C 8.86 g/m*3 11.08 C 1.2 km/h
117 29-04-2019 20:00:00 10.25 C 8.74 g/m*3 10.25 C 0 km/h
118 29-04-2019 21:00:00 10.13333 C 8.75 g/m*3 10.13 C 0.4 km/h
119 29-04-2019 22:00:00 10.25833 C 8.76 g/m*3 10.26 C 2.675 km/h
120 29-04-2019 23:00:00 10.65833 C 8.78 g/m*3 10.66 C 1.73333 km/h
121 30-04-2019 00:00:00 10.98333 C 8.73 g/m*3 10.98 C 3.48333 km/h
122 30-04-2019 01:00:00 11.16667 C 8.72 g/m*3 11.17 C 5.09167 km/h
123 30-04-2019 02:00:00 10.85 C 8.73 g/m*3 10.85 C 4.01667 km/h
124 30-04-2019 03:00:00 10.59167 C 8.68 g/m*3 10.59 C 2.94167 km/h
125 30-04-2019 04:00:00 10.30833 C 8.52 g/m*3 10.31 C 2.275 km/h
Sensor: Nr:Datum:Temp:Abs-Feuchte:Windchill:Wind:
Aussen-T/F 126 30-04-2019 05:00:00 10.18333 C 8.37 g/m*3 9.9 C 5.225 km/h
127 30-04-2019 06:00:00 10.05833 C 8.38 g/m*3 10.06 C 3.89167 km/h
128 30-04-2019 07:00:00 10.075 C 8.38 g/m*3 9.62 C 5.775 km/h
129 30-04-2019 08:00:00 10.725 C 8.26 g/m*3 9.87 C 7.925 km/h
130 30-04-2019 09:00:00 11.51667 C 7.94 g/m*3 11.52 C 10.225 km/h
131 30-04-2019 10:00:00 12.61667 C 7.76 g/m*3 12.62 C 10.76667 km/h
132 30-04-2019 11:00:00 13.60833 C 7.39 g/m*3 13.61 C 10.34167 km/h
133 30-04-2019 12:00:00 14.5 C 7.26 g/m*3 14.5 C 12.225 km/h
134 30-04-2019 13:00:00 15.65833 C 7.11 g/m*3 15.66 C 11.29167 km/h
135 30-04-2019 14:00:00 16.86667 C 6.96 g/m*3 16.87 C 10.35 km/h
136 30-04-2019 15:00:00 18.59167 C 7.21 g/m*3 18.59 C 12.9 km/h
137 30-04-2019 16:00:00 20.025 C 7.07 g/m*3 20.02 C 12.23333 km/h
138 30-04-2019 17:00:00 20.46667 C 7.37 g/m*3 20.47 C 11.425 km/h
139 30-04-2019 18:00:00 20.24167 C 7.51 g/m*3 20.24 C 10.075 km/h
140 30-04-2019 19:00:00 18.90833 C 7.92 g/m*3 18.91 C 10.09167 km/h
141 30-04-2019 20:00:00 16.95833 C 8.22 g/m*3 16.96 C 6.96667 km/h
142 30-04-2019 21:00:00 15.48333 C 8.56 g/m*3 15.48 C 5.625 km/h
143 30-04-2019 22:00:00 14.225 C 8.66 g/m*3 14.23 C 7.925 km/h
144 30-04-2019 23:00:00 12.65833 C 8.65 g/m*3 12.66 C 2.81667 km/h
145 01-05-2019 00:00:00 11.25833 C 8.45 g/m*3 11.26 C 0.8 km/h
146 01-05-2019 01:00:00 10.36667 C 8.22 g/m*3 10.37 C 0.66667 km/h
147 01-05-2019 02:00:00 9.26667 C 7.91 g/m*3 9.27 C 0 km/h
148 01-05-2019 03:00:00 8.45833 C 7.73 g/m*3 8.46 C 0.13333 km/h
149 01-05-2019 04:00:00 8.075 C 7.62 g/m*3 8.07 C 0.4 km/h
150 01-05-2019 05:00:00 6.95833 C 7.13 g/m*3 6.96 C 0 km/h
Sensor: Nr:Datum:Temp:Abs-Feuchte:Windchill:Wind:
Aussen-T/F 151 01-05-2019 06:00:00 6.275 C 6.92 g/m*3 6.28 C 0.13333 km/h
152 01-05-2019 07:00:00 6.79167 C 7.26 g/m*3 6.79 C 0.53333 km/h
153 01-05-2019 08:00:00 7.9 C 7.79 g/m*3 7.9 C 0.8 km/h
154 01-05-2019 09:00:00 8.89167 C 8.14 g/m*3 8.89 C 1.46667 km/h
155 01-05-2019 10:00:00 10.11667 C 8.5 g/m*3 10.12 C 3.06667 km/h
156 01-05-2019 11:00:00 11.40833 C 8.86 g/m*3 11.41 C 3.06667 km/h
157 01-05-2019 12:00:00 13.80833 C 9.43 g/m*3 13.81 C 4.40833 km/h
158 01-05-2019 13:00:00 16.03333 C 9.07 g/m*3 16.03 C 7.54167 km/h
159 01-05-2019 14:00:00 17.69167 C 8.31 g/m*3 17.69 C 9.15833 km/h
160 01-05-2019 15:00:00 19.35 C 8.11 g/m*3 19.35 C 9.40833 km/h
161 01-05-2019 16:00:00 21.31667 C 8.18 g/m*3 21.32 C 7.40833 km/h
162 01-05-2019 17:00:00 21.48333 C 8.34 g/m*3 21.48 C 8.05833 km/h
163 01-05-2019 18:00:00 20.325 C 9.25 g/m*3 20.33 C 10.225 km/h
164 01-05-2019 19:00:00 18.21667 C 9.06 g/m*3 18.22 C 7.65833 km/h
165 01-05-2019 20:00:00 15.65833 C 8.45 g/m*3 15.66 C 3.475 km/h
166 01-05-2019 21:00:00 13.53333 C 8.59 g/m*3 13.53 C 5.90833 km/h
167 01-05-2019 22:00:00 12.76667 C 8.71 g/m*3 12.77 C 2.81667 km/h
168 01-05-2019 23:00:00 10.80833 C 8.45 g/m*3 10.81 C 0 km/h
169 02-05-2019 00:00:00 9.98333 C 8.29 g/m*3 9.98 C 0 km/h
170 02-05-2019 01:00:00 8.96667 C 7.95 g/m*3 8.97 C 0 km/h
171 02-05-2019 02:00:00 8.23333 C 7.78 g/m*3 8.23 C 0 km/h
172 02-05-2019 03:00:00 7.73333 C 7.6 g/m*3 7.73 C 0 km/h
173 02-05-2019 04:00:00 7.025 C 7.3 g/m*3 7.03 C 0 km/h
174 02-05-2019 05:00:00 6.325 C 6.99 g/m*3 6.33 C 0 km/h
175 02-05-2019 06:00:00 5.89167 C 6.85 g/m*3 5.89 C 0 km/h
Sensor: Nr:Datum:Temp:Abs-Feuchte:Windchill:Wind:
Aussen-T/F 176 02-05-2019 07:00:00 6.84167 C 7.36 g/m*3 6.84 C 0.8 km/h
177 02-05-2019 08:00:00 8.325 C 8.08 g/m*3 8.32 C 2.13333 km/h
178 02-05-2019 09:00:00 9.075 C 8.18 g/m*3 9.07 C 1.73333 km/h
179 02-05-2019 10:00:00 10.725 C 8.12 g/m*3 10.73 C 3.2 km/h
180 02-05-2019 11:00:00 12.15833 C 8.24 g/m*3 12.16 C 5.21667 km/h
181 02-05-2019 12:00:00 12.925 C 8.35 g/m*3 12.93 C 6.98333 km/h
182 02-05-2019 13:00:00 14.15 C 8.46 g/m*3 14.15 C 7.25833 km/h
183 02-05-2019 14:00:00 15.85 C 8.81 g/m*3 15.85 C 6.96667 km/h
184 02-05-2019 15:00:00 16.58333 C 8.62 g/m*3 16.58 C 9.69167 km/h
185 02-05-2019 16:00:00 17.225 C 8.51 g/m*3 17.23 C 8.86667 km/h
186 02-05-2019 17:00:00 17.75 C 7.79 g/m*3 17.75 C 9.28333 km/h
187 02-05-2019 18:00:00 17.96667 C 7.18 g/m*3 17.97 C 9.425 km/h
188 02-05-2019 19:00:00 15.54167 C 7.98 g/m*3 15.54 C 12.9 km/h
189 02-05-2019 20:00:00 12.78333 C 8.61 g/m*3 12.78 C 8.175 km/h
190 02-05-2019 21:00:00 11.44167 C 9.11 g/m*3 11.44 C 0.4 km/h
191 02-05-2019 22:00:00 10.75833 C 8.96 g/m*3 10.76 C 2.93333 km/h
192 02-05-2019 23:00:00 10.7 C 9.01 g/m*3 10.7 C 0.53333 km/h
193 03-05-2019 00:00:00 10.6 C 9.01 g/m*3 10.6 C 2.93333 km/h
194 03-05-2019 01:00:00 10.51667 C 8.41 g/m*3 9.44 C 8.88333 km/h
195 03-05-2019 02:00:00 9.85 C 7.83 g/m*3 9.32 C 5.91667 km/h
196 03-05-2019 03:00:00 9.375 C 7.74 g/m*3 9.38 C 2.675 km/h
197 03-05-2019 04:00:00 9.16667 C 7.81 g/m*3 9.17 C 0.53333 km/h
198 03-05-2019 05:00:00 9.28333 C 7.9 g/m*3 9.28 C 3.46667 km/h
199 03-05-2019 06:00:00 9.25 C 7.86 g/m*3 9.25 C 3.475 km/h
200 03-05-2019 07:00:00 9.25 C 7.67 g/m*3 8.71 C 5.63333 km/h
Sensor: Nr:Datum:Temp:Abs-Feuchte:Windchill:Wind:
Aussen-T/F 201 03-05-2019 08:00:00 9.65833 C 7.68 g/m*3 9.14 C 5.76667 km/h
202 03-05-2019 09:00:00 10.10833 C 7.52 g/m*3 8.86 C 9.425 km/h
203 03-05-2019 10:00:00 10.78333 C 7.28 g/m*3 9.39 C 11.15833 km/h
204 03-05-2019 11:00:00 11.16667 C 6.99 g/m*3 11.17 C 10.625 km/h
205 03-05-2019 12:00:00 11.34167 C 7.05 g/m*3 11.34 C 8.61667 km/h
206 03-05-2019 13:00:00 12.075 C 7.02 g/m*3 12.08 C 9.95 km/h
207 03-05-2019 14:00:00 12.98333 C 6.74 g/m*3 12.98 C 14.9 km/h
208 03-05-2019 15:00:00 14.38333 C 6.53 g/m*3 14.38 C 15.03333 km/h
209 03-05-2019 16:00:00 15 C 6.54 g/m*3 15 C 13.16667 km/h
210 03-05-2019 17:00:00 14.125 C 6.55 g/m*3 14.13 C 13.56667 km/h
211 03-05-2019 18:00:00 13.64167 C 6.65 g/m*3 13.64 C 10.225 km/h
212 03-05-2019 19:00:00 12.4 C 6.56 g/m*3 12.4 C 8.06667 km/h
213 03-05-2019 20:00:00 11.18333 C 6.51 g/m*3 11.18 C 7.25 km/h
214 03-05-2019 21:00:00 9.875 C 6.54 g/m*3 9.88 C 4.81667 km/h
215 03-05-2019 22:00:00 9.375 C 6.71 g/m*3 9.38 C 3.075 km/h
216 03-05-2019 23:00:00 8.65833 C 6.78 g/m*3 8.66 C 0.8 km/h
217 04-05-2019 00:00:00 8.05833 C 6.78 g/m*3 8.06 C 0 km/h
218 04-05-2019 01:00:00 7.625 C 6.71 g/m*3 7.63 C 0 km/h
219 04-05-2019 02:00:00 7.575 C 6.82 g/m*3 7.58 C 0 km/h
220 04-05-2019 03:00:00 7.43333 C 6.91 g/m*3 7.43 C 0 km/h
221 04-05-2019 04:00:00 7.4 C 7.16 g/m*3 6.28 C 6.7 km/h
222 04-05-2019 05:00:00 5.025 C 6.22 g/m*3 2.08 C 13.16667 km/h
223 04-05-2019 06:00:00 3.74167 C 5.77 g/m*3 1.07 C 10.36667 km/h
224 04-05-2019 07:00:00 3.23333 C 5.62 g/m*3 1.54 C 6.425 km/h
225 04-05-2019 08:00:00 3.26667 C 5.68 g/m*3 2.08 C 5.08333 km/h
Sensor: Nr:Datum:Temp:Abs-Feuchte:Windchill:Wind:
Aussen-T/F 226 04-05-2019 09:00:00 3.99167 C 5.97 g/m*3 3.99 C 3.74167 km/h
227 04-05-2019 10:00:00 4.64167 C 6.04 g/m*3 2.92 C 7.25 km/h
228 04-05-2019 11:00:00 5.00833 C 6.06 g/m*3 3.16 C 7.93333 km/h
229 04-05-2019 12:00:00 5.93333 C 6.19 g/m*3 4.05 C 8.75 km/h
230 04-05-2019 13:00:00 7.25833 C 6.17 g/m*3 5.59 C 8.88333 km/h
231 04-05-2019 14:00:00 7.44167 C 6.19 g/m*3 4.75 C 15.04167 km/h
232 04-05-2019 15:00:00 4.74167 C 5.96 g/m*3 3.2 C 6.70833 km/h
233 04-05-2019 16:00:00 7.80833 C 6.95 g/m*3 6.87 C 6.3 km/h
234 04-05-2019 17:00:00 10.13333 C 7.32 g/m*3 9.42 C 6.85 km/h
235 04-05-2019 18:00:00 10.36667 C 5.83 g/m*3 8.33 C 15.3 km/h
236 04-05-2019 19:00:00 9.3 C 6.04 g/m*3 7.26 C 13.43333 km/h
237 04-05-2019 20:00:00 7.475 C 5.99 g/m*3 6.81 C 5.23333 km/h
238 04-05-2019 21:00:00 6.49167 C 5.93 g/m*3 5.52 C 5.75833 km/h
239 04-05-2019 22:00:00 5.00833 C 5.78 g/m*3 5.01 C 3.48333 km/h
240 04-05-2019 23:00:00 3.8 C 5.63 g/m*3 3.8 C 2.94167 km/h
241 05-05-2019 00:00:00 3.71667 C 5.72 g/m*3 3.72 C 2.14167 km/h
242 05-05-2019 01:00:00 3.80833 C 5.82 g/m*3 3.81 C 0.53333 km/h
243 05-05-2019 02:00:00 3.45833 C 5.68 g/m*3 3.46 C 0.8 km/h
244 05-05-2019 03:00:00 3.68333 C 5.84 g/m*3 3.68 C 1.06667 km/h
245 05-05-2019 04:00:00 3.69167 C 5.78 g/m*3 3.69 C 2.8 km/h
246 05-05-2019 05:00:00 3.33333 C 5.59 g/m*3 3.33 C 3.625 km/h
247 05-05-2019 06:00:00 2.73333 C 5.38 g/m*3 2.73 C 0.4 km/h
248 05-05-2019 07:00:00 2.46667 C 5.35 g/m*3 2.47 C 0.26667 km/h
249 05-05-2019 08:00:00 3.35833 C 5.73 g/m*3 2.03 C 5.475 km/h
250 05-05-2019 09:00:00 4.73333 C 6.07 g/m*3 4.73 C 4.28333 km/h
Sensor: Nr:Datum:Temp:Abs-Feuchte:Windchill:Wind:
Aussen-T/F 251 05-05-2019 10:00:00 5.84167 C 6.21 g/m*3 4.64 C 6.175 km/h
252 05-05-2019 11:00:00 6.98333 C 6.46 g/m*3 5.66 C 7.23333 km/h
253 05-05-2019 12:00:00 7.63333 C 6.51 g/m*3 6.25 C 7.90833 km/h
254 05-05-2019 13:00:00 8.91667 C 6.42 g/m*3 7.45 C 9.4 km/h
255 05-05-2019 14:00:00 9.29167 C 6.35 g/m*3 7.42 C 12.23333 km/h
256 05-05-2019 15:00:00 9.86667 C 6.42 g/m*3 9.2 C 6.44167 km/h
257 05-05-2019 16:00:00 12.39167 C 6.29 g/m*3 12.39 C 12.5 km/h
258 05-05-2019 17:00:00 12.55833 C 6.48 g/m*3 12.56 C 11.83333 km/h
259 05-05-2019 18:00:00 11.3 C 6.59 g/m*3 11.3 C 10.75 km/h
260 05-05-2019 19:00:00 9.66667 C 6.45 g/m*3 8.75 C 7.39167 km/h
261 05-05-2019 20:00:00 9.19167 C 6.42 g/m*3 8.08 C 7.90833 km/h
262 05-05-2019 21:00:00 8.26667 C 6.4 g/m*3 7.76 C 5.075 km/h
263 05-05-2019 22:00:00 7.15 C 6.27 g/m*3 7.15 C 2.54167 km/h
264 05-05-2019 23:00:00 6.25 C 6.3 g/m*3 6.25 C 0.4 km/h
265 06-05-2019 00:00:00 6.11667 C 6.33 g/m*3 6.12 C 0.26667 km/h
266 06-05-2019 01:00:00 5.90833 C 6.32 g/m*3 5.91 C 2 km/h
267 06-05-2019 02:00:00 5.1 C 6.01 g/m*3 5.1 C 1.6 km/h
268 06-05-2019 03:00:00 4.25833 C 5.85 g/m*3 4.26 C 0.26667 km/h
269 06-05-2019 04:00:00 3.59167 C 5.65 g/m*3 3.59 C 0 km/h
270 06-05-2019 05:00:00 3.01667 C 5.5 g/m*3 3.02 C 0.4 km/h
271 06-05-2019 06:00:00 3.14167 C 5.63 g/m*3 3.14 C 2 km/h
272 06-05-2019 07:00:00 3.70833 C 5.86 g/m*3 3.71 C 4.81667 km/h
273 06-05-2019 08:00:00 4.56667 C 6.1 g/m*3 4.57 C 4 km/h
274 06-05-2019 09:00:00 6.31667 C 6.24 g/m*3 6.32 C 4.275 km/h
275 06-05-2019 10:00:00 8.01667 C 6.11 g/m*3 7.18 C 6.04167 km/h
Sensor: Nr:Datum:Temp:Abs-Feuchte:Windchill:Wind:
Aussen-T/F 276 06-05-2019 11:00:00 9.33333 C 6.01 g/m*3 9.33 C 4.275 km/h
277 06-05-2019 12:00:00 10.05 C 5.61 g/m*3 9.29 C 6.975 km/h
278 06-05-2019 13:00:00 10.95 C 5.6 g/m*3 9.96 C 8.86667 km/h
279 06-05-2019 14:00:00 11.24167 C 5.59 g/m*3 11.24 C 9.26667 km/h
280 06-05-2019 15:00:00 11.29167 C 5.83 g/m*3 11.29 C 9.15833 km/h
281 06-05-2019 16:00:00 11.01667 C 6.05 g/m*3 11.02 C 9.14167 km/h
282 06-05-2019 17:00:00 10.675 C 6 g/m*3 10.35 C 5.61667 km/h
283 06-05-2019 18:00:00 11.425 C 6.3 g/m*3 11.43 C 4.275 km/h
284 06-05-2019 19:00:00 10.75833 C 6.73 g/m*3 10.76 C 1.60833 km/h
285 06-05-2019 20:00:00 9.18333 C 6.73 g/m*3 9.18 C 3.48333 km/h
286 06-05-2019 21:00:00 8.26667 C 6.9 g/m*3 8.27 C 0.13333 km/h
287 06-05-2019 22:00:00 7.75 C 6.96 g/m*3 7.75 C 0.26667 km/h
288 06-05-2019 23:00:00 7.30833 C 6.86 g/m*3 7.31 C 0 km/h
289 07-05-2019 00:00:00 7.29167 C 6.99 g/m*3 7.29 C 0.26667 km/h
290 07-05-2019 01:00:00 7.04167 C 6.93 g/m*3 7.04 C 0 km/h
291 07-05-2019 02:00:00 6.7 C 6.84 g/m*3 6.7 C 0 km/h
292 07-05-2019 03:00:00 6.64167 C 6.81 g/m*3 6.64 C 0 km/h
293 07-05-2019 04:00:00 6.35 C 6.7 g/m*3 6.35 C 0 km/h
294 07-05-2019 05:00:00 6.16667 C 6.68 g/m*3 6.17 C 0 km/h
295 07-05-2019 06:00:00 5.85833 C 6.57 g/m*3 5.86 C 0 km/h
296 07-05-2019 07:00:00 6.38333 C 6.85 g/m*3 6.38 C 0 km/h
297 07-05-2019 08:00:00 7.30833 C 7.06 g/m*3 7.31 C 0.26667 km/h
298 07-05-2019 09:00:00 8.475 C 7.31 g/m*3 8.48 C 1.6 km/h
299 07-05-2019 10:00:00 9.60833 C 7.32 g/m*3 9.13 C 5.6 km/h
300 07-05-2019 11:00:00 10.575 C 6.99 g/m*3 10.58 C 4.53333 km/h
Sensor: Nr:Datum:Temp:Abs-Feuchte:Windchill:Wind:
Aussen-T/F 301 07-05-2019 12:00:00 11.88333 C 6.4 g/m*3 11.88 C 7.11667 km/h
302 07-05-2019 13:00:00 11.86667 C 6.2 g/m*3 11.87 C 6.14167 km/h
303 07-05-2019 14:00:00 12.76667 C 6.17 g/m*3 12.77 C 6.83333 km/h
304 07-05-2019 15:00:00 13.05833 C 5.99 g/m*3 13.06 C 9.81667 km/h
305 07-05-2019 16:00:00 14.13333 C 6.16 g/m*3 14.13 C 6.71667 km/h
306 07-05-2019 17:00:00 14.9 C 6.04 g/m*3 14.9 C 5.49167 km/h
307 07-05-2019 18:00:00 14.94167 C 5.88 g/m*3 14.94 C 5.75 km/h
308 07-05-2019 19:00:00 13.4 C 7.19 g/m*3 13.4 C 0.13333 km/h
309 07-05-2019 20:00:00 11.275 C 6.41 g/m*3 11.28 C 0.8 km/h
310 07-05-2019 21:00:00 9.01667 C 6.03 g/m*3 9.02 C 0 km/h
311 07-05-2019 22:00:00 7.98333 C 6.27 g/m*3 7.98 C 0 km/h
312 07-05-2019 23:00:00 6.93333 C 6.23 g/m*3 6.93 C 0 km/h
313 08-05-2019 00:00:00 6.325 C 6.15 g/m*3 6.33 C 0 km/h
314 08-05-2019 01:00:00 5.75 C 6.03 g/m*3 5.75 C 0 km/h
315 08-05-2019 02:00:00 5.15 C 5.97 g/m*3 5.15 C 0 km/h
316 08-05-2019 03:00:00 4.7 C 5.96 g/m*3 4.7 C 0 km/h
317 08-05-2019 04:00:00 4.95 C 6.16 g/m*3 4.95 C 0 km/h
318 08-05-2019 05:00:00 5.25 C 6.29 g/m*3 5.25 C 0 km/h
319 08-05-2019 06:00:00 5.49167 C 6.41 g/m*3 5.49 C 0 km/h
320 08-05-2019 07:00:00 6.21667 C 6.66 g/m*3 6.22 C 0.53333 km/h
321 08-05-2019 08:00:00 7.49167 C 7.03 g/m*3 7.49 C 2 km/h
322 08-05-2019 09:00:00 8.85 C 7.21 g/m*3 8.85 C 3.48333 km/h
323 08-05-2019 10:00:00 9.025 C 7.7 g/m*3 9.03 C 1.46667 km/h
324 08-05-2019 11:00:00 9.69167 C 8.24 g/m*3 9.69 C 0.8 km/h
325 08-05-2019 12:00:00 11.325 C 9.05 g/m*3 11.33 C 4.41667 km/h
Sensor: Nr:Datum:Temp:Abs-Feuchte:Windchill:Wind:
Aussen-T/F 326 08-05-2019 13:00:00 13.61667 C 9.77 g/m*3 13.62 C 5.89167 km/h
327 08-05-2019 14:00:00 14.7 C 9.91 g/m*3 14.7 C 5.875 km/h
328 08-05-2019 15:00:00 14.56667 C 9.86 g/m*3 14.57 C 5.35 km/h
329 08-05-2019 16:00:00 13.39167 C 10.08 g/m*3 13.39 C 5.35 km/h
330 08-05-2019 17:00:00 12.51667 C 10.05 g/m*3 12.52 C 3.06667 km/h
331 08-05-2019 18:00:00 12.5 C 10.22 g/m*3 12.5 C 2 km/h
332 08-05-2019 19:00:00 12.25833 C 10.13 g/m*3 12.26 C 0.13333 km/h
333 08-05-2019 20:00:00 11.71667 C 9.84 g/m*3 11.72 C 0.4 km/h
334 08-05-2019 21:00:00 10.95833 C 9.43 g/m*3 10.96 C 0.13333 km/h
335 08-05-2019 22:00:00 10.14167 C 9 g/m*3 10.14 C 1.6 km/h
336 08-05-2019 23:00:00 9.41667 C 8.56 g/m*3 9.42 C 2.53333 km/h
337 09-05-2019 00:00:00 8.78333 C 8.22 g/m*3 8.78 C 3.48333 km/h
338 09-05-2019 01:00:00 8.31667 C 7.99 g/m*3 8.32 C 1.6 km/h
339 09-05-2019 02:00:00 7.425 C 7.55 g/m*3 7.43 C 0.13333 km/h
340 09-05-2019 03:00:00 7.31667 C 7.57 g/m*3 7.32 C 0.26667 km/h
341 09-05-2019 04:00:00 7.75833 C 7.81 g/m*3 7.76 C 1.475 km/h
342 09-05-2019 05:00:00 7.80833 C 7.84 g/m*3 7.81 C 0 km/h
343 09-05-2019 06:00:00 7.46667 C 7.63 g/m*3 7.47 C 0 km/h
344 09-05-2019 07:00:00 8.7 C 8.33 g/m*3 8.7 C 0.13333 km/h
345 09-05-2019 08:00:00 9.9 C 8.72 g/m*3 9.9 C 2.4 km/h
346 09-05-2019 09:00:00 11.4 C 8.97 g/m*3 11.4 C 2.8 km/h
347 09-05-2019 10:00:00 11.6 C 9.17 g/m*3 11.6 C 5.475 km/h
348 09-05-2019 11:00:00 12.78333 C 9.4 g/m*3 12.78 C 6.56667 km/h
349 09-05-2019 12:00:00 13.21667 C 9.7 g/m*3 13.22 C 6.43333 km/h
350 09-05-2019 13:00:00 13.26667 C 9.67 g/m*3 13.27 C 8.60833 km/h
Sensor: Nr:Datum:Temp:Abs-Feuchte:Windchill:Wind:
Aussen-T/F 351 09-05-2019 14:00:00 13.60833 C 9.43 g/m*3 13.61 C 5.35 km/h
352 09-05-2019 15:00:00 13.43333 C 9.64 g/m*3 13.43 C 4.80833 km/h
353 09-05-2019 16:00:00 13.80833 C 9.68 g/m*3 13.81 C 4.4 km/h
354 09-05-2019 17:00:00 14.375 C 10.05 g/m*3 14.38 C 2.66667 km/h
355 09-05-2019 18:00:00 15.625 C 10.57 g/m*3 15.63 C 5.76667 km/h
356 09-05-2019 19:00:00 15.4 C 10.41 g/m*3 15.4 C 3.89167 km/h
357 09-05-2019 20:00:00 13.70833 C 10.14 g/m*3 13.71 C 0.93333 km/h
358 09-05-2019 21:00:00 11.66667 C 9.47 g/m*3 11.67 C 7.09167 km/h
359 09-05-2019 22:00:00 10.89167 C 9.36 g/m*3 10.89 C 1.86667 km/h
360 09-05-2019 23:00:00 10.76667 C 9.37 g/m*3 10.77 C 3.88333 km/h
361 10-05-2019 00:00:00 10.525 C 9.23 g/m*3 10.53 C 1.2 km/h
362 10-05-2019 01:00:00 9.51667 C 8.66 g/m*3 9.52 C 0.26667 km/h
363 10-05-2019 02:00:00 8.85833 C 8.34 g/m*3 8.86 C 0.13333 km/h
364 10-05-2019 03:00:00 8.16667 C 7.97 g/m*3 8.17 C 0 km/h
365 10-05-2019 04:00:00 8.56667 C 8.25 g/m*3 8.57 C 0 km/h
366 10-05-2019 05:00:00 8.28333 C 8.08 g/m*3 7.49 C 6.03333 km/h
367 10-05-2019 06:00:00 8.40833 C 8.15 g/m*3 7.63 C 6.03333 km/h
368 10-05-2019 07:00:00 8.75 C 8.29 g/m*3 8.75 C 2.675 km/h
369 10-05-2019 08:00:00 9.175 C 8.39 g/m*3 8.71 C 5.36667 km/h
370 10-05-2019 09:00:00 10.7 C 8.59 g/m*3 9.13 C 12.225 km/h
371 10-05-2019 10:00:00 12.1 C 8.73 g/m*3 12.1 C 11.03333 km/h
372 10-05-2019 11:00:00 13.23333 C 8.72 g/m*3 13.23 C 11.025 km/h
373 10-05-2019 12:00:00 14.35 C 8.31 g/m*3 14.35 C 12.9 km/h
374 10-05-2019 13:00:00 15.44167 C 7.9 g/m*3 15.44 C 12.23333 km/h
375 10-05-2019 14:00:00 16.75 C 7.76 g/m*3 16.75 C 13.83333 km/h
Sensor: Nr:Datum:Temp:Abs-Feuchte:Windchill:Wind:
Aussen-T/F 376 10-05-2019 15:00:00 17.21667 C 7.7 g/m*3 17.22 C 10.9 km/h
377 10-05-2019 16:00:00 17.93333 C 7.55 g/m*3 17.93 C 8.05 km/h
378 10-05-2019 17:00:00 17.6 C 7.32 g/m*3 17.6 C 9.80833 km/h
379 10-05-2019 18:00:00 17.25 C 7.43 g/m*3 17.25 C 5.36667 km/h
380 10-05-2019 19:00:00 17.18333 C 9.07 g/m*3 17.18 C 0.66667 km/h
381 10-05-2019 20:00:00 14.175 C 8.72 g/m*3 14.18 C 0 km/h
382 10-05-2019 21:00:00 12.35 C 8.43 g/m*3 12.35 C 0 km/h
383 10-05-2019 22:00:00 11.76667 C 8.54 g/m*3 11.77 C 0 km/h
384 10-05-2019 23:00:00 11.53333 C 8.62 g/m*3 11.53 C 0 km/h
385 11-05-2019 00:00:00 11.04167 C 8.69 g/m*3 11.04 C 0.4 km/h
386 11-05-2019 01:00:00 10.36667 C 8.77 g/m*3 10.37 C 0.13333 km/h
387 11-05-2019 02:00:00 10.1 C 8.83 g/m*3 10.1 C 0 km/h
388 11-05-2019 03:00:00 9.925 C 8.81 g/m*3 9.93 C 0.13333 km/h
389 11-05-2019 04:00:00 9.7 C 8.76 g/m*3 9.7 C 0 km/h
390 11-05-2019 05:00:00 9.775 C 8.87 g/m*3 9.78 C 0.26667 km/h
391 11-05-2019 06:00:00 9.7 C 8.85 g/m*3 9.7 C 0.26667 km/h
392 11-05-2019 07:00:00 9.7 C 8.85 g/m*3 9.7 C 0.4 km/h
393 11-05-2019 08:00:00 9.65833 C 8.83 g/m*3 9.66 C 2.80833 km/h
394 11-05-2019 09:00:00 9.70833 C 8.85 g/m*3 9.71 C 4.95 km/h
395 11-05-2019 10:00:00 9.85833 C 8.94 g/m*3 9.49 C 5.35 km/h
396 11-05-2019 11:00:00 10.13333 C 9.1 g/m*3 10.13 C 4.95 km/h
397 11-05-2019 12:00:00 10.36667 C 9.1 g/m*3 9.27 C 8.875 km/h
398 11-05-2019 13:00:00 9.79167 C 8.72 g/m*3 8.61 C 8.73333 km/h
399 11-05-2019 14:00:00 9.76667 C 8.79 g/m*3 9.77 C 1.86667 km/h
400 11-05-2019 15:00:00 9.91667 C 8.88 g/m*3 9.92 C 3.475 km/h
Sensor: Nr:Datum:Temp:Abs-Feuchte:Windchill:Wind:
Aussen-T/F 401 11-05-2019 16:00:00 10.31667 C 9.2 g/m*3 10.32 C 1.6 km/h
402 11-05-2019 17:00:00 10.95833 C 9.53 g/m*3 10.96 C 2.94167 km/h
403 11-05-2019 18:00:00 11.79167 C 9.33 g/m*3 11.79 C 11.96667 km/h
404 11-05-2019 19:00:00 12.1 C 8.75 g/m*3 12.1 C 14.36667 km/h
405 11-05-2019 20:00:00 11.3 C 8.59 g/m*3 11.3 C 3.89167 km/h
406 11-05-2019 21:00:00 9.44167 C 8.27 g/m*3 9.44 C 0 km/h
407 11-05-2019 22:00:00 8.33333 C 7.84 g/m*3 8.33 C 0 km/h
408 11-05-2019 23:00:00 7.65 C 7.62 g/m*3 7.65 C 0 km/h
409 12-05-2019 00:00:00 7.41667 C 7.56 g/m*3 7.42 C 0.4 km/h
410 12-05-2019 01:00:00 6.75 C 7.24 g/m*3 6.75 C 1.46667 km/h
411 12-05-2019 02:00:00 6.43333 C 7 g/m*3 6.43 C 3.86667 km/h
412 12-05-2019 03:00:00 5.66667 C 6.6 g/m*3 5.67 C 1.46667 km/h
413 12-05-2019 04:00:00 4.70833 C 6.25 g/m*3 4.71 C 0.13333 km/h
414 12-05-2019 05:00:00 4.225 C 6.11 g/m*3 4.22 C 0 km/h
415 12-05-2019 06:00:00 4.45833 C 6.23 g/m*3 4.46 C 0.93333 km/h
416 12-05-2019 07:00:00 5.68333 C 6.53 g/m*3 4.77 C 5.225 km/h
417 12-05-2019 08:00:00 6.98333 C 6.62 g/m*3 5.69 C 7.1 km/h
418 12-05-2019 09:00:00 8.125 C 6.56 g/m*3 6.03 C 12.09167 km/h
419 12-05-2019 10:00:00 8.83333 C 6.48 g/m*3 6.89 C 12.1 km/h
420 12-05-2019 11:00:00 9.58333 C 6.35 g/m*3 7.68 C 12.89167 km/h
421 12-05-2019 12:00:00 10.54167 C 6.3 g/m*3 9.07 C 11.3 km/h
422 12-05-2019 13:00:00 11.66667 C 6.28 g/m*3 11.67 C 12.76667 km/h
423 12-05-2019 14:00:00 12.83333 C 6.15 g/m*3 12.83 C 12.1 km/h
424 12-05-2019 15:00:00 14.13333 C 6.19 g/m*3 14.13 C 12.76667 km/h
425 12-05-2019 16:00:00 15.25833 C 5.99 g/m*3 15.26 C 12.23333 km/h
Sensor: Nr:Datum:Temp:Abs-Feuchte:Windchill:Wind:
Aussen-T/F 426 12-05-2019 17:00:00 14.83333 C 5.78 g/m*3 14.83 C 11.43333 km/h
427 12-05-2019 18:00:00 15.19167 C 5.65 g/m*3 15.19 C 14.1 km/h
428 12-05-2019 19:00:00 13.96667 C 5.43 g/m*3 13.97 C 12.35833 km/h
429 12-05-2019 20:00:00 13.09167 C 5.62 g/m*3 13.09 C 5.775 km/h
430 12-05-2019 21:00:00 9.68333 C 6.57 g/m*3 9.68 C 0.66667 km/h
431 12-05-2019 22:00:00 8.375 C 6.5 g/m*3 8.38 C 0.26667 km/h
432 12-05-2019 23:00:00 7.30833 C 6.21 g/m*3 7.31 C 0.53333 km/h
433 13-05-2019 00:00:00 6.45 C 6.14 g/m*3 6.45 C 0 km/h
434 13-05-2019 01:00:00 5.11667 C 6 g/m*3 5.12 C 0 km/h
435 13-05-2019 02:00:00 4.15 C 5.82 g/m*3 4.15 C 0 km/h
436 13-05-2019 03:00:00 3.60833 C 5.71 g/m*3 3.61 C 0 km/h
437 13-05-2019 04:00:00 3.075 C 5.57 g/m*3 3.08 C 0.13333 km/h
438 13-05-2019 05:00:00 2.64167 C 5.46 g/m*3 2.64 C 0.13333 km/h
439 13-05-2019 06:00:00 2.30833 C 5.36 g/m*3 2.31 C 0 km/h
440 13-05-2019 07:00:00 2.63333 C 5.52 g/m*3 2.63 C 0 km/h
441 13-05-2019 08:00:00 4.26667 C 6.21 g/m*3 4.27 C 0 km/h
442 13-05-2019 09:00:00 6.13333 C 6.62 g/m*3 6.13 C 0.53333 km/h
443 13-05-2019 10:00:00 9.69167 C 5.33 g/m*3 9.11 C 6.04167 km/h
444 13-05-2019 11:00:00 11.4 C 5 g/m*3 11.4 C 4.54167 km/h
445 13-05-2019 12:00:00 13.43333 C 3.8 g/m*3 13.43 C 15.7 km/h
446 13-05-2019 13:00:00 14.6 C 3.74 g/m*3 14.6 C 12.36667 km/h
447 13-05-2019 14:00:00 15.575 C 4.12 g/m*3 15.58 C 11.025 km/h
448 13-05-2019 15:00:00 17.19167 C 4.33 g/m*3 17.19 C 11.025 km/h
449 13-05-2019 16:00:00 18.43333 C 4.56 g/m*3 18.43 C 15.56667 km/h
450 13-05-2019 17:00:00 18.6 C 4.52 g/m*3 18.6 C 16.1 km/h
Sensor: Nr:Datum:Temp:Abs-Feuchte:Windchill:Wind:
Aussen-T/F 451 13-05-2019 18:00:00 18.08333 C 4.45 g/m*3 18.08 C 16.36667 km/h
452 13-05-2019 19:00:00 16.95833 C 4.74 g/m*3 16.96 C 17.03333 km/h
453 13-05-2019 20:00:00 15.41667 C 4.57 g/m*3 15.42 C 12.76667 km/h
454 13-05-2019 21:00:00 12.25 C 5.46 g/m*3 12.25 C 1.74167 km/h
455 13-05-2019 22:00:00 9.325 C 5.48 g/m*3 9.32 C 0.13333 km/h
456 13-05-2019 23:00:00 7.875 C 5.69 g/m*3 7.88 C 0 km/h
457 14-05-2019 00:00:00 6.7 C 5.69 g/m*3 6.7 C 0 km/h
458 14-05-2019 01:00:00 5.76667 C 5.54 g/m*3 5.77 C 0 km/h
459 14-05-2019 02:00:00 4.74167 C 5.43 g/m*3 4.74 C 0 km/h
460 14-05-2019 03:00:00 3.83333 C 5.32 g/m*3 3.83 C 0 km/h
461 14-05-2019 04:00:00 3.18333 C 5.24 g/m*3 3.18 C 0 km/h
462 14-05-2019 05:00:00 2.66667 C 5.17 g/m*3 2.67 C 0 km/h
463 14-05-2019 06:00:00 2.41667 C 5.19 g/m*3 2.42 C 0 km/h
464 14-05-2019 07:00:00 2.825 C 5.44 g/m*3 2.83 C 0 km/h
465 14-05-2019 08:00:00 4.2 C 5.97 g/m*3 4.2 C 0 km/h
466 14-05-2019 09:00:00 6.50833 C 6.44 g/m*3 6.51 C 1.46667 km/h
467 14-05-2019 10:00:00 9.575 C 6.34 g/m*3 8.9 C 6.30833 km/h
468 14-05-2019 11:00:00 12.65 C 5.64 g/m*3 12.65 C 15.7 km/h
469 14-05-2019 12:00:00 13.45833 C 5.35 g/m*3 13.46 C 13.83333 km/h
470 14-05-2019 13:00:00 14.21667 C 5.35 g/m*3 14.22 C 15.7 km/h
471 14-05-2019 14:00:00 14.79167 C 5.44 g/m*3 14.79 C 15.83333 km/h
472 14-05-2019 15:00:00 16.00833 C 5.43 g/m*3 16.01 C 13.96667 km/h
473 14-05-2019 16:00:00 16.59167 C 5.24 g/m*3 16.59 C 15.69167 km/h
474 14-05-2019 17:00:00 16.8 C 5.21 g/m*3 16.8 C 14.75833 km/h
475 14-05-2019 18:00:00 16.475 C 5.22 g/m*3 16.48 C 9.53333 km/h
Sensor: Nr:Datum:Temp:Abs-Feuchte:Windchill:Wind:
Aussen-T/F 476 14-05-2019 19:00:00 16.075 C 5.22 g/m*3 16.08 C 7.50833 km/h
477 14-05-2019 20:00:00 13.73333 C 5.8 g/m*3 13.73 C 4.15833 km/h
478 14-05-2019 21:00:00 10.35 C 5.82 g/m*3 10.35 C 0.53333 km/h
479 14-05-2019 22:00:00 8.73333 C 5.89 g/m*3 8.73 C 0 km/h
480 14-05-2019 23:00:00 7.69167 C 5.83 g/m*3 7.69 C 0 km/h
481 15-05-2019 00:00:00 6.88333 C 5.65 g/m*3 6.88 C 0 km/h
482 15-05-2019 01:00:00 5.89167 C 5.57 g/m*3 5.89 C 0 km/h
483 15-05-2019 02:00:00 4.74167 C 5.44 g/m*3 4.74 C 0 km/h
484 15-05-2019 03:00:00 3.98333 C 5.37 g/m*3 3.98 C 0 km/h
485 15-05-2019 04:00:00 3.15 C 5.25 g/m*3 3.15 C 0 km/h
486 15-05-2019 05:00:00 2.60833 C 5.15 g/m*3 2.61 C 0 km/h
487 15-05-2019 06:00:00 2.325 C 5.17 g/m*3 2.33 C 0 km/h
488 15-05-2019 07:00:00 2.75833 C 5.41 g/m*3 2.76 C 0 km/h
489 15-05-2019 08:00:00 3.775 C 5.81 g/m*3 3.78 C 0 km/h
490 15-05-2019 09:00:00 5.99167 C 6.19 g/m*3 5.99 C 2.81667 km/h
491 15-05-2019 10:00:00 10.15833 C 5.19 g/m*3 9.15 C 8.19167 km/h
492 15-05-2019 11:00:00 12.05 C 4.88 g/m*3 12.05 C 10.225 km/h
493 15-05-2019 12:00:00 12.95 C 4.63 g/m*3 12.95 C 8.85833 km/h
494 15-05-2019 13:00:00 14.08333 C 4.35 g/m*3 14.08 C 13.56667 km/h
495 15-05-2019 14:00:00 14.95 C 4.75 g/m*3 14.95 C 15.96667 km/h
496 15-05-2019 15:00:00 15.975 C 4.64 g/m*3 15.98 C 17.83333 km/h
497 15-05-2019 16:00:00 17.19167 C 5.03 g/m*3 17.19 C 12.1 km/h
498 15-05-2019 17:00:00 17.58333 C 4.96 g/m*3 17.58 C 14.1 km/h
499 15-05-2019 18:00:00 17.38333 C 5.02 g/m*3 17.38 C 13.55833 km/h
500 15-05-2019 19:00:00 16.55833 C 4.97 g/m*3 16.56 C 11.55 km/h
Sensor: Nr:Datum:Temp:Abs-Feuchte:Windchill:Wind:
Aussen-T/F 501 15-05-2019 20:00:00 15.10833 C 5.45 g/m*3 15.11 C 4.69167 km/h
502 15-05-2019 21:00:00 11.45833 C 5.85 g/m*3 11.46 C 1.74167 km/h
503 15-05-2019 22:00:00 9.525 C 5.5 g/m*3 9.53 C 0.53333 km/h
504 15-05-2019 23:00:00 8.09167 C 5.32 g/m*3 8.09 C 0.93333 km/h
505 16-05-2019 00:00:00 7.39167 C 5.29 g/m*3 7.39 C 1.6 km/h
506 16-05-2019 01:00:00 6.64167 C 5.56 g/m*3 6.64 C 0 km/h
507 16-05-2019 02:00:00 5.725 C 5.61 g/m*3 5.73 C 0 km/h
508 16-05-2019 03:00:00 5.58333 C 5.8 g/m*3 5.58 C 0 km/h
509 16-05-2019 04:00:00 5.71667 C 5.95 g/m*3 5.72 C 0 km/h
510 16-05-2019 05:00:00 5.83333 C 6.04 g/m*3 5.83 C 0 km/h
511 16-05-2019 06:00:00 5.95 C 6.18 g/m*3 5.95 C 0.13333 km/h
512 16-05-2019 07:00:00 6.64167 C 6.45 g/m*3 6.64 C 0 km/h
513 16-05-2019 08:00:00 7.98333 C 6.84 g/m*3 7.98 C 0.13333 km/h
514 16-05-2019 09:00:00 9.95 C 6.81 g/m*3 9.95 C 4.15 km/h
515 16-05-2019 10:00:00 11.65833 C 6.56 g/m*3 11.66 C 8.45833 km/h
516 16-05-2019 11:00:00 12.20833 C 6.32 g/m*3 12.21 C 8.33333 km/h
517 16-05-2019 12:00:00 13.13333 C 6.73 g/m*3 13.13 C 8.875 km/h
518 16-05-2019 13:00:00 14.68333 C 7.13 g/m*3 14.68 C 10.76667 km/h
519 16-05-2019 14:00:00 15.4 C 7.34 g/m*3 15.4 C 10.48333 km/h
520 16-05-2019 15:00:00 17.38333 C 7.71 g/m*3 17.38 C 10.08333 km/h
521 16-05-2019 16:00:00 18.23333 C 7.73 g/m*3 18.23 C 8.45 km/h
522 16-05-2019 17:00:00 16.90833 C 7.77 g/m*3 16.91 C 9.69167 km/h
523 16-05-2019 18:00:00 15.44167 C 8.11 g/m*3 15.44 C 11.95 km/h
524 16-05-2019 19:00:00 14.075 C 8.25 g/m*3 14.08 C 4.41667 km/h
525 16-05-2019 20:00:00 12.56667 C 8.08 g/m*3 12.57 C 6.70833 km/h
Sensor: Nr:Datum:Temp:Abs-Feuchte:Windchill:Wind:
Aussen-T/F 526 16-05-2019 21:00:00 11.175 C 7.69 g/m*3 11.18 C 8.21667 km/h
527 16-05-2019 22:00:00 10.23333 C 7.8 g/m*3 10.23 C 4.29167 km/h
528 16-05-2019 23:00:00 9.60833 C 7.91 g/m*3 9.61 C 0.66667 km/h
529 17-05-2019 00:00:00 9.08333 C 8.06 g/m*3 9.08 C 0 km/h
530 17-05-2019 01:00:00 8.79167 C 8.05 g/m*3 8.79 C 0 km/h
531 17-05-2019 02:00:00 8.7 C 8.1 g/m*3 8.7 C 0 km/h
532 17-05-2019 03:00:00 8.63333 C 8.11 g/m*3 8.63 C 0.53333 km/h
533 17-05-2019 04:00:00 8.475 C 8.09 g/m*3 8.48 C 0.13333 km/h
534 17-05-2019 05:00:00 8.36667 C 8.04 g/m*3 8.37 C 0 km/h
535 17-05-2019 06:00:00 8.45 C 8.13 g/m*3 8.45 C 0 km/h
536 17-05-2019 07:00:00 8.71667 C 8.31 g/m*3 8.72 C 0.4 km/h
537 17-05-2019 08:00:00 8.96667 C 8.45 g/m*3 8.97 C 1.73333 km/h
538 17-05-2019 09:00:00 9.29167 C 8.62 g/m*3 9.29 C 1.86667 km/h
539 17-05-2019 10:00:00 9.625 C 8.81 g/m*3 9.63 C 4.825 km/h
540 17-05-2019 11:00:00 10.2 C 9.05 g/m*3 10.2 C 3.86667 km/h
541 17-05-2019 12:00:00 11.175 C 9.49 g/m*3 11.18 C 6.425 km/h
542 17-05-2019 13:00:00 12.825 C 10 g/m*3 12.83 C 8.625 km/h
543 17-05-2019 14:00:00 14.44167 C 10.43 g/m*3 14.44 C 6.58333 km/h
544 17-05-2019 15:00:00 15.54167 C 10.58 g/m*3 15.54 C 7.26667 km/h
545 17-05-2019 16:00:00 16.35 C 10.47 g/m*3 16.35 C 7.65833 km/h
546 17-05-2019 17:00:00 17.35 C 10.47 g/m*3 17.35 C 6.70833 km/h
547 17-05-2019 18:00:00 16.8 C 11.2 g/m*3 16.8 C 2 km/h
548 17-05-2019 19:00:00 16.625 C 11.34 g/m*3 16.63 C 0.26667 km/h
549 17-05-2019 20:00:00 13.975 C 10.28 g/m*3 13.98 C 0.26667 km/h
550 17-05-2019 21:00:00 12.00833 C 9.56 g/m*3 12.01 C 0.26667 km/h
Sensor: Nr:Datum:Temp:Abs-Feuchte:Windchill:Wind:
Aussen-T/F 551 17-05-2019 22:00:00 11.96667 C 9.78 g/m*3 11.97 C 0 km/h
552 17-05-2019 23:00:00 12.05833 C 9.99 g/m*3 12.06 C 0.4 km/h
553 18-05-2019 00:00:00 11.6 C 9.77 g/m*3 11.6 C 0 km/h
554 18-05-2019 01:00:00 10.44167 C 9.12 g/m*3 10.44 C 0.4 km/h
555 18-05-2019 02:00:00 10.58333 C 9.34 g/m*3 10.58 C 0 km/h
556 18-05-2019 03:00:00 10.43333 C 9.26 g/m*3 10.43 C 0 km/h
557 18-05-2019 04:00:00 9.925 C 8.98 g/m*3 9.93 C 0 km/h
558 18-05-2019 05:00:00 9.31667 C 8.64 g/m*3 9.32 C 0 km/h
559 18-05-2019 06:00:00 9.35833 C 8.7 g/m*3 9.36 C 0 km/h
560 18-05-2019 07:00:00 10.23333 C 9.25 g/m*3 10.23 C 0.13333 km/h
561 18-05-2019 08:00:00 11.2 C 9.82 g/m*3 11.2 C 1.6 km/h
562 18-05-2019 09:00:00 12.275 C 10.26 g/m*3 12.28 C 0.66667 km/h
563 18-05-2019 10:00:00 14.16667 C 11.13 g/m*3 14.17 C 1.2 km/h
564 18-05-2019 11:00:00 16.9 C 11.11 g/m*3 16.9 C 4.675 km/h
565 18-05-2019 12:00:00 18.14167 C 11.07 g/m*3 18.14 C 3.86667 km/h
566 18-05-2019 13:00:00 19.01667 C 11.27 g/m*3 19.02 C 4.15833 km/h
567 18-05-2019 14:00:00 20.34167 C 11.02 g/m*3 20.34 C 5.50833 km/h
568 18-05-2019 15:00:00 21.05833 C 10.74 g/m*3 21.06 C 6.30833 km/h
569 18-05-2019 16:00:00 22.41667 C 11.99 g/m*3 22.42 C 8.05833 km/h
570 18-05-2019 17:00:00 21.04167 C 12.96 g/m*3 21.04 C 0.26667 km/h
571 18-05-2019 18:00:00 18.54167 C 12.15 g/m*3 18.54 C 2 km/h
572 18-05-2019 19:00:00 15.85 C 11.74 g/m*3 15.85 C 1.33333 km/h
573 18-05-2019 20:00:00 14.79167 C 11.45 g/m*3 14.79 C 0 km/h
574 18-05-2019 21:00:00 13.71667 C 10.91 g/m*3 13.72 C 0.26667 km/h
575 18-05-2019 22:00:00 12.75 C 10.42 g/m*3 12.75 C 0.26667 km/h
Sensor: Nr:Datum:Temp:Abs-Feuchte:Windchill:Wind:
Aussen-T/F 576 18-05-2019 23:00:00 12.53333 C 10.43 g/m*3 12.53 C 0.66667 km/h
577 19-05-2019 00:00:00 12.79167 C 10.64 g/m*3 12.79 C 0 km/h
578 19-05-2019 01:00:00 12.73333 C 10.6 g/m*3 12.73 C 0.4 km/h
579 19-05-2019 02:00:00 12.26667 C 10.29 g/m*3 12.27 C 0 km/h
580 19-05-2019 03:00:00 11.71667 C 10 g/m*3 11.72 C 0 km/h
581 19-05-2019 04:00:00 11.625 C 9.99 g/m*3 11.63 C 0 km/h
582 19-05-2019 05:00:00 11.38333 C 9.84 g/m*3 11.38 C 0 km/h
583 19-05-2019 06:00:00 11.475 C 9.99 g/m*3 11.48 C 0.13333 km/h
584 19-05-2019 07:00:00 12.13333 C 10.42 g/m*3 12.13 C 0.93333 km/h
585 19-05-2019 08:00:00 12.825 C 10.88 g/m*3 12.83 C 2 km/h
586 19-05-2019 09:00:00 13.73333 C 11.5 g/m*3 13.73 C 2.66667 km/h
587 19-05-2019 10:00:00 15.11667 C 12.25 g/m*3 15.12 C 0.66667 km/h
588 19-05-2019 11:00:00 16.26667 C 12.5 g/m*3 16.27 C 2.66667 km/h
589 19-05-2019 12:00:00 17.99167 C 12.93 g/m*3 17.99 C 7.525 km/h
590 19-05-2019 13:00:00 18.78333 C 12.47 g/m*3 18.78 C 8.88333 km/h
591 19-05-2019 14:00:00 20.225 C 11.78 g/m*3 20.23 C 8.89167 km/h
592 19-05-2019 15:00:00 22.54167 C 12.28 g/m*3 22.54 C 9.55833 km/h
593 19-05-2019 16:00:00 23.4 C 12.28 g/m*3 23.4 C 11.69167 km/h
594 19-05-2019 17:00:00 19.25833 C 10.48 g/m*3 19.26 C 9.525 km/h
595 19-05-2019 18:00:00 19.96667 C 11.24 g/m*3 19.97 C 7.39167 km/h
596 19-05-2019 19:00:00 20.475 C 11.22 g/m*3 20.48 C 3.73333 km/h
597 19-05-2019 20:00:00 18.96667 C 11.15 g/m*3 18.97 C 0.4 km/h
598 19-05-2019 21:00:00 15.7 C 10.82 g/m*3 15.7 C 0.13333 km/h
599 19-05-2019 22:00:00 14.53333 C 10.74 g/m*3 14.53 C 1.06667 km/h
600 19-05-2019 23:00:00 14.65833 C 10.64 g/m*3 14.66 C 2.40833 km/h
Sensor: Nr:Datum:Temp:Abs-Feuchte:Windchill:Wind:
Aussen-T/F 601 20-05-2019 00:00:00 14.48333 C 10.64 g/m*3 14.48 C 4.14167 km/h
602 20-05-2019 01:00:00 13.40833 C 10.39 g/m*3 13.41 C 1.06667 km/h
603 20-05-2019 02:00:00 12.46667 C 10.05 g/m*3 12.47 C 0.66667 km/h
604 20-05-2019 03:00:00 12.23333 C 10.07 g/m*3 12.23 C 1.33333 km/h
605 20-05-2019 04:00:00 12.7 C 10.46 g/m*3 12.7 C 2.4 km/h
606 20-05-2019 05:00:00 13.13333 C 10.63 g/m*3 13.13 C 3.73333 km/h
607 20-05-2019 06:00:00 13.15 C 10.53 g/m*3 13.15 C 7.25 km/h
608 20-05-2019 07:00:00 13.16667 C 10.54 g/m*3 13.17 C 1.33333 km/h
609 20-05-2019 08:00:00 13.475 C 10.72 g/m*3 13.48 C 0.53333 km/h
610 20-05-2019 09:00:00 13.95 C 10.81 g/m*3 13.95 C 4.55833 km/h
611 20-05-2019 10:00:00 14.25833 C 10.92 g/m*3 14.26 C 5.775 km/h
612 20-05-2019 11:00:00 14.125 C 11.17 g/m*3 14.13 C 3.61667 km/h
613 20-05-2019 12:00:00 14.08333 C 11.16 g/m*3 14.08 C 7.93333 km/h
614 20-05-2019 13:00:00 13.85833 C 11 g/m*3 13.86 C 9.125 km/h
615 20-05-2019 14:00:00 14.29167 C 11.23 g/m*3 14.29 C 9.01667 km/h
616 20-05-2019 15:00:00 14.6 C 11.17 g/m*3 14.6 C 7.1 km/h
617 20-05-2019 16:00:00 14.84167 C 11.14 g/m*3 14.84 C 9.55 km/h
618 20-05-2019 17:00:00 14.93333 C 11.11 g/m*3 14.93 C 8.08333 km/h
619 20-05-2019 18:00:00 14.86667 C 10.95 g/m*3 14.87 C 11.95833 km/h
620 20-05-2019 19:00:00 14.65 C 10.88 g/m*3 14.65 C 7.125 km/h
621 20-05-2019 20:00:00 14.5 C 10.85 g/m*3 14.5 C 9.15833 km/h
622 20-05-2019 21:00:00 14.19167 C 10.74 g/m*3 14.19 C 9.81667 km/h
623 20-05-2019 22:00:00 14.1 C 10.68 g/m*3 14.1 C 7.93333 km/h
624 20-05-2019 23:00:00 14.21667 C 10.58 g/m*3 14.22 C 6.575 km/h
625 21-05-2019 00:00:00 14.23333 C 10.6 g/m*3 14.23 C 9.54167 km/h
Sensor: Nr:Datum:Temp:Abs-Feuchte:Windchill:Wind:
Aussen-T/F 626 21-05-2019 01:00:00 13.8 C 10.66 g/m*3 13.8 C 9.55 km/h
627 21-05-2019 02:00:00 13.56667 C 10.65 g/m*3 13.57 C 9.14167 km/h
628 21-05-2019 03:00:00 13.275 C 10.55 g/m*3 13.28 C 7.51667 km/h
629 21-05-2019 04:00:00 13.11667 C 10.39 g/m*3 13.12 C 7.65 km/h
630 21-05-2019 05:00:00 12.71667 C 10.21 g/m*3 12.72 C 10.09167 km/h
631 21-05-2019 06:00:00 12.21667 C 10.13 g/m*3 12.22 C 9.675 km/h
632 21-05-2019 07:00:00 12.23333 C 10.16 g/m*3 12.23 C 9.25833 km/h
633 21-05-2019 08:00:00 12.3 C 10.16 g/m*3 12.3 C 11.15833 km/h
634 21-05-2019 09:00:00 12.3 C 10.16 g/m*3 12.3 C 12.9 km/h
635 21-05-2019 10:00:00 12.23333 C 10.13 g/m*3 12.23 C 11.83333 km/h
636 21-05-2019 11:00:00 12.15 C 10.01 g/m*3 12.15 C 15.44167 km/h
637 21-05-2019 12:00:00 12.11667 C 10.07 g/m*3 12.12 C 11.025 km/h
638 21-05-2019 13:00:00 12.225 C 10.16 g/m*3 12.23 C 5.75833 km/h
639 21-05-2019 14:00:00 12.15 C 10.08 g/m*3 12.15 C 6.44167 km/h
640 21-05-2019 15:00:00 12.15833 C 10.02 g/m*3 12.16 C 9.00833 km/h
641 21-05-2019 16:00:00 12.09167 C 10.07 g/m*3 12.09 C 9.4 km/h
642 21-05-2019 17:00:00 12.18333 C 10.14 g/m*3 12.18 C 7.51667 km/h
643 21-05-2019 18:00:00 12.275 C 10.2 g/m*3 12.28 C 7.125 km/h
644 21-05-2019 19:00:00 12.375 C 10.22 g/m*3 12.38 C 6.98333 km/h
645 21-05-2019 20:00:00 12.21667 C 10.24 g/m*3 12.22 C 3.88333 km/h
646 21-05-2019 21:00:00 12.1 C 10.19 g/m*3 12.1 C 3.46667 km/h
647 21-05-2019 22:00:00 12.04167 C 10.19 g/m*3 12.04 C 3.875 km/h
648 21-05-2019 23:00:00 11.85833 C 10.14 g/m*3 11.86 C 0 km/h
649 22-05-2019 00:00:00 11.8 C 10.1 g/m*3 11.8 C 0 km/h
650 22-05-2019 01:00:00 11.75 C 10.07 g/m*3 11.75 C 1.33333 km/h
Sensor: Nr:Datum:Temp:Abs-Feuchte:Windchill:Wind:
Aussen-T/F 651 22-05-2019 02:00:00 11.56667 C 9.96 g/m*3 11.57 C 4.54167 km/h
652 22-05-2019 03:00:00 11.575 C 9.96 g/m*3 11.58 C 2.66667 km/h
653 22-05-2019 04:00:00 11.44167 C 9.8 g/m*3 11.44 C 6.43333 km/h
654 22-05-2019 05:00:00 11.33333 C 9.71 g/m*3 11.33 C 6.025 km/h
655 22-05-2019 06:00:00 11.05 C 9.44 g/m*3 11.05 C 8.60833 km/h
656 22-05-2019 07:00:00 10.66667 C 9.15 g/m*3 9.44 C 9.94167 km/h
657 22-05-2019 08:00:00 10.33333 C 8.82 g/m*3 9.44 C 7.79167 km/h
658 22-05-2019 09:00:00 10.475 C 8.45 g/m*3 9.52 C 8.2 km/h
659 22-05-2019 10:00:00 10.88333 C 8.29 g/m*3 9.98 C 8.33333 km/h
660 22-05-2019 11:00:00 11.51667 C 8.51 g/m*3 11.52 C 8.88333 km/h
661 22-05-2019 12:00:00 12.85 C 8.61 g/m*3 12.85 C 9.825 km/h
662 22-05-2019 13:00:00 13.65833 C 8.69 g/m*3 13.66 C 8.2 km/h
663 22-05-2019 14:00:00 15.01667 C 8.94 g/m*3 15.02 C 9.41667 km/h
664 22-05-2019 15:00:00 17.08333 C 9.27 g/m*3 17.08 C 9.01667 km/h
665 22-05-2019 16:00:00 18.625 C 9.4 g/m*3 18.63 C 6.7 km/h
666 22-05-2019 17:00:00 18.24167 C 9.15 g/m*3 18.24 C 6.3 km/h
667 22-05-2019 18:00:00 19.46667 C 9.06 g/m*3 19.47 C 7.10833 km/h
668 22-05-2019 19:00:00 19.025 C 9.15 g/m*3 19.02 C 3.625 km/h
669 22-05-2019 20:00:00 17.24167 C 10.41 g/m*3 17.24 C 0 km/h
670 22-05-2019 21:00:00 13.73333 C 9.09 g/m*3 13.73 C 0 km/h
671 22-05-2019 22:00:00 11.64167 C 8.92 g/m*3 11.64 C 0 km/h
672 22-05-2019 23:00:00 10.33333 C 8.61 g/m*3 10.33 C 0 km/h
673 23-05-2019 00:00:00 9.5 C 8.34 g/m*3 9.5 C 0 km/h
674 23-05-2019 01:00:00 8.975 C 8.18 g/m*3 8.98 C 0 km/h
675 23-05-2019 02:00:00 8.54167 C 8.02 g/m*3 8.54 C 0 km/h
Sensor: Nr:Datum:Temp:Abs-Feuchte:Windchill:Wind:
Aussen-T/F 676 23-05-2019 03:00:00 8.35833 C 8.02 g/m*3 8.36 C 0 km/h
677 23-05-2019 04:00:00 7.93333 C 7.82 g/m*3 7.93 C 0 km/h
678 23-05-2019 05:00:00 7.71667 C 7.73 g/m*3 7.72 C 0.26667 km/h
679 23-05-2019 06:00:00 7.9 C 7.89 g/m*3 7.9 C 0.26667 km/h
680 23-05-2019 07:00:00 8.675 C 8.29 g/m*3 8.68 C 0.93333 km/h
681 23-05-2019 08:00:00 9.59167 C 8.77 g/m*3 9.59 C 0.26667 km/h
682 23-05-2019 09:00:00 11.05833 C 9.44 g/m*3 11.06 C 0 km/h
683 23-05-2019 10:00:00 13.75 C 10.38 g/m*3 13.75 C 1.74167 km/h
684 23-05-2019 11:00:00 17.49167 C 9.82 g/m*3 17.49 C 6.85 km/h
685 23-05-2019 12:00:00 18.84167 C 9.34 g/m*3 18.84 C 6.95833 km/h
686 23-05-2019 13:00:00 19.83333 C 9.66 g/m*3 19.83 C 5.35833 km/h
687 23-05-2019 14:00:00 21.25833 C 9.08 g/m*3 21.26 C 7.79167 km/h
688 23-05-2019 15:00:00 22.38333 C 9.14 g/m*3 22.38 C 4.55 km/h
689 23-05-2019 16:00:00 24.39167 C 8.73 g/m*3 24.39 C 7.25833 km/h
690 23-05-2019 17:00:00 24.78333 C 8.55 g/m*3 24.78 C 8.74167 km/h
691 23-05-2019 18:00:00 24.96667 C 8.62 g/m*3 24.97 C 5.34167 km/h
692 23-05-2019 19:00:00 22.80833 C 10.71 g/m*3 22.81 C 2.00833 km/h
693 23-05-2019 20:00:00 19.33333 C 10.77 g/m*3 19.33 C 0 km/h
694 23-05-2019 21:00:00 16.40833 C 10.35 g/m*3 16.41 C 0 km/h
695 23-05-2019 22:00:00 14.68333 C 10.31 g/m*3 14.68 C 0 km/h
696 23-05-2019 23:00:00 13.66667 C 9.9 g/m*3 13.67 C 0 km/h
697 24-05-2019 00:00:00 12.84167 C 9.7 g/m*3 12.84 C 0.93333 km/h
698 24-05-2019 01:00:00 12.36667 C 9.55 g/m*3 12.37 C 0 km/h
699 24-05-2019 02:00:00 11.83333 C 9.41 g/m*3 11.83 C 0 km/h
700 24-05-2019 03:00:00 11.40833 C 9.35 g/m*3 11.41 C 0 km/h
Sensor: Nr:Datum:Temp:Abs-Feuchte:Windchill:Wind:
Aussen-T/F 701 24-05-2019 04:00:00 11.25 C 9.35 g/m*3 11.25 C 0 km/h
702 24-05-2019 05:00:00 11.16667 C 9.31 g/m*3 11.17 C 0.13333 km/h
703 24-05-2019 06:00:00 11 C 9.3 g/m*3 11 C 0 km/h
704 24-05-2019 07:00:00 11.71667 C 9.71 g/m*3 11.72 C 0.53333 km/h
705 24-05-2019 08:00:00 13.29167 C 10.19 g/m*3 13.29 C 0.53333 km/h
706 24-05-2019 09:00:00 15.28333 C 10.47 g/m*3 15.28 C 1.2 km/h
707 24-05-2019 10:00:00 16.80833 C 10.92 g/m*3 16.81 C 0.93333 km/h
708 24-05-2019 11:00:00 18.925 C 11.06 g/m*3 18.93 C 3.2 km/h
709 24-05-2019 12:00:00 20.75833 C 10.36 g/m*3 20.76 C 5.49167 km/h
710 24-05-2019 13:00:00 22.09167 C 9.14 g/m*3 22.09 C 6.3 km/h
711 24-05-2019 14:00:00 22.98333 C 8.88 g/m*3 22.98 C 7.125 km/h
712 24-05-2019 15:00:00 23.45 C 8.54 g/m*3 23.45 C 8.86667 km/h
713 24-05-2019 16:00:00 23.88333 C 8.79 g/m*3 23.88 C 5.34167 km/h
714 24-05-2019 17:00:00 24.26667 C 9.37 g/m*3 24.27 C 4.40833 km/h
715 24-05-2019 18:00:00 24.40833 C 9.15 g/m*3 24.41 C 6.025 km/h
716 24-05-2019 19:00:00 21.04167 C 10.38 g/m*3 21.04 C 5.91667 km/h
717 24-05-2019 20:00:00 19.475 C 10.35 g/m*3 19.48 C 2.68333 km/h
718 24-05-2019 21:00:00 16.96667 C 10.33 g/m*3 16.97 C 0 km/h
719 24-05-2019 22:00:00 15.14167 C 10.29 g/m*3 15.14 C 0 km/h
720 24-05-2019 23:00:00 14.06667 C 10.17 g/m*3 14.07 C 0.53333 km/h
721 25-05-2019 00:00:00 14.75833 C 9.94 g/m*3 14.76 C 1.6 km/h
722 25-05-2019 01:00:00 13.875 C 9.31 g/m*3 13.88 C 0 km/h
723 25-05-2019 02:00:00 13.125 C 8.69 g/m*3 13.13 C 0.53333 km/h
724 25-05-2019 03:00:00 12.16667 C 8.19 g/m*3 12.17 C 0.13333 km/h
725 25-05-2019 04:00:00 10.84167 C 7.48 g/m*3 10.84 C 0 km/h
Sensor: Nr:Datum:Temp:Abs-Feuchte:Windchill:Wind:
Aussen-T/F 726 25-05-2019 05:00:00 10.2 C 7.35 g/m*3 10.2 C 0 km/h
727 25-05-2019 06:00:00 9.525 C 7.62 g/m*3 9.53 C 0.13333 km/h
728 25-05-2019 07:00:00 10.675 C 7.88 g/m*3 10.68 C 2.54167 km/h
729 25-05-2019 08:00:00 13.04167 C 8.21 g/m*3 13.04 C 9.15833 km/h
730 25-05-2019 09:00:00 14.025 C 8.66 g/m*3 14.03 C 5.88333 km/h
731 25-05-2019 10:00:00 15.3 C 8.91 g/m*3 15.3 C 4.68333 km/h
732 25-05-2019 11:00:00 16.25 C 8.78 g/m*3 16.25 C 6.96667 km/h
733 25-05-2019 12:00:00 16.95833 C 9.3 g/m*3 16.96 C 9.68333 km/h
734 25-05-2019 13:00:00 18.45 C 9.49 g/m*3 18.45 C 9.675 km/h
735 25-05-2019 14:00:00 19.35833 C 9.17 g/m*3 19.36 C 11.425 km/h
736 25-05-2019 15:00:00 21.01667 C 9.31 g/m*3 21.02 C 12.76667 km/h
737 25-05-2019 16:00:00 22.06667 C 9.09 g/m*3 22.07 C 13.16667 km/h
738 25-05-2019 17:00:00 21.73333 C 8.79 g/m*3 21.73 C 12.76667 km/h
739 25-05-2019 18:00:00 19.95 C 8.44 g/m*3 19.95 C 7.91667 km/h
740 25-05-2019 19:00:00 18.875 C 8.83 g/m*3 18.88 C 6.15833 km/h
741 25-05-2019 20:00:00 17.98333 C 9.85 g/m*3 17.98 C 1.74167 km/h
742 25-05-2019 21:00:00 16.03333 C 9.75 g/m*3 16.03 C 0.8 km/h
743 25-05-2019 22:00:00 14.81667 C 9.54 g/m*3 14.82 C 0 km/h
744 25-05-2019 23:00:00 13.38333 C 9.26 g/m*3 13.38 C 0.13333 km/h
745 26-05-2019 00:00:00 11.85 C 8.97 g/m*3 11.85 C 0 km/h
746 26-05-2019 01:00:00 10.775 C 8.77 g/m*3 10.78 C 0.4 km/h
747 26-05-2019 02:00:00 10.13333 C 8.62 g/m*3 10.13 C 0.4 km/h
748 26-05-2019 03:00:00 9.44167 C 8.37 g/m*3 9.44 C 0.13333 km/h
749 26-05-2019 04:00:00 8.95 C 8.19 g/m*3 8.95 C 1.60833 km/h
750 26-05-2019 05:00:00 8.825 C 8.23 g/m*3 8.82 C 0.4 km/h
Sensor: Nr:Datum:Temp:Abs-Feuchte:Windchill:Wind:
Aussen-T/F 751 26-05-2019 06:00:00 9.36667 C 8.53 g/m*3 9.37 C 2.00833 km/h
752 26-05-2019 07:00:00 9.9 C 8.75 g/m*3 9.9 C 4.425 km/h
753 26-05-2019 08:00:00 11.21667 C 9.45 g/m*3 11.22 C 1.6 km/h
754 26-05-2019 09:00:00 14.3 C 10.38 g/m*3 14.3 C 8.46667 km/h
755 26-05-2019 10:00:00 16.83333 C 10.43 g/m*3 16.83 C 7.93333 km/h
756 26-05-2019 11:00:00 18.16667 C 9.86 g/m*3 18.17 C 9.95 km/h
757 26-05-2019 12:00:00 18.99167 C 9.91 g/m*3 18.99 C 11.43333 km/h
758 26-05-2019 13:00:00 20.275 C 10.33 g/m*3 20.27 C 12.35833 km/h
759 26-05-2019 14:00:00 21.68333 C 10.07 g/m*3 21.68 C 12.76667 km/h
760 26-05-2019 15:00:00 23.43333 C 10.34 g/m*3 23.43 C 11.56667 km/h
761 26-05-2019 16:00:00 23.725 C 10.39 g/m*3 23.73 C 11.83333 km/h
762 26-05-2019 17:00:00 21.91667 C 10.77 g/m*3 21.92 C 9.56667 km/h
763 26-05-2019 18:00:00 21.45833 C 10.97 g/m*3 21.46 C 6.85 km/h
764 26-05-2019 19:00:00 19.93333 C 11.28 g/m*3 19.93 C 1.6 km/h
765 26-05-2019 20:00:00 18.36667 C 11.34 g/m*3 18.37 C 0.13333 km/h
766 26-05-2019 21:00:00 17.93333 C 10.82 g/m*3 17.93 C 4.55 km/h
767 26-05-2019 22:00:00 17.68333 C 10.86 g/m*3 17.68 C 1.46667 km/h
768 26-05-2019 23:00:00 16.925 C 10.84 g/m*3 16.93 C 1.2 km/h
769 27-05-2019 00:00:00 16.29167 C 10.87 g/m*3 16.29 C 1.2 km/h
770 27-05-2019 01:00:00 15.75 C 10.85 g/m*3 15.75 C 0.13333 km/h
771 27-05-2019 02:00:00 14.7 C 10.48 g/m*3 14.7 C 1.475 km/h
772 27-05-2019 03:00:00 14.1 C 10.25 g/m*3 14.1 C 0.26667 km/h
773 27-05-2019 04:00:00 13.85 C 10.44 g/m*3 13.85 C 1.86667 km/h
774 27-05-2019 05:00:00 14.19167 C 10.98 g/m*3 14.19 C 2.00833 km/h
775 27-05-2019 06:00:00 13.94167 C 11.16 g/m*3 13.94 C 2.95 km/h
Sensor: Nr:Datum:Temp:Abs-Feuchte:Windchill:Wind:
Aussen-T/F 776 27-05-2019 07:00:00 14.20833 C 11.48 g/m*3 14.21 C 2.66667 km/h
777 27-05-2019 08:00:00 14.94167 C 11.91 g/m*3 14.94 C 4.00833 km/h
778 27-05-2019 09:00:00 15.61667 C 12.34 g/m*3 15.62 C 1.875 km/h
779 27-05-2019 10:00:00 15.925 C 12.4 g/m*3 15.93 C 4.95 km/h
780 27-05-2019 11:00:00 15.25 C 11.92 g/m*3 15.25 C 4.7 km/h
781 27-05-2019 12:00:00 15.00833 C 11.95 g/m*3 15.01 C 1.2 km/h
782 27-05-2019 13:00:00 14.39167 C 11.55 g/m*3 14.39 C 2.80833 km/h
783 27-05-2019 14:00:00 14.53333 C 11.76 g/m*3 14.53 C 0.53333 km/h
784 27-05-2019 15:00:00 14.825 C 11.91 g/m*3 14.83 C 0.66667 km/h
785 27-05-2019 16:00:00 15.475 C 12.4 g/m*3 15.48 C 0.4 km/h
786 27-05-2019 17:00:00 16.075 C 12.67 g/m*3 16.08 C 0.66667 km/h
787 27-05-2019 18:00:00 16.275 C 12.89 g/m*3 16.27 C 0 km/h
788 27-05-2019 19:00:00 16.73333 C 13.23 g/m*3 16.73 C 0 km/h
789 27-05-2019 20:00:00 15.78333 C 12.32 g/m*3 15.78 C 0 km/h
790 27-05-2019 21:00:00 14.68333 C 11.71 g/m*3 14.68 C 0 km/h
791 27-05-2019 22:00:00 13.79167 C 11.22 g/m*3 13.79 C 0 km/h
792 27-05-2019 23:00:00 13.4 C 11.04 g/m*3 13.4 C 0 km/h
793 28-05-2019 00:00:00 12.96667 C 10.83 g/m*3 12.97 C 0.26667 km/h
794 28-05-2019 01:00:00 12.45 C 10.52 g/m*3 12.45 C 0 km/h
795 28-05-2019 02:00:00 12.55 C 10.66 g/m*3 12.55 C 0 km/h
796 28-05-2019 03:00:00 12.41667 C 10.56 g/m*3 12.42 C 0 km/h
797 28-05-2019 04:00:00 11.55 C 9.99 g/m*3 11.55 C 0 km/h
798 28-05-2019 05:00:00 11.80833 C 10.21 g/m*3 11.81 C 0 km/h
799 28-05-2019 06:00:00 12.18333 C 10.46 g/m*3 12.18 C 0 km/h
800 28-05-2019 07:00:00 12.51667 C 10.68 g/m*3 12.52 C 0 km/h
Sensor: Nr:Datum:Temp:Abs-Feuchte:Windchill:Wind:
Aussen-T/F 801 28-05-2019 08:00:00 12.84167 C 10.89 g/m*3 12.84 C 2 km/h
802 28-05-2019 09:00:00 13.425 C 11.13 g/m*3 13.43 C 5.20833 km/h
803 28-05-2019 10:00:00 14.74167 C 11.04 g/m*3 14.74 C 8.875 km/h
804 28-05-2019 11:00:00 15.65 C 10.78 g/m*3 15.65 C 12.625 km/h
805 28-05-2019 12:00:00 16.05 C 10.22 g/m*3 16.05 C 13.16667 km/h
806 28-05-2019 13:00:00 17.49167 C 9.9 g/m*3 17.49 C 12.9 km/h
807 28-05-2019 14:00:00 16.04167 C 9.61 g/m*3 16.04 C 15.43333 km/h
808 28-05-2019 15:00:00 13.65833 C 9.96 g/m*3 13.66 C 5.625 km/h
809 28-05-2019 16:00:00 15.80833 C 10.34 g/m*3 15.81 C 7.925 km/h
810 28-05-2019 17:00:00 16.80833 C 9.99 g/m*3 16.81 C 9.01667 km/h
811 28-05-2019 18:00:00 16.78333 C 9.34 g/m*3 16.78 C 12.1 km/h
812 28-05-2019 19:00:00 16.08333 C 9.31 g/m*3 16.08 C 10.89167 km/h
813 28-05-2019 20:00:00 14.10833 C 9.2 g/m*3 14.11 C 3.33333 km/h
814 28-05-2019 21:00:00 13.10833 C 9.32 g/m*3 13.11 C 5.5 km/h
815 28-05-2019 22:00:00 12.15 C 9.41 g/m*3 12.15 C 0.26667 km/h
816 28-05-2019 23:00:00 11.78333 C 9.33 g/m*3 11.78 C 2.675 km/h
817 29-05-2019 00:00:00 11.70833 C 8.98 g/m*3 11.71 C 2.81667 km/h
818 29-05-2019 01:00:00 11.73333 C 9.07 g/m*3 11.73 C 2.13333 km/h
819 29-05-2019 02:00:00 11.875 C 9.07 g/m*3 11.88 C 5.1 km/h
820 29-05-2019 03:00:00 11.675 C 9.09 g/m*3 11.68 C 2.8 km/h
821 29-05-2019 04:00:00 11.44167 C 8.89 g/m*3 11.44 C 4.55 km/h
822 29-05-2019 05:00:00 11.08333 C 8.71 g/m*3 11.08 C 3.06667 km/h
823 29-05-2019 06:00:00 10.875 C 8.6 g/m*3 10.88 C 2.93333 km/h
824 29-05-2019 07:00:00 10.81667 C 8.52 g/m*3 10.82 C 3.875 km/h
825 29-05-2019 08:00:00 11.225 C 8.53 g/m*3 11.23 C 6.14167 km/h
Sensor: Nr:Datum:Temp:Abs-Feuchte:Windchill:Wind:
Aussen-T/F 826 29-05-2019 09:00:00 12.225 C 8.68 g/m*3 12.23 C 4.40833 km/h
827 29-05-2019 10:00:00 13.83333 C 8.49 g/m*3 13.83 C 4.95 km/h
828 29-05-2019 11:00:00 15.09167 C 8.22 g/m*3 15.09 C 7.11667 km/h
829 29-05-2019 12:00:00 15.725 C 8.05 g/m*3 15.73 C 7.11667 km/h
830 29-05-2019 13:00:00 16.48333 C 7.59 g/m*3 16.48 C 7.38333 km/h
831 29-05-2019 14:00:00 17.40833 C 7.18 g/m*3 17.41 C 8.05 km/h
832 29-05-2019 15:00:00 18.99167 C 7.17 g/m*3 18.99 C 7.65 km/h
833 29-05-2019 16:00:00 20.91667 C 6.91 g/m*3 20.92 C 6.16667 km/h
834 29-05-2019 17:00:00 22.38333 C 6.94 g/m*3 22.38 C 6.98333 km/h
835 29-05-2019 18:00:00 22.1 C 7.4 g/m*3 22.1 C 6.71667 km/h
836 29-05-2019 19:00:00 21.55 C 8.49 g/m*3 21.55 C 3.33333 km/h
837 29-05-2019 20:00:00 18.66667 C 9.84 g/m*3 18.67 C 0 km/h
838 29-05-2019 21:00:00 15.49167 C 8.91 g/m*3 15.49 C 0.13333 km/h
839 29-05-2019 22:00:00 13.29167 C 8.95 g/m*3 13.29 C 0 km/h
840 29-05-2019 23:00:00 12.91667 C 8.94 g/m*3 12.92 C 0 km/h
841 30-05-2019 00:00:00 12.05833 C 8.69 g/m*3 12.06 C 0 km/h
842 30-05-2019 01:00:00 11.44167 C 8.69 g/m*3 11.44 C 0 km/h
843 30-05-2019 02:00:00 10.88333 C 8.56 g/m*3 10.88 C 0.66667 km/h
844 30-05-2019 03:00:00 9.95 C 8.3 g/m*3 9.95 C 0 km/h
845 30-05-2019 04:00:00 9.56667 C 8.28 g/m*3 9.57 C 0 km/h
846 30-05-2019 05:00:00 9.1 C 8.16 g/m*3 9.1 C 0 km/h
847 30-05-2019 06:00:00 9.71667 C 8.63 g/m*3 9.72 C 0.13333 km/h
848 30-05-2019 07:00:00 10.925 C 9.11 g/m*3 10.93 C 1.46667 km/h
849 30-05-2019 08:00:00 12.375 C 9.37 g/m*3 12.38 C 3.20833 km/h
850 30-05-2019 09:00:00 14.10833 C 9.89 g/m*3 14.11 C 2.13333 km/h
Sensor: Nr:Datum:Temp:Abs-Feuchte:Windchill:Wind:
Aussen-T/F 851 30-05-2019 10:00:00 16.09167 C 10.45 g/m*3 16.09 C 4.00833 km/h
852 30-05-2019 11:00:00 18.18333 C 10.16 g/m*3 18.18 C 10.63333 km/h
853 30-05-2019 12:00:00 18.2 C 10.18 g/m*3 18.2 C 6.98333 km/h
854 30-05-2019 13:00:00 18.23333 C 10.91 g/m*3 18.23 C 2.8 km/h
855 30-05-2019 14:00:00 19.425 C 11.22 g/m*3 19.43 C 10.35 km/h
856 30-05-2019 15:00:00 21.175 C 11.91 g/m*3 21.18 C 15.83333 km/h
857 30-05-2019 16:00:00 21.95833 C 12.18 g/m*3 21.96 C 14.23333 km/h
858 30-05-2019 17:00:00 21.625 C 12.3 g/m*3 21.63 C 13.7 km/h
859 30-05-2019 18:00:00 20.95833 C 12.4 g/m*3 20.96 C 10.625 km/h
860 30-05-2019 19:00:00 19.95 C 12.41 g/m*3 19.95 C 6.175 km/h
861 30-05-2019 20:00:00 18.94167 C 12.53 g/m*3 18.94 C 1.06667 km/h
862 30-05-2019 21:00:00 17.675 C 12.33 g/m*3 17.68 C 0.13333 km/h
863 30-05-2019 22:00:00 16.54167 C 12.06 g/m*3 16.54 C 0 km/h
864 30-05-2019 23:00:00 15.89167 C 11.91 g/m*3 15.89 C 0 km/h
865 31-05-2019 00:00:00 15.65 C 11.99 g/m*3 15.65 C 0.66667 km/h
866 31-05-2019 01:00:00 15.61667 C 12.09 g/m*3 15.62 C 1.33333 km/h
867 31-05-2019 02:00:00 15.46667 C 11.98 g/m*3 15.47 C 1.2 km/h
868 31-05-2019 03:00:00 14.41667 C 11.39 g/m*3 14.42 C 1.33333 km/h
869 31-05-2019 04:00:00 13.56667 C 10.95 g/m*3 13.57 C 0 km/h
870 31-05-2019 05:00:00 12.83333 C 10.61 g/m*3 12.83 C 0 km/h
871 31-05-2019 06:00:00 12.75 C 10.61 g/m*3 12.75 C 0 km/h
872 31-05-2019 07:00:00 13.1 C 10.95 g/m*3 13.1 C 0 km/h
873 31-05-2019 08:00:00 14.175 C 11.67 g/m*3 14.18 C 0 km/h
874 31-05-2019 09:00:00 16.24167 C 12.15 g/m*3 16.24 C 6.03333 km/h
875 31-05-2019 10:00:00 18.69167 C 11.94 g/m*3 18.69 C 6.71667 km/h
Sensor: Nr:Datum:Temp:Abs-Feuchte:Windchill:Wind:
Aussen-T/F 876 31-05-2019 11:00:00 20.225 C 11.95 g/m*3 20.23 C 6.84167 km/h
877 31-05-2019 12:00:00 21.375 C 12.23 g/m*3 21.38 C 9.025 km/h
878 31-05-2019 13:00:00 22.725 C 12.22 g/m*3 22.73 C 10.23333 km/h
879 31-05-2019 14:00:00 23.925 C 12.02 g/m*3 23.93 C 12.1 km/h
880 31-05-2019 15:00:00 25.28333 C 12.06 g/m*3 25.28 C 11.025 km/h
881 31-05-2019 16:00:00 27.3 C 11.82 g/m*3 27.3 C 9.81667 km/h
882 31-05-2019 17:00:00 27.50833 C 11.82 g/m*3 27.51 C 9.54167 km/h
883 31-05-2019 18:00:00 27.58333 C 11.45 g/m*3 27.58 C 7.51667 km/h
884 31-05-2019 19:00:00 25.63333 C 12.3 g/m*3 25.63 C 2.54167 km/h
885 31-05-2019 20:00:00 23.64167 C 12.51 g/m*3 23.64 C 2 km/h
886 31-05-2019 21:00:00 20.09167 C 12.47 g/m*3 20.09 C 0 km/h
887 31-05-2019 22:00:00 17.725 C 11.89 g/m*3 17.73 C 0 km/h
888 31-05-2019 23:00:00 15.91667 C 11.53 g/m*3 15.92 C 0 km/h
889 01-06-2019 00:00:00 14.65 C 11.15 g/m*3 14.65 C 0 km/h
890 01-06-2019 01:00:00 13.91667 C 10.99 g/m*3 13.92 C 0 km/h
891 01-06-2019 02:00:00 13.325 C 10.72 g/m*3 13.33 C 0 km/h
892 01-06-2019 03:00:00 12.83333 C 10.52 g/m*3 12.83 C 0 km/h
893 01-06-2019 04:00:00 12.2 C 10.14 g/m*3 12.2 C 0.13333 km/h
894 01-06-2019 05:00:00 11.75833 C 9.96 g/m*3 11.76 C 0.13333 km/h
895 01-06-2019 06:00:00 11.825 C 10.05 g/m*3 11.83 C 0.4 km/h
896 01-06-2019 07:00:00 12.61667 C 10.63 g/m*3 12.62 C 2.26667 km/h
897 01-06-2019 08:00:00 13.875 C 11.34 g/m*3 13.88 C 1.6 km/h
898 01-06-2019 09:00:00 15.45 C 12.08 g/m*3 15.45 C 1.06667 km/h
899 01-06-2019 10:00:00 18.14167 C 13.09 g/m*3 18.14 C 0.4 km/h
900 01-06-2019 11:00:00 20.91667 C 13.13 g/m*3 20.92 C 4.95833 km/h
Sensor: Nr:Datum:Temp:Abs-Feuchte:Windchill:Wind:
Aussen-T/F 901 01-06-2019 12:00:00 23.01667 C 13.12 g/m*3 23.02 C 10.1 km/h
902 01-06-2019 13:00:00 24.31667 C 13.14 g/m*3 24.32 C 9.29167 km/h
903 01-06-2019 14:00:00 25.51667 C 13.19 g/m*3 25.52 C 9.01667 km/h
904 01-06-2019 15:00:00 27.83333 C 13.34 g/m*3 27.83 C 9.14167 km/h
905 01-06-2019 16:00:00 29.975 C 13.22 g/m*3 29.98 C 7.925 km/h
906 01-06-2019 17:00:00 30.09167 C 12.85 g/m*3 30.09 C 6.98333 km/h
907 01-06-2019 18:00:00 30.23333 C 13.31 g/m*3 30.23 C 5.225 km/h
908 01-06-2019 19:00:00 29.675 C 15.12 g/m*3 29.68 C 2.66667 km/h
909 01-06-2019 20:00:00 26.65833 C 14.88 g/m*3 26.66 C 0.26667 km/h
910 01-06-2019 21:00:00 22.7 C 13.74 g/m*3 22.7 C 0 km/h
911 01-06-2019 22:00:00 20.00833 C 13.16 g/m*3 20.01 C 0 km/h
912 01-06-2019 23:00:00 18.20833 C 12.79 g/m*3 18.21 C 0 km/h
913 02-06-2019 00:00:00 16.75833 C 12.34 g/m*3 16.76 C 0 km/h
914 02-06-2019 01:00:00 15.66667 C 11.93 g/m*3 15.67 C 0 km/h
915 02-06-2019 02:00:00 14.925 C 11.71 g/m*3 14.93 C 0 km/h
916 02-06-2019 03:00:00 14.325 C 11.44 g/m*3 14.33 C 0 km/h
917 02-06-2019 04:00:00 13.81667 C 11.2 g/m*3 13.82 C 0 km/h
918 02-06-2019 05:00:00 13.29167 C 10.92 g/m*3 13.29 C 0 km/h
919 02-06-2019 06:00:00 13.40833 C 11.09 g/m*3 13.41 C 0 km/h
920 02-06-2019 07:00:00 13.95833 C 11.54 g/m*3 13.96 C 0.26667 km/h
921 02-06-2019 08:00:00 15.03333 C 12.33 g/m*3 15.03 C 0.13333 km/h
922 02-06-2019 09:00:00 16.60833 C 13.56 g/m*3 16.61 C 0 km/h
923 02-06-2019 10:00:00 19.64167 C 15.01 g/m*3 19.64 C 0 km/h
924 02-06-2019 11:00:00 23.11667 C 15.97 g/m*3 23.12 C 0.53333 km/h
925 02-06-2019 12:00:00 26.66667 C 14.61 g/m*3 26.67 C 1.46667 km/h
Sensor: Nr:Datum:Temp:Abs-Feuchte:Windchill:Wind:
Aussen-T/F 926 02-06-2019 13:00:00 27.96667 C 12.58 g/m*3 27.97 C 10.35 km/h
927 02-06-2019 14:00:00 29.1 C 13.16 g/m*3 29.1 C 10.75833 km/h
928 02-06-2019 15:00:00 31.04167 C 13.6 g/m*3 31.04 C 10.35833 km/h
929 02-06-2019 16:00:00 32.76667 C 13.1 g/m*3 32.77 C 11.01667 km/h
930 02-06-2019 17:00:00 33.1 C 13.33 g/m*3 33.1 C 8.2 km/h
931 02-06-2019 18:00:00 33 C 13.5 g/m*3 33 C 6.84167 km/h
932 02-06-2019 19:00:00 32.23333 C 13.67 g/m*3 32.23 C 2.675 km/h
933 02-06-2019 20:00:00 28.7 C 13.99 g/m*3 28.7 C 1.2 km/h
934 02-06-2019 21:00:00 24.375 C 12.96 g/m*3 24.38 C 0.8 km/h
935 02-06-2019 22:00:00 21.35833 C 12.7 g/m*3 21.36 C 0.4 km/h
936 02-06-2019 23:00:00 19.30833 C 12.42 g/m*3 19.31 C 0 km/h
937 03-06-2019 00:00:00 17.75833 C 12.09 g/m*3 17.76 C 0 km/h
938 03-06-2019 01:00:00 16.825 C 11.79 g/m*3 16.83 C 0 km/h
939 03-06-2019 02:00:00 16.15 C 11.67 g/m*3 16.15 C 0 km/h
940 03-06-2019 03:00:00 15.51667 C 11.59 g/m*3 15.52 C 0 km/h
941 03-06-2019 04:00:00 14.84167 C 11.42 g/m*3 14.84 C 0 km/h
942 03-06-2019 05:00:00 14.775 C 11.62 g/m*3 14.78 C 0 km/h
943 03-06-2019 06:00:00 15.23333 C 11.97 g/m*3 15.23 C 0 km/h
944 03-06-2019 07:00:00 16.11667 C 12.57 g/m*3 16.12 C 0 km/h
945 03-06-2019 08:00:00 17.63333 C 13.32 g/m*3 17.63 C 0 km/h
946 03-06-2019 09:00:00 20.30833 C 15 g/m*3 20.31 C 0 km/h
947 03-06-2019 10:00:00 21.325 C 16.16 g/m*3 21.33 C 0 km/h
948 03-06-2019 11:00:00 23.475 C 15.75 g/m*3 23.48 C 3.20833 km/h
949 03-06-2019 12:00:00 26.39167 C 14.87 g/m*3 26.39 C 9.41667 km/h
950 03-06-2019 13:00:00 27.69167 C 14.1 g/m*3 27.69 C 12.75833 km/h
Sensor: Nr:Datum:Temp:Abs-Feuchte:Windchill:Wind:
Aussen-T/F 951 03-06-2019 14:00:00 28.44167 C 11.28 g/m*3 28.44 C 16.5 km/h
952 03-06-2019 15:00:00 29.40833 C 10.28 g/m*3 29.41 C 15.83333 km/h
953 03-06-2019 16:00:00 26.71667 C 11.68 g/m*3 26.72 C 5.36667 km/h
954 03-06-2019 17:00:00 25.15833 C 13.45 g/m*3 25.16 C 9.29167 km/h
955 03-06-2019 18:00:00 23.71667 C 13.68 g/m*3 23.72 C 8.75 km/h
956 03-06-2019 19:00:00 22.66667 C 13.73 g/m*3 22.67 C 1.73333 km/h
957 03-06-2019 20:00:00 22.29167 C 13.82 g/m*3 22.29 C 1.46667 km/h
958 03-06-2019 21:00:00 20.63333 C 13.37 g/m*3 20.63 C 0 km/h
959 03-06-2019 22:00:00 19.40833 C 12.98 g/m*3 19.41 C 0 km/h
960 03-06-2019 23:00:00 18.06667 C 12.58 g/m*3 18.07 C 0 km/h
961 04-06-2019 00:00:00 16.71667 C 12.31 g/m*3 16.72 C 0 km/h
962 04-06-2019 01:00:00 15.84167 C 12.11 g/m*3 15.84 C 0 km/h
963 04-06-2019 02:00:00 15.15 C 11.88 g/m*3 15.15 C 0 km/h
964 04-06-2019 03:00:00 14.41667 C 11.5 g/m*3 14.42 C 0 km/h
965 04-06-2019 04:00:00 13.65833 C 11.04 g/m*3 13.66 C 0 km/h
966 04-06-2019 05:00:00 13.2 C 10.82 g/m*3 13.2 C 0.26667 km/h
967 04-06-2019 06:00:00 13.275 C 10.98 g/m*3 13.28 C 0.13333 km/h
968 04-06-2019 07:00:00 14.525 C 11.83 g/m*3 14.53 C 0 km/h
969 04-06-2019 08:00:00 16.05 C 12.56 g/m*3 16.05 C 1.33333 km/h
970 04-06-2019 09:00:00 17.45 C 13.18 g/m*3 17.45 C 2.13333 km/h
971 04-06-2019 10:00:00 20.16667 C 13.73 g/m*3 20.17 C 7.65 km/h
972 04-06-2019 11:00:00 22.35833 C 14.08 g/m*3 22.36 C 10.1 km/h
973 04-06-2019 12:00:00 23.89167 C 14.74 g/m*3 23.89 C 9.28333 km/h
974 04-06-2019 13:00:00 25.74167 C 14.5 g/m*3 25.74 C 9.00833 km/h
975 04-06-2019 14:00:00 27.4 C 14.36 g/m*3 27.4 C 8.74167 km/h
Sensor: Nr:Datum:Temp:Abs-Feuchte:Windchill:Wind:
Aussen-T/F 976 04-06-2019 15:00:00 28.7 C 14.76 g/m*3 28.7 C 7.36667 km/h
977 04-06-2019 16:00:00 30.56667 C 15.5 g/m*3 30.57 C 7.93333 km/h
978 04-06-2019 17:00:00 31.925 C 14.93 g/m*3 31.93 C 7.375 km/h
979 04-06-2019 18:00:00 31.24167 C 15.37 g/m*3 31.24 C 6.175 km/h
980 04-06-2019 19:00:00 29.25 C 15.99 g/m*3 29.25 C 2.8 km/h
981 04-06-2019 20:00:00 26.51667 C 15.68 g/m*3 26.52 C 0.13333 km/h
982 04-06-2019 21:00:00 23.36667 C 14.2 g/m*3 23.37 C 0 km/h
983 04-06-2019 22:00:00 22.025 C 13.74 g/m*3 22.03 C 0.26667 km/h
984 04-06-2019 23:00:00 22.70833 C 13.11 g/m*3 22.71 C 4.275 km/h
985 05-06-2019 00:00:00 23.28333 C 13.16 g/m*3 23.28 C 3.48333 km/h
986 05-06-2019 01:00:00 21.33333 C 13.06 g/m*3 21.33 C 0 km/h
987 05-06-2019 02:00:00 20.575 C 13.25 g/m*3 20.58 C 0 km/h
988 05-06-2019 03:00:00 19.35 C 12.95 g/m*3 19.35 C 0 km/h
989 05-06-2019 04:00:00 18.80833 C 12.93 g/m*3 18.81 C 0.13333 km/h
990 05-06-2019 05:00:00 17.44167 C 12.46 g/m*3 17.44 C 2.15 km/h
991 05-06-2019 06:00:00 17.69167 C 12.86 g/m*3 17.69 C 3.475 km/h
992 05-06-2019 07:00:00 17.98333 C 13.29 g/m*3 17.98 C 0 km/h
993 05-06-2019 08:00:00 18.38333 C 13.83 g/m*3 18.38 C 0.26667 km/h
994 05-06-2019 09:00:00 21.025 C 14.02 g/m*3 21.03 C 6.575 km/h
995 05-06-2019 10:00:00 22.73333 C 14.29 g/m*3 22.73 C 3.73333 km/h
996 05-06-2019 11:00:00 23.64167 C 14.14 g/m*3 23.64 C 3.46667 km/h
997 05-06-2019 12:00:00 24.34167 C 14.03 g/m*3 24.34 C 4.81667 km/h
998 05-06-2019 13:00:00 25.925 C 14.59 g/m*3 25.93 C 8.05833 km/h
999 05-06-2019 14:00:00 27.25833 C 14.64 g/m*3 27.26 C 11.16667 km/h
1000 05-06-2019 15:00:00 29.5 C 14.63 g/m*3 29.5 C 9.41667 km/h
Sensor: Nr:Datum:Temp:Abs-Feuchte:Windchill:Wind:
Aussen-T/F 1001 05-06-2019 16:00:00 31.35 C 13.61 g/m*3 31.35 C 6.575 km/h
1002 05-06-2019 17:00:00 30.43333 C 14.51 g/m*3 30.43 C 3.46667 km/h
1003 05-06-2019 18:00:00 28.60833 C 15.79 g/m*3 28.61 C 0 km/h
1004 05-06-2019 19:00:00 29.73333 C 16.34 g/m*3 29.73 C 0 km/h
1005 05-06-2019 20:00:00 27.55833 C 15.02 g/m*3 27.56 C 0 km/h
1006 05-06-2019 21:00:00 23.44167 C 14.4 g/m*3 23.44 C 0 km/h
1007 05-06-2019 22:00:00 21.625 C 14.37 g/m*3 21.63 C 0 km/h
1008 05-06-2019 23:00:00 20.83333 C 14.01 g/m*3 20.83 C 0 km/h
1009 06-06-2019 00:00:00 21.575 C 13.11 g/m*3 21.58 C 15.69167 km/h
1010 06-06-2019 01:00:00 18.925 C 13.24 g/m*3 18.93 C 8.85 km/h
1011 06-06-2019 02:00:00 17.10833 C 13.39 g/m*3 17.11 C 0.8 km/h
1012 06-06-2019 03:00:00 16.70833 C 13.32 g/m*3 16.71 C 0.8 km/h
1013 06-06-2019 04:00:00 16.48333 C 13.27 g/m*3 16.48 C 0.66667 km/h
1014 06-06-2019 05:00:00 15.51667 C 12.39 g/m*3 15.52 C 12.89167 km/h
1015 06-06-2019 06:00:00 13.94167 C 11.1 g/m*3 13.94 C 14.36667 km/h
1016 06-06-2019 07:00:00 13.19167 C 10.29 g/m*3 13.19 C 11.29167 km/h
1017 06-06-2019 08:00:00 13.325 C 9.79 g/m*3 13.33 C 14.75833 km/h
1018 06-06-2019 09:00:00 13.10833 C 9.27 g/m*3 13.11 C 10.06667 km/h
1019 06-06-2019 10:00:00 13.80833 C 9.54 g/m*3 13.81 C 7.65 km/h
1020 06-06-2019 11:00:00 14.93333 C 9.64 g/m*3 14.93 C 8.6 km/h
1021 06-06-2019 12:00:00 15.40833 C 9.63 g/m*3 15.41 C 11.3 km/h
1022 06-06-2019 13:00:00 16.49167 C 9.73 g/m*3 16.49 C 13.03333 km/h
1023 06-06-2019 14:00:00 17.025 C 9.88 g/m*3 17.02 C 11.29167 km/h
1024 06-06-2019 15:00:00 17.75833 C 10.06 g/m*3 17.76 C 12.76667 km/h
1025 06-06-2019 16:00:00 18 C 10.06 g/m*3 18 C 11.56667 km/h
Sensor: Nr:Datum:Temp:Abs-Feuchte:Windchill:Wind:
Aussen-T/F 1026 06-06-2019 17:00:00 16.73333 C 9.85 g/m*3 16.73 C 9.4 km/h
1027 06-06-2019 18:00:00 16.975 C 10.1 g/m*3 16.98 C 9.55 km/h
1028 06-06-2019 19:00:00 18.26667 C 9.92 g/m*3 18.27 C 9.425 km/h
1029 06-06-2019 20:00:00 17.725 C 9.87 g/m*3 17.73 C 4.41667 km/h
1030 06-06-2019 21:00:00 15.43333 C 9.93 g/m*3 15.43 C 0 km/h
1031 06-06-2019 22:00:00 12.75 C 9.36 g/m*3 12.75 C 0 km/h
1032 06-06-2019 23:00:00 11.43333 C 9 g/m*3 11.43 C 0 km/h
1033 07-06-2019 00:00:00 10.475 C 8.76 g/m*3 10.48 C 0 km/h
1034 07-06-2019 01:00:00 9.875 C 8.59 g/m*3 9.88 C 0 km/h
1035 07-06-2019 02:00:00 9.425 C 8.43 g/m*3 9.43 C 0 km/h
1036 07-06-2019 03:00:00 9.56667 C 8.64 g/m*3 9.57 C 0 km/h
1037 07-06-2019 04:00:00 10.13333 C 8.97 g/m*3 10.13 C 0 km/h
1038 07-06-2019 05:00:00 9.23333 C 8.44 g/m*3 9.23 C 0 km/h
1039 07-06-2019 06:00:00 9.60833 C 8.78 g/m*3 9.61 C 0 km/h
1040 07-06-2019 07:00:00 10.38333 C 9.24 g/m*3 10.38 C 1.06667 km/h
1041 07-06-2019 08:00:00 11.86667 C 9.78 g/m*3 11.87 C 7.64167 km/h
1042 07-06-2019 09:00:00 13.75833 C 10 g/m*3 13.76 C 11.29167 km/h
1043 07-06-2019 10:00:00 16.65 C 10.74 g/m*3 16.65 C 8.85833 km/h
1044 07-06-2019 11:00:00 18.75833 C 10.52 g/m*3 18.76 C 9.81667 km/h
1045 07-06-2019 12:00:00 19.9 C 10.9 g/m*3 19.9 C 9.55833 km/h
1046 07-06-2019 13:00:00 20.89167 C 11.71 g/m*3 20.89 C 6.84167 km/h
1047 07-06-2019 14:00:00 21.09167 C 12.55 g/m*3 21.09 C 4.56667 km/h
1048 07-06-2019 15:00:00 24.175 C 12.56 g/m*3 24.18 C 9.41667 km/h
1049 07-06-2019 16:00:00 25.96667 C 12.29 g/m*3 25.97 C 7.8 km/h
1050 07-06-2019 17:00:00 25.36667 C 13.61 g/m*3 25.37 C 4.95833 km/h
Sensor: Nr:Datum:Temp:Abs-Feuchte:Windchill:Wind:
Aussen-T/F 1051 07-06-2019 18:00:00 21.74167 C 11.2 g/m*3 21.74 C 25.73333 km/h
1052 07-06-2019 19:00:00 17.18333 C 9.17 g/m*3 17.18 C 22.13333 km/h
1053 07-06-2019 20:00:00 15.41667 C 9.43 g/m*3 15.42 C 13.68333 km/h
1054 07-06-2019 21:00:00 14.95 C 9.32 g/m*3 14.95 C 3.86667 km/h
1055 07-06-2019 22:00:00 14.8 C 8.85 g/m*3 14.8 C 2.80833 km/h
1056 07-06-2019 23:00:00 15.125 C 8.59 g/m*3 15.13 C 5.89167 km/h
1057 08-06-2019 00:00:00 15.46667 C 8.76 g/m*3 15.47 C 10.35 km/h
1058 08-06-2019 01:00:00 15.61667 C 8.69 g/m*3 15.62 C 13.3 km/h
1059 08-06-2019 02:00:00 15.34167 C 8.78 g/m*3 15.34 C 8.45 km/h
1060 08-06-2019 03:00:00 15.06667 C 8.63 g/m*3 15.07 C 8.05833 km/h
1061 08-06-2019 04:00:00 14.86667 C 8.14 g/m*3 14.87 C 12.88333 km/h
1062 08-06-2019 05:00:00 14.10833 C 7.69 g/m*3 14.11 C 15.69167 km/h
1063 08-06-2019 06:00:00 13.325 C 7.72 g/m*3 13.33 C 15.825 km/h
1064 08-06-2019 07:00:00 13.69167 C 7.75 g/m*3 13.69 C 19.43333 km/h
1065 08-06-2019 08:00:00 14.29167 C 8.02 g/m*3 14.29 C 17.96667 km/h
1066 08-06-2019 09:00:00 14.575 C 8.26 g/m*3 14.58 C 12.35833 km/h
1067 08-06-2019 10:00:00 14.90833 C 8.49 g/m*3 14.91 C 14.225 km/h
1068 08-06-2019 11:00:00 15.70833 C 8.59 g/m*3 15.71 C 12.89167 km/h
1069 08-06-2019 12:00:00 16.525 C 8.65 g/m*3 16.52 C 14.23333 km/h
1070 08-06-2019 13:00:00 17.38333 C 8.54 g/m*3 17.38 C 17.56667 km/h
1071 08-06-2019 14:00:00 18.325 C 8.73 g/m*3 18.33 C 15.03333 km/h
1072 08-06-2019 15:00:00 19.15 C 8.63 g/m*3 19.15 C 15.16667 km/h
1073 08-06-2019 16:00:00 19.65833 C 8.61 g/m*3 19.66 C 15.03333 km/h
1074 08-06-2019 17:00:00 19.925 C 8.52 g/m*3 19.93 C 14.9 km/h
1075 08-06-2019 18:00:00 19.95833 C 8.52 g/m*3 19.96 C 12.475 km/h
Sensor: Nr:Datum:Temp:Abs-Feuchte:Windchill:Wind:
Aussen-T/F 1076 08-06-2019 19:00:00 18.98333 C 8.87 g/m*3 18.98 C 13.16667 km/h
1077 08-06-2019 20:00:00 17.61667 C 9.35 g/m*3 17.62 C 2.275 km/h
1078 08-06-2019 21:00:00 16.11667 C 9.6 g/m*3 16.12 C 2.675 km/h
1079 08-06-2019 22:00:00 14.39167 C 9.21 g/m*3 14.39 C 0.66667 km/h
1080 08-06-2019 23:00:00 12.65833 C 8.95 g/m*3 12.66 C 0.8 km/h
1081 09-06-2019 00:00:00 11.66667 C 8.84 g/m*3 11.67 C 0.26667 km/h
1082 09-06-2019 01:00:00 11.08333 C 8.75 g/m*3 11.08 C 2.13333 km/h
1083 09-06-2019 02:00:00 10.925 C 8.7 g/m*3 10.93 C 1.46667 km/h
1084 09-06-2019 03:00:00 10.28333 C 8.52 g/m*3 10.28 C 0 km/h
1085 09-06-2019 04:00:00 9.4 C 8.17 g/m*3 9.4 C 0 km/h
1086 09-06-2019 05:00:00 8.675 C 7.97 g/m*3 8.68 C 0 km/h
1087 09-06-2019 06:00:00 8.63333 C 8.04 g/m*3 8.63 C 0 km/h
1088 09-06-2019 07:00:00 9.68333 C 8.7 g/m*3 9.68 C 0.13333 km/h
1089 09-06-2019 08:00:00 11.03333 C 9.45 g/m*3 11.03 C 0 km/h
1090 09-06-2019 09:00:00 12.80833 C 10.18 g/m*3 12.81 C 0 km/h
1091 09-06-2019 10:00:00 16.55 C 10.28 g/m*3 16.55 C 4.43333 km/h
1092 09-06-2019 11:00:00 18.86667 C 9.31 g/m*3 18.87 C 5.75833 km/h
1093 09-06-2019 12:00:00 19.76667 C 9.15 g/m*3 19.77 C 7.925 km/h
1094 09-06-2019 13:00:00 20.71667 C 9.31 g/m*3 20.72 C 10.75 km/h
1095 09-06-2019 14:00:00 21.925 C 9.76 g/m*3 21.93 C 9.13333 km/h
1096 09-06-2019 15:00:00 22.45833 C 10.03 g/m*3 22.46 C 9.425 km/h
1097 09-06-2019 16:00:00 22.79167 C 10.29 g/m*3 22.79 C 9.14167 km/h
1098 09-06-2019 17:00:00 22.7 C 10.42 g/m*3 22.7 C 7.65833 km/h
1099 09-06-2019 18:00:00 23.09167 C 10.42 g/m*3 23.09 C 9.95 km/h
1100 09-06-2019 19:00:00 21.64167 C 12.07 g/m*3 21.64 C 0 km/h
Sensor: Nr:Datum:Temp:Abs-Feuchte:Windchill:Wind:
Aussen-T/F 1101 09-06-2019 20:00:00 19.74167 C 11.76 g/m*3 19.74 C 0 km/h
1102 09-06-2019 21:00:00 18.86667 C 11.67 g/m*3 18.87 C 0 km/h
1103 09-06-2019 22:00:00 18.36667 C 11.71 g/m*3 18.37 C 0 km/h
1104 09-06-2019 23:00:00 17.95 C 11.66 g/m*3 17.95 C 0 km/h
1105 10-06-2019 00:00:00 17.525 C 11.62 g/m*3 17.52 C 0 km/h
1106 10-06-2019 01:00:00 16.95833 C 11.21 g/m*3 16.96 C 0 km/h
1107 10-06-2019 02:00:00 16.08333 C 10.92 g/m*3 16.08 C 0 km/h
1108 10-06-2019 03:00:00 14.94167 C 10.83 g/m*3 14.94 C 0 km/h
1109 10-06-2019 04:00:00 14.625 C 10.84 g/m*3 14.63 C 0.675 km/h
1110 10-06-2019 05:00:00 14.775 C 11.07 g/m*3 14.78 C 0.4 km/h
1111 10-06-2019 06:00:00 14.825 C 11.23 g/m*3 14.83 C 0 km/h
1112 10-06-2019 07:00:00 15.5 C 11.56 g/m*3 15.5 C 2.13333 km/h
1113 10-06-2019 08:00:00 17.725 C 12.13 g/m*3 17.73 C 3.34167 km/h
1114 10-06-2019 09:00:00 18.94167 C 12.32 g/m*3 18.94 C 9.83333 km/h
1115 10-06-2019 10:00:00 19.85 C 12.53 g/m*3 19.85 C 8.34167 km/h
1116 10-06-2019 11:00:00 21.15833 C 12.66 g/m*3 21.16 C 8.45833 km/h
1117 10-06-2019 12:00:00 22.34167 C 12.6 g/m*3 22.34 C 6.45 km/h
1118 10-06-2019 13:00:00 23.06667 C 12.71 g/m*3 23.07 C 5.9 km/h
1119 10-06-2019 14:00:00 23.225 C 13.03 g/m*3 23.23 C 10.625 km/h
1120 10-06-2019 15:00:00 23.225 C 13.1 g/m*3 23.23 C 8.34167 km/h
1121 10-06-2019 16:00:00 24.06667 C 13.07 g/m*3 24.07 C 5.9 km/h
1122 10-06-2019 17:00:00 23.65 C 12.96 g/m*3 23.65 C 3.6 km/h
1123 10-06-2019 18:00:00 23.19167 C 12.87 g/m*3 23.19 C 6.70833 km/h
1124 10-06-2019 19:00:00 21.7 C 12.34 g/m*3 21.7 C 5.09167 km/h
1125 10-06-2019 20:00:00 20.61667 C 12.53 g/m*3 20.62 C 0.8 km/h
Sensor: Nr:Datum:Temp:Abs-Feuchte:Windchill:Wind:
Aussen-T/F 1126 10-06-2019 21:00:00 19.38333 C 12.45 g/m*3 19.38 C 5.775 km/h
1127 10-06-2019 22:00:00 17.975 C 12.19 g/m*3 17.98 C 6.575 km/h
1128 10-06-2019 23:00:00 17.09167 C 12 g/m*3 17.09 C 2.8 km/h
1129 11-06-2019 00:00:00 16.55833 C 12.05 g/m*3 16.56 C 3.075 km/h
1130 11-06-2019 01:00:00 16.38333 C 12.11 g/m*3 16.38 C 4.14167 km/h
1131 11-06-2019 02:00:00 16.15833 C 11.86 g/m*3 16.16 C 0.8 km/h
1132 11-06-2019 03:00:00 15.29167 C 11.83 g/m*3 15.29 C 0.66667 km/h
1133 11-06-2019 04:00:00 14.6 C 11.65 g/m*3 14.6 C 0.4 km/h
1134 11-06-2019 05:00:00 14.21667 C 11.49 g/m*3 14.22 C 0 km/h
1135 11-06-2019 06:00:00 14.15833 C 11.55 g/m*3 14.16 C 0 km/h
1136 11-06-2019 07:00:00 14.5 C 11.86 g/m*3 14.5 C 0 km/h
1137 11-06-2019 08:00:00 15.01667 C 12.27 g/m*3 15.02 C 0.26667 km/h
1138 11-06-2019 09:00:00 15.34167 C 12.28 g/m*3 15.34 C 1.06667 km/h
1139 11-06-2019 10:00:00 16.16667 C 12.49 g/m*3 16.17 C 1.20833 km/h
1140 11-06-2019 11:00:00 16.925 C 12.28 g/m*3 16.93 C 2 km/h
1141 11-06-2019 12:00:00 17.81667 C 11.94 g/m*3 17.82 C 2.26667 km/h
1142 11-06-2019 13:00:00 19.09167 C 11.78 g/m*3 19.09 C 4.93333 km/h
1143 11-06-2019 14:00:00 20.24167 C 11.58 g/m*3 20.24 C 5.09167 km/h
1144 11-06-2019 15:00:00 21.31667 C 11.54 g/m*3 21.32 C 5.48333 km/h
1145 11-06-2019 16:00:00 20.94167 C 12.14 g/m*3 20.94 C 1.6 km/h
1146 11-06-2019 17:00:00 19.28333 C 13.15 g/m*3 19.28 C 0.13333 km/h
1147 11-06-2019 18:00:00 18.75833 C 13.2 g/m*3 18.76 C 0.13333 km/h
1148 11-06-2019 19:00:00 20.35 C 12.52 g/m*3 20.35 C 4.825 km/h
1149 11-06-2019 20:00:00 19.19167 C 13.16 g/m*3 19.19 C 0 km/h
1150 11-06-2019 21:00:00 17.76667 C 12.6 g/m*3 17.77 C 0 km/h
Sensor: Nr:Datum:Temp:Abs-Feuchte:Windchill:Wind:
Aussen-T/F 1151 11-06-2019 22:00:00 16.79167 C 12.11 g/m*3 16.79 C 0 km/h
1152 11-06-2019 23:00:00 15.70833 C 11.58 g/m*3 15.71 C 0.13333 km/h
1153 12-06-2019 00:00:00 15.16667 C 11.27 g/m*3 15.17 C 0 km/h
1154 12-06-2019 01:00:00 14.39167 C 10.98 g/m*3 14.39 C 0.4 km/h
1155 12-06-2019 02:00:00 14.59167 C 11.26 g/m*3 14.59 C 0 km/h
1156 12-06-2019 03:00:00 14.525 C 11.3 g/m*3 14.53 C 0 km/h
1157 12-06-2019 04:00:00 14.39167 C 11.24 g/m*3 14.39 C 0 km/h
1158 12-06-2019 05:00:00 14.125 C 11.15 g/m*3 14.13 C 0.26667 km/h
1159 12-06-2019 06:00:00 13.95833 C 11.12 g/m*3 13.96 C 0.93333 km/h
1160 12-06-2019 07:00:00 14.875 C 11.62 g/m*3 14.88 C 2.53333 km/h
1161 12-06-2019 08:00:00 15.81667 C 11.95 g/m*3 15.82 C 3.075 km/h
1162 12-06-2019 09:00:00 16.53333 C 12.08 g/m*3 16.53 C 5.23333 km/h
1163 12-06-2019 10:00:00 15.15 C 11.89 g/m*3 15.15 C 7.65 km/h
1164 12-06-2019 11:00:00 13.975 C 11.25 g/m*3 13.98 C 9.65833 km/h
1165 12-06-2019 12:00:00 14.40833 C 11.75 g/m*3 14.41 C 1.875 km/h
1166 12-06-2019 13:00:00 15.325 C 12.16 g/m*3 15.33 C 6.3 km/h
1167 12-06-2019 14:00:00 17.175 C 12.27 g/m*3 17.18 C 10.46667 km/h
1168 12-06-2019 15:00:00 18.2 C 12.11 g/m*3 18.2 C 10.21667 km/h
1169 12-06-2019 16:00:00 20.125 C 11.59 g/m*3 20.13 C 10.76667 km/h
1170 12-06-2019 17:00:00 21.81667 C 11.33 g/m*3 21.82 C 12.1 km/h
1171 12-06-2019 18:00:00 22.64167 C 10.86 g/m*3 22.64 C 9.025 km/h
1172 12-06-2019 19:00:00 21.925 C 10.26 g/m*3 21.93 C 10.5 km/h
1173 12-06-2019 20:00:00 21.23333 C 11.67 g/m*3 21.23 C 1.20833 km/h
1174 12-06-2019 21:00:00 17.83333 C 11.33 g/m*3 17.83 C 0 km/h
1175 12-06-2019 22:00:00 14.38333 C 10.47 g/m*3 14.38 C 0 km/h
Sensor: Nr:Datum:Temp:Abs-Feuchte:Windchill:Wind:
Aussen-T/F 1176 12-06-2019 23:00:00 13.15833 C 10.11 g/m*3 13.16 C 0 km/h
1177 13-06-2019 00:00:00 12.55833 C 9.88 g/m*3 12.56 C 0 km/h
1178 13-06-2019 01:00:00 11.68333 C 9.48 g/m*3 11.68 C 0 km/h
1179 13-06-2019 02:00:00 10.9 C 9.19 g/m*3 10.9 C 0 km/h
1180 13-06-2019 03:00:00 10.29167 C 8.96 g/m*3 10.29 C 0 km/h
1181 13-06-2019 04:00:00 9.775 C 8.71 g/m*3 9.78 C 0 km/h
1182 13-06-2019 05:00:00 9.45833 C 8.62 g/m*3 9.46 C 0 km/h
1183 13-06-2019 06:00:00 9.50833 C 8.68 g/m*3 9.51 C 0 km/h
1184 13-06-2019 07:00:00 10.31667 C 9.2 g/m*3 10.32 C 0.26667 km/h
1185 13-06-2019 08:00:00 11.75 C 10.04 g/m*3 11.75 C 1.6 km/h
1186 13-06-2019 09:00:00 15.15833 C 10.24 g/m*3 15.16 C 7.38333 km/h
1187 13-06-2019 10:00:00 17.91667 C 9.95 g/m*3 17.92 C 10.075 km/h
1188 13-06-2019 11:00:00 19.15 C 10 g/m*3 19.15 C 13.16667 km/h
1189 13-06-2019 12:00:00 19.41667 C 9.52 g/m*3 19.42 C 11.825 km/h
1190 13-06-2019 13:00:00 20.875 C 9.7 g/m*3 20.88 C 12.1 km/h
1191 13-06-2019 14:00:00 21.26667 C 9.52 g/m*3 21.27 C 10.625 km/h
1192 13-06-2019 15:00:00 22.13333 C 9.52 g/m*3 22.13 C 12.63333 km/h
1193 13-06-2019 16:00:00 23.85833 C 9.12 g/m*3 23.86 C 16.23333 km/h
1194 13-06-2019 17:00:00 24.41667 C 9.26 g/m*3 24.42 C 14.23333 km/h
1195 13-06-2019 18:00:00 24.325 C 9.55 g/m*3 24.33 C 10.075 km/h
1196 13-06-2019 19:00:00 20.40833 C 11.56 g/m*3 20.41 C 6.43333 km/h
1197 13-06-2019 20:00:00 15.975 C 12.18 g/m*3 15.98 C 1.86667 km/h
1198 13-06-2019 21:00:00 15.11667 C 11.49 g/m*3 15.12 C 0.13333 km/h
1199 13-06-2019 22:00:00 13.21667 C 10.54 g/m*3 13.22 C 0 km/h
1200 13-06-2019 23:00:00 12.78333 C 10.5 g/m*3 12.78 C 0 km/h
Sensor: Nr:Datum:Temp:Abs-Feuchte:Windchill:Wind:
Aussen-T/F 1201 14-06-2019 00:00:00 12.06667 C 10.08 g/m*3 12.07 C 0 km/h
1202 14-06-2019 01:00:00 11.73333 C 9.97 g/m*3 11.73 C 0 km/h
1203 14-06-2019 02:00:00 12.16667 C 10.34 g/m*3 12.17 C 0.26667 km/h
1204 14-06-2019 03:00:00 12.00833 C 10.24 g/m*3 12.01 C 0.93333 km/h
1205 14-06-2019 04:00:00 11.59167 C 9.97 g/m*3 11.59 C 0.4 km/h
1206 14-06-2019 05:00:00 11.41667 C 9.91 g/m*3 11.42 C 1.2 km/h
1207 14-06-2019 06:00:00 11.33333 C 9.89 g/m*3 11.33 C 1.33333 km/h
1208 14-06-2019 07:00:00 11.43333 C 9.98 g/m*3 11.43 C 0.66667 km/h
1209 14-06-2019 08:00:00 12.15 C 10.43 g/m*3 12.15 C 0 km/h
1210 14-06-2019 09:00:00 14.29167 C 12.01 g/m*3 14.29 C 0 km/h
1211 14-06-2019 10:00:00 17.16667 C 14.32 g/m*3 17.17 C 0 km/h
1212 14-06-2019 11:00:00 18.61667 C 15.29 g/m*3 18.62 C 0.53333 km/h
1213 14-06-2019 12:00:00 21.65833 C 13.57 g/m*3 21.66 C 5.23333 km/h
1214 14-06-2019 13:00:00 24.26667 C 12.72 g/m*3 24.27 C 7.525 km/h
1215 14-06-2019 14:00:00 26 C 12.23 g/m*3 26 C 9.4 km/h
1216 14-06-2019 15:00:00 26.35 C 12.58 g/m*3 26.35 C 5.625 km/h
1217 14-06-2019 16:00:00 25.95 C 13.96 g/m*3 25.95 C 2.66667 km/h
1218 14-06-2019 17:00:00 25.23333 C 15.34 g/m*3 25.23 C 2.00833 km/h
1219 14-06-2019 18:00:00 24.49167 C 15.38 g/m*3 24.49 C 1.2 km/h
1220 14-06-2019 19:00:00 22.55 C 14.87 g/m*3 22.55 C 0.4 km/h
1221 14-06-2019 20:00:00 20.29167 C 13.77 g/m*3 20.29 C 1.06667 km/h
1222 14-06-2019 21:00:00 19.08333 C 13.67 g/m*3 19.08 C 0.13333 km/h
1223 14-06-2019 22:00:00 18.79167 C 13.48 g/m*3 18.79 C 0.53333 km/h
1224 14-06-2019 23:00:00 18.6 C 13.77 g/m*3 18.6 C 0.8 km/h
1225 15-06-2019 00:00:00 17.59167 C 13.73 g/m*3 17.59 C 0.66667 km/h
Sensor: Nr:Datum:Temp:Abs-Feuchte:Windchill:Wind:
Aussen-T/F 1226 15-06-2019 01:00:00 16.49167 C 13.08 g/m*3 16.49 C 0 km/h
1227 15-06-2019 02:00:00 15.68333 C 12.59 g/m*3 15.68 C 0 km/h
1228 15-06-2019 03:00:00 15.16667 C 12.32 g/m*3 15.17 C 0 km/h
1229 15-06-2019 04:00:00 15.14167 C 12.37 g/m*3 15.14 C 1.075 km/h
1230 15-06-2019 05:00:00 15.01667 C 12.33 g/m*3 15.02 C 4.96667 km/h
1231 15-06-2019 06:00:00 15.54167 C 12.78 g/m*3 15.54 C 2.54167 km/h
1232 15-06-2019 07:00:00 16.175 C 13.36 g/m*3 16.18 C 0 km/h
1233 15-06-2019 08:00:00 16.94167 C 13.9 g/m*3 16.94 C 6.575 km/h
1234 15-06-2019 09:00:00 18.45833 C 14.19 g/m*3 18.46 C 12.76667 km/h
1235 15-06-2019 10:00:00 19.93333 C 14.09 g/m*3 19.93 C 13.83333 km/h
1236 15-06-2019 11:00:00 20.8 C 13.11 g/m*3 20.8 C 13.43333 km/h
1237 15-06-2019 12:00:00 21.60833 C 13.2 g/m*3 21.61 C 10.75833 km/h
1238 15-06-2019 13:00:00 21.28333 C 13.76 g/m*3 21.28 C 5.90833 km/h
1239 15-06-2019 14:00:00 21.65833 C 13.99 g/m*3 21.66 C 6.71667 km/h
1240 15-06-2019 15:00:00 22.11667 C 13.61 g/m*3 22.12 C 8.88333 km/h
1241 15-06-2019 16:00:00 23.775 C 13.68 g/m*3 23.78 C 4.40833 km/h
1242 15-06-2019 17:00:00 25.35833 C 12.86 g/m*3 25.36 C 7.78333 km/h
1243 15-06-2019 18:00:00 26.24167 C 12.05 g/m*3 26.24 C 8.19167 km/h
1244 15-06-2019 19:00:00 25.35833 C 12.7 g/m*3 25.36 C 4.29167 km/h
1245 15-06-2019 20:00:00 23.43333 C 13.8 g/m*3 23.43 C 0.13333 km/h
1246 15-06-2019 21:00:00 21.01667 C 13.03 g/m*3 21.02 C 0.13333 km/h
1247 15-06-2019 22:00:00 18.48333 C 12.43 g/m*3 18.48 C 0.53333 km/h
1248 15-06-2019 23:00:00 17.625 C 12.28 g/m*3 17.63 C 0.26667 km/h
1249 16-06-2019 00:00:00 17.3 C 12.26 g/m*3 17.3 C 1.2 km/h
1250 16-06-2019 01:00:00 17.4 C 12.31 g/m*3 17.4 C 1.06667 km/h
Sensor: Nr:Datum:Temp:Abs-Feuchte:Windchill:Wind:
Aussen-T/F 1251 16-06-2019 02:00:00 17.19167 C 12.28 g/m*3 17.19 C 0.13333 km/h
1252 16-06-2019 03:00:00 16.9 C 12.15 g/m*3 16.9 C 2 km/h
1253 16-06-2019 04:00:00 17.08333 C 11.99 g/m*3 17.08 C 1.88333 km/h
1254 16-06-2019 05:00:00 16.3 C 11.82 g/m*3 16.3 C 0.53333 km/h
1255 16-06-2019 06:00:00 15.46667 C 11.8 g/m*3 15.47 C 0.66667 km/h
1256 16-06-2019 07:00:00 15.55 C 12.11 g/m*3 15.55 C 0 km/h
1257 16-06-2019 08:00:00 16.04167 C 12.26 g/m*3 16.04 C 0.8 km/h
1258 16-06-2019 09:00:00 17.04167 C 11.79 g/m*3 17.04 C 3.46667 km/h
1259 16-06-2019 10:00:00 19.3 C 11.57 g/m*3 19.3 C 5.08333 km/h
1260 16-06-2019 11:00:00 20.84167 C 11.01 g/m*3 20.84 C 7.65833 km/h
1261 16-06-2019 12:00:00 21.34167 C 11.06 g/m*3 21.34 C 10.225 km/h
1262 16-06-2019 13:00:00 22.35 C 10.84 g/m*3 22.35 C 9.95833 km/h
1263 16-06-2019 14:00:00 22.56667 C 11.21 g/m*3 22.57 C 10.36667 km/h
1264 16-06-2019 15:00:00 23.03333 C 11.31 g/m*3 23.03 C 11.69167 km/h
1265 16-06-2019 16:00:00 23.225 C 11.47 g/m*3 23.23 C 9.69167 km/h
1266 16-06-2019 17:00:00 22.275 C 11.55 g/m*3 22.28 C 7.24167 km/h
1267 16-06-2019 18:00:00 24.04167 C 11.29 g/m*3 24.04 C 6.725 km/h
1268 16-06-2019 19:00:00 23.55 C 11.59 g/m*3 23.55 C 4.975 km/h
1269 16-06-2019 20:00:00 22.61667 C 11.63 g/m*3 22.62 C 3.89167 km/h
1270 16-06-2019 21:00:00 20.29167 C 11.91 g/m*3 20.29 C 0 km/h
1271 16-06-2019 22:00:00 17.21667 C 11.23 g/m*3 17.22 C 0 km/h
1272 16-06-2019 23:00:00 15.35 C 10.84 g/m*3 15.35 C 0 km/h
1273 17-06-2019 00:00:00 14.14167 C 10.42 g/m*3 14.14 C 0 km/h
1274 17-06-2019 01:00:00 13.31667 C 10.21 g/m*3 13.32 C 0 km/h
1275 17-06-2019 02:00:00 12.625 C 10.02 g/m*3 12.63 C 0 km/h
Sensor: Nr:Datum:Temp:Abs-Feuchte:Windchill:Wind:
Aussen-T/F 1276 17-06-2019 03:00:00 11.95833 C 9.76 g/m*3 11.96 C 0 km/h
1277 17-06-2019 04:00:00 11.43333 C 9.57 g/m*3 11.43 C 0 km/h
1278 17-06-2019 05:00:00 11.075 C 9.45 g/m*3 11.08 C 0 km/h
1279 17-06-2019 06:00:00 11.08333 C 9.56 g/m*3 11.08 C 0 km/h
1280 17-06-2019 07:00:00 11.575 C 9.88 g/m*3 11.58 C 0 km/h
1281 17-06-2019 08:00:00 12.66667 C 10.66 g/m*3 12.67 C 0 km/h
1282 17-06-2019 09:00:00 14.46667 C 11.77 g/m*3 14.47 C 0 km/h
1283 17-06-2019 10:00:00 18.59167 C 13.06 g/m*3 18.59 C 1.875 km/h
1284 17-06-2019 11:00:00 22.31667 C 12.45 g/m*3 22.32 C 6.15 km/h
1285 17-06-2019 12:00:00 23.475 C 12.28 g/m*3 23.48 C 7.65 km/h
1286 17-06-2019 13:00:00 24.45833 C 12.22 g/m*3 24.46 C 9.68333 km/h
1287 17-06-2019 14:00:00 25.15833 C 11.79 g/m*3 25.16 C 7.94167 km/h
1288 17-06-2019 15:00:00 25.26667 C 11.84 g/m*3 25.27 C 5.5 km/h
1289 17-06-2019 16:00:00 26.71667 C 12.58 g/m*3 26.72 C 4.00833 km/h
1290 17-06-2019 17:00:00 28.43333 C 11.74 g/m*3 28.43 C 6.15833 km/h
1291 17-06-2019 18:00:00 27.90833 C 12.54 g/m*3 27.91 C 2.8 km/h
1292 17-06-2019 19:00:00 27.64167 C 12.69 g/m*3 27.64 C 3.225 km/h
1293 17-06-2019 20:00:00 23.58333 C 13 g/m*3 23.58 C 0 km/h
1294 17-06-2019 21:00:00 20.78333 C 12.32 g/m*3 20.78 C 0 km/h
1295 17-06-2019 22:00:00 18.73333 C 12.07 g/m*3 18.73 C 0 km/h
1296 17-06-2019 23:00:00 17.06667 C 11.74 g/m*3 17.07 C 0 km/h
1297 18-06-2019 00:00:00 15.86667 C 11.42 g/m*3 15.87 C 0 km/h
1298 18-06-2019 01:00:00 15.09167 C 11.25 g/m*3 15.09 C 0 km/h
1299 18-06-2019 02:00:00 14.43333 C 11.04 g/m*3 14.43 C 0 km/h
1300 18-06-2019 03:00:00 13.8 C 10.88 g/m*3 13.8 C 0 km/h
Sensor: Nr:Datum:Temp:Abs-Feuchte:Windchill:Wind:
Aussen-T/F 1301 18-06-2019 04:00:00 13.8 C 10.99 g/m*3 13.8 C 0 km/h
1302 18-06-2019 05:00:00 13.625 C 10.89 g/m*3 13.63 C 0 km/h
1303 18-06-2019 06:00:00 13.65 C 11.07 g/m*3 13.65 C 0.26667 km/h
1304 18-06-2019 07:00:00 14.75 C 11.64 g/m*3 14.75 C 0.66667 km/h
1305 18-06-2019 08:00:00 16.01667 C 12.27 g/m*3 16.02 C 0 km/h
1306 18-06-2019 09:00:00 17.65 C 13.28 g/m*3 17.65 C 0.13333 km/h
1307 18-06-2019 10:00:00 20.80833 C 14.92 g/m*3 20.81 C 0 km/h
1308 18-06-2019 11:00:00 24.26667 C 14.98 g/m*3 24.27 C 3.35 km/h
1309 18-06-2019 12:00:00 26.78333 C 13.71 g/m*3 26.78 C 4.825 km/h
1310 18-06-2019 13:00:00 28.125 C 12.87 g/m*3 28.13 C 7.51667 km/h
1311 18-06-2019 14:00:00 28.825 C 12.9 g/m*3 28.83 C 8.45833 km/h
1312 18-06-2019 15:00:00 29.825 C 13.07 g/m*3 29.83 C 7.925 km/h
1313 18-06-2019 16:00:00 29.575 C 13.66 g/m*3 29.58 C 3.34167 km/h
1314 18-06-2019 17:00:00 29.48333 C 16.64 g/m*3 29.48 C 0.8 km/h
1315 18-06-2019 18:00:00 29.725 C 16.48 g/m*3 29.73 C 0.4 km/h
1316 18-06-2019 19:00:00 27.95 C 16.43 g/m*3 27.95 C 0 km/h
1317 18-06-2019 20:00:00 26.03333 C 15.55 g/m*3 26.03 C 0 km/h
1318 18-06-2019 21:00:00 23.73333 C 14.59 g/m*3 23.73 C 0 km/h
1319 18-06-2019 22:00:00 21.45 C 14.02 g/m*3 21.45 C 0 km/h
1320 18-06-2019 23:00:00 19.83333 C 13.62 g/m*3 19.83 C 0 km/h
1321 19-06-2019 00:00:00 18.48333 C 13.21 g/m*3 18.48 C 0 km/h
1322 19-06-2019 01:00:00 17.61667 C 13 g/m*3 17.62 C 0 km/h
1323 19-06-2019 02:00:00 17.39167 C 13.08 g/m*3 17.39 C 0 km/h
1324 19-06-2019 03:00:00 16.53333 C 12.64 g/m*3 16.53 C 0 km/h
1325 19-06-2019 04:00:00 15.775 C 12.23 g/m*3 15.78 C 0 km/h
Sensor: Nr:Datum:Temp:Abs-Feuchte:Windchill:Wind:
Aussen-T/F 1326 19-06-2019 05:00:00 15.19167 C 12.04 g/m*3 15.19 C 0 km/h
1327 19-06-2019 06:00:00 14.99167 C 12 g/m*3 14.99 C 0 km/h
1328 19-06-2019 07:00:00 15.425 C 12.48 g/m*3 15.43 C 0 km/h
1329 19-06-2019 08:00:00 16.54167 C 13.37 g/m*3 16.54 C 0 km/h
1330 19-06-2019 09:00:00 18.46667 C 14.82 g/m*3 18.47 C 0 km/h
1331 19-06-2019 10:00:00 23.44167 C 15.47 g/m*3 23.44 C 6.04167 km/h
1332 19-06-2019 11:00:00 26.775 C 13.75 g/m*3 26.78 C 12.08333 km/h
1333 19-06-2019 12:00:00 26.475 C 14.89 g/m*3 26.48 C 4.3 km/h
1334 19-06-2019 13:00:00 26 C 15.34 g/m*3 26 C 4.69167 km/h
1335 19-06-2019 14:00:00 27.00833 C 13.78 g/m*3 27.01 C 9.39167 km/h
1336 19-06-2019 15:00:00 27.25 C 14.83 g/m*3 27.25 C 11.68333 km/h
1337 19-06-2019 16:00:00 29.925 C 14.7 g/m*3 29.93 C 8.2 km/h
1338 19-06-2019 17:00:00 31.25833 C 13.39 g/m*3 31.26 C 7.39167 km/h
1339 19-06-2019 18:00:00 28.4 C 15.73 g/m*3 28.4 C 0.26667 km/h
1340 19-06-2019 19:00:00 28.94167 C 15.2 g/m*3 28.94 C 3.34167 km/h
1341 19-06-2019 20:00:00 25.31667 C 15.31 g/m*3 25.32 C 0.53333 km/h
1342 19-06-2019 21:00:00 23.275 C 14.79 g/m*3 23.28 C 0 km/h
1343 19-06-2019 22:00:00 21.68333 C 14.1 g/m*3 21.68 C 0.8 km/h
1344 19-06-2019 23:00:00 19.925 C 13.74 g/m*3 19.93 C 0 km/h
1345 20-06-2019 00:00:00 18.75 C 13.38 g/m*3 18.75 C 0 km/h
1346 20-06-2019 01:00:00 17.98333 C 13.23 g/m*3 17.98 C 0 km/h
1347 20-06-2019 02:00:00 17.45833 C 13.2 g/m*3 17.46 C 0.13333 km/h
1348 20-06-2019 03:00:00 17.7 C 13.5 g/m*3 17.7 C 1.73333 km/h
1349 20-06-2019 04:00:00 17.31667 C 13.21 g/m*3 17.32 C 1.33333 km/h
1350 20-06-2019 05:00:00 16.68333 C 12.97 g/m*3 16.68 C 0.26667 km/h
Sensor: Nr:Datum:Temp:Abs-Feuchte:Windchill:Wind:
Aussen-T/F 1351 20-06-2019 06:00:00 16.85833 C 13.25 g/m*3 16.86 C 0.8 km/h
1352 20-06-2019 07:00:00 17.73333 C 13.49 g/m*3 17.73 C 3.60833 km/h
1353 20-06-2019 08:00:00 19.45 C 13.62 g/m*3 19.45 C 8.75 km/h
1354 20-06-2019 09:00:00 20.2 C 13.27 g/m*3 20.2 C 11.7 km/h
1355 20-06-2019 10:00:00 21.30833 C 13.19 g/m*3 21.31 C 13.3 km/h
1356 20-06-2019 11:00:00 21.89167 C 13.49 g/m*3 21.89 C 12.23333 km/h
1357 20-06-2019 12:00:00 22.65 C 13.4 g/m*3 22.65 C 13.3 km/h
1358 20-06-2019 13:00:00 23.24167 C 13.49 g/m*3 23.24 C 9.41667 km/h
1359 20-06-2019 14:00:00 24.61667 C 13.24 g/m*3 24.62 C 11.025 km/h
1360 20-06-2019 15:00:00 21.45833 C 14.12 g/m*3 21.46 C 11.41667 km/h
1361 20-06-2019 16:00:00 22.75 C 14.57 g/m*3 22.75 C 8.875 km/h
1362 20-06-2019 17:00:00 21.25833 C 14.23 g/m*3 21.26 C 7.51667 km/h
1363 20-06-2019 18:00:00 20 C 14.01 g/m*3 20 C 8.86667 km/h
1364 20-06-2019 19:00:00 18.75833 C 13.15 g/m*3 18.76 C 3.75 km/h
1365 20-06-2019 20:00:00 18.66667 C 13.16 g/m*3 18.67 C 0.53333 km/h
1366 20-06-2019 21:00:00 18.21667 C 13.08 g/m*3 18.22 C 0 km/h
1367 20-06-2019 22:00:00 16.9 C 12.51 g/m*3 16.9 C 0 km/h
1368 20-06-2019 23:00:00 15.725 C 12.15 g/m*3 15.73 C 0 km/h
1369 21-06-2019 00:00:00 15.5 C 12.36 g/m*3 15.5 C 0.4 km/h
1370 21-06-2019 01:00:00 14.89167 C 11.85 g/m*3 14.89 C 0 km/h
1371 21-06-2019 02:00:00 14.78333 C 11.94 g/m*3 14.78 C 0 km/h
1372 21-06-2019 03:00:00 15.06667 C 12.13 g/m*3 15.07 C 0 km/h
1373 21-06-2019 04:00:00 14.91667 C 12.01 g/m*3 14.92 C 0 km/h
1374 21-06-2019 05:00:00 14.325 C 11.56 g/m*3 14.33 C 0 km/h
1375 21-06-2019 06:00:00 14.175 C 11.39 g/m*3 14.18 C 0 km/h
Sensor: Nr:Datum:Temp:Abs-Feuchte:Windchill:Wind:
Aussen-T/F 1376 21-06-2019 07:00:00 14.63333 C 11.62 g/m*3 14.63 C 0 km/h
1377 21-06-2019 08:00:00 15.88333 C 10.74 g/m*3 15.88 C 5.225 km/h
1378 21-06-2019 09:00:00 16.7 C 10.41 g/m*3 16.7 C 4.94167 km/h
1379 21-06-2019 10:00:00 18.28333 C 10.39 g/m*3 18.28 C 6.44167 km/h
1380 21-06-2019 11:00:00 19.45 C 10.21 g/m*3 19.45 C 4.26667 km/h
1381 21-06-2019 12:00:00 20.10833 C 10.13 g/m*3 20.11 C 7.65833 km/h
1382 21-06-2019 13:00:00 21.3 C 9.82 g/m*3 21.3 C 8.875 km/h
1383 21-06-2019 14:00:00 22.03333 C 9.22 g/m*3 22.03 C 8.725 km/h
1384 21-06-2019 15:00:00 22.6 C 9.29 g/m*3 22.6 C 6.975 km/h
1385 21-06-2019 16:00:00 23.64167 C 9.22 g/m*3 23.64 C 6.85 km/h
1386 21-06-2019 17:00:00 25.125 C 9.16 g/m*3 25.13 C 9.15833 km/h
1387 21-06-2019 18:00:00 24.95833 C 9.07 g/m*3 24.96 C 12.48333 km/h
1388 21-06-2019 19:00:00 23.63333 C 9.13 g/m*3 23.63 C 11.43333 km/h
1389 21-06-2019 20:00:00 22.15 C 9.23 g/m*3 22.15 C 10.21667 km/h
1390 21-06-2019 21:00:00 19.375 C 9.52 g/m*3 19.38 C 2.68333 km/h
1391 21-06-2019 22:00:00 16.6 C 9.38 g/m*3 16.6 C 0 km/h
1392 21-06-2019 23:00:00 15.23333 C 9.43 g/m*3 15.23 C 0 km/h
1393 22-06-2019 00:00:00 13.71667 C 9.36 g/m*3 13.72 C 0 km/h
1394 22-06-2019 01:00:00 13.01667 C 9.34 g/m*3 13.02 C 0 km/h
1395 22-06-2019 02:00:00 12.10833 C 9.19 g/m*3 12.11 C 0 km/h
1396 22-06-2019 03:00:00 11.5 C 9.14 g/m*3 11.5 C 0 km/h
1397 22-06-2019 04:00:00 11.05833 C 9.08 g/m*3 11.06 C 0 km/h
1398 22-06-2019 05:00:00 10.675 C 9 g/m*3 10.68 C 0 km/h
1399 22-06-2019 06:00:00 10.70833 C 9.14 g/m*3 10.71 C 0 km/h
1400 22-06-2019 07:00:00 11.80833 C 9.93 g/m*3 11.81 C 0 km/h
Sensor: Nr:Datum:Temp:Abs-Feuchte:Windchill:Wind:
Aussen-T/F 1401 22-06-2019 08:00:00 13.84167 C 10.82 g/m*3 13.84 C 0.4 km/h
1402 22-06-2019 09:00:00 16.275 C 11.06 g/m*3 16.27 C 1.06667 km/h
1403 22-06-2019 10:00:00 19.475 C 11.26 g/m*3 19.48 C 6.29167 km/h
1404 22-06-2019 11:00:00 21.21667 C 11.53 g/m*3 21.22 C 10.09167 km/h
1405 22-06-2019 12:00:00 22.66667 C 12.02 g/m*3 22.67 C 9.55 km/h
1406 22-06-2019 13:00:00 24.175 C 12.23 g/m*3 24.18 C 10.89167 km/h
1407 22-06-2019 14:00:00 25.025 C 12.43 g/m*3 25.03 C 10.75 km/h
1408 22-06-2019 15:00:00 25.59167 C 11.88 g/m*3 25.59 C 9.14167 km/h
1409 22-06-2019 16:00:00 26.50833 C 11.81 g/m*3 26.51 C 6.70833 km/h
1410 22-06-2019 17:00:00 26.26667 C 12.03 g/m*3 26.27 C 5.61667 km/h
1411 22-06-2019 18:00:00 27.45 C 11.48 g/m*3 27.45 C 10.1 km/h
1412 22-06-2019 19:00:00 27.53333 C 11.6 g/m*3 27.53 C 10.09167 km/h
1413 22-06-2019 20:00:00 26.95 C 12.36 g/m*3 26.95 C 9.95833 km/h
1414 22-06-2019 21:00:00 23.525 C 13.2 g/m*3 23.53 C 2.54167 km/h
1415 22-06-2019 22:00:00 20.3 C 12.85 g/m*3 20.3 C 0.13333 km/h
1416 22-06-2019 23:00:00 18.63333 C 12.65 g/m*3 18.63 C 0 km/h
1417 23-06-2019 00:00:00 17.4 C 12.37 g/m*3 17.4 C 0 km/h
1418 23-06-2019 01:00:00 16.33333 C 12.08 g/m*3 16.33 C 0 km/h
1419 23-06-2019 02:00:00 15.64167 C 11.9 g/m*3 15.64 C 0 km/h
1420 23-06-2019 03:00:00 14.98333 C 11.66 g/m*3 14.98 C 0 km/h
1421 23-06-2019 04:00:00 14.53333 C 11.5 g/m*3 14.53 C 0 km/h
1422 23-06-2019 05:00:00 14.075 C 11.31 g/m*3 14.08 C 0 km/h
1423 23-06-2019 06:00:00 14.20833 C 11.5 g/m*3 14.21 C 0 km/h
1424 23-06-2019 07:00:00 14.74167 C 11.98 g/m*3 14.74 C 0 km/h
1425 23-06-2019 08:00:00 16.09167 C 12.96 g/m*3 16.09 C 0.26667 km/h
Sensor: Nr:Datum:Temp:Abs-Feuchte:Windchill:Wind:
Aussen-T/F 1426 23-06-2019 09:00:00 18.65833 C 13.81 g/m*3 18.66 C 3.75833 km/h
1427 23-06-2019 10:00:00 22.525 C 13.8 g/m*3 22.53 C 10.75833 km/h
1428 23-06-2019 11:00:00 24.14167 C 14.11 g/m*3 24.14 C 11.29167 km/h
1429 23-06-2019 12:00:00 25.21667 C 14.33 g/m*3 25.22 C 10.75833 km/h
1430 23-06-2019 13:00:00 26.58333 C 14.08 g/m*3 26.58 C 10.48333 km/h
1431 23-06-2019 14:00:00 27.84167 C 13.77 g/m*3 27.84 C 14.09167 km/h
1432 23-06-2019 15:00:00 28.575 C 13.54 g/m*3 28.58 C 8.35833 km/h
1433 23-06-2019 16:00:00 30.24167 C 13.26 g/m*3 30.24 C 10.20833 km/h
1434 23-06-2019 17:00:00 30.6 C 13.52 g/m*3 30.6 C 9.94167 km/h
1435 23-06-2019 18:00:00 30.3 C 13.61 g/m*3 30.3 C 7.375 km/h
1436 23-06-2019 19:00:00 29.025 C 14.48 g/m*3 29.03 C 4.00833 km/h
1437 23-06-2019 20:00:00 25.85833 C 14.98 g/m*3 25.86 C 0 km/h
1438 23-06-2019 21:00:00 23.39167 C 14.22 g/m*3 23.39 C 0 km/h
1439 23-06-2019 22:00:00 21.70833 C 13.8 g/m*3 21.71 C 0 km/h
1440 23-06-2019 23:00:00 20.25 C 13.65 g/m*3 20.25 C 0 km/h
1441 24-06-2019 00:00:00 19.11667 C 13.48 g/m*3 19.12 C 0 km/h
1442 24-06-2019 01:00:00 18.43333 C 13.29 g/m*3 18.43 C 0 km/h
1443 24-06-2019 02:00:00 17.54167 C 13.02 g/m*3 17.54 C 0 km/h
1444 24-06-2019 03:00:00 16.95833 C 12.86 g/m*3 16.96 C 0 km/h
1445 24-06-2019 04:00:00 16.55 C 12.77 g/m*3 16.55 C 0 km/h
1446 24-06-2019 05:00:00 16.40833 C 12.86 g/m*3 16.41 C 0 km/h
1447 24-06-2019 06:00:00 16.70833 C 13.21 g/m*3 16.71 C 0 km/h
1448 24-06-2019 07:00:00 17.45 C 13.81 g/m*3 17.45 C 0 km/h
1449 24-06-2019 08:00:00 18.55 C 14.56 g/m*3 18.55 C 0 km/h
1450 24-06-2019 09:00:00 21.25833 C 15.74 g/m*3 21.26 C 3.74167 km/h
Sensor: Nr:Datum:Temp:Abs-Feuchte:Windchill:Wind:
Aussen-T/F 1451 24-06-2019 10:00:00 25.475 C 15.86 g/m*3 25.48 C 8.33333 km/h
1452 24-06-2019 11:00:00 26.95833 C 15.32 g/m*3 26.96 C 8.325 km/h
1453 24-06-2019 12:00:00 27.88333 C 15 g/m*3 27.88 C 12.63333 km/h
1454 24-06-2019 13:00:00 29.05833 C 14.98 g/m*3 29.06 C 15.03333 km/h
1455 24-06-2019 14:00:00 30.1 C 15.19 g/m*3 30.1 C 10.9 km/h
1456 24-06-2019 15:00:00 31.38333 C 15.3 g/m*3 31.38 C 12.1 km/h
1457 24-06-2019 16:00:00 32.73333 C 15.44 g/m*3 32.73 C 9.68333 km/h
1458 24-06-2019 17:00:00 32.96667 C 15.84 g/m*3 32.97 C 9.55 km/h
1459 24-06-2019 18:00:00 33.1 C 15.75 g/m*3 33.1 C 9.40833 km/h
1460 24-06-2019 19:00:00 32.375 C 15.67 g/m*3 32.38 C 8.06667 km/h
1461 24-06-2019 20:00:00 30.64167 C 15.85 g/m*3 30.64 C 6.425 km/h
1462 24-06-2019 21:00:00 26.81667 C 16.24 g/m*3 26.82 C 0.13333 km/h
1463 24-06-2019 22:00:00 23.99167 C 15.44 g/m*3 23.99 C 0 km/h
1464 24-06-2019 23:00:00 22.68333 C 14.94 g/m*3 22.68 C 0 km/h
1465 25-06-2019 00:00:00 21.4 C 14.53 g/m*3 21.4 C 0 km/h
1466 25-06-2019 01:00:00 20.425 C 14.32 g/m*3 20.43 C 0 km/h
1467 25-06-2019 02:00:00 19.35833 C 13.91 g/m*3 19.36 C 0 km/h
1468 25-06-2019 03:00:00 18.46667 C 13.51 g/m*3 18.47 C 0 km/h
1469 25-06-2019 04:00:00 17.825 C 13.39 g/m*3 17.83 C 0 km/h
1470 25-06-2019 05:00:00 17.51667 C 13.34 g/m*3 17.52 C 0 km/h
1471 25-06-2019 06:00:00 17.76667 C 13.76 g/m*3 17.77 C 0 km/h
1472 25-06-2019 07:00:00 18.44167 C 14.3 g/m*3 18.44 C 0 km/h
1473 25-06-2019 08:00:00 20.1 C 15.38 g/m*3 20.1 C 0 km/h
1474 25-06-2019 09:00:00 22.56667 C 16.39 g/m*3 22.57 C 2.40833 km/h
1475 25-06-2019 10:00:00 26.46667 C 16.43 g/m*3 26.47 C 6.15833 km/h
Sensor: Nr:Datum:Temp:Abs-Feuchte:Windchill:Wind:
Aussen-T/F 1476 25-06-2019 11:00:00 28.05833 C 16.16 g/m*3 28.06 C 5.9 km/h
1477 25-06-2019 12:00:00 29.51667 C 16.49 g/m*3 29.52 C 6.03333 km/h
1478 25-06-2019 13:00:00 31.1 C 16.73 g/m*3 31.1 C 7.375 km/h
1479 25-06-2019 14:00:00 32.75833 C 16.49 g/m*3 32.76 C 8.725 km/h
1480 25-06-2019 15:00:00 34.91667 C 16.43 g/m*3 34.92 C 10.23333 km/h
1481 25-06-2019 16:00:00 36.45833 C 16.24 g/m*3 36.46 C 8.06667 km/h
1482 25-06-2019 17:00:00 37.69167 C 14.95 g/m*3 37.69 C 8.06667 km/h
1483 25-06-2019 18:00:00 36.71667 C 15.88 g/m*3 36.72 C 7.25833 km/h
1484 25-06-2019 19:00:00 34.225 C 18.41 g/m*3 34.23 C 1.33333 km/h
1485 25-06-2019 20:00:00 31.78333 C 17.41 g/m*3 31.78 C 0.26667 km/h
1486 25-06-2019 21:00:00 28.025 C 16.04 g/m*3 28.03 C 0.26667 km/h
1487 25-06-2019 22:00:00 25.60833 C 15.24 g/m*3 25.61 C 0.4 km/h
1488 25-06-2019 23:00:00 24.15833 C 14.47 g/m*3 24.16 C 0 km/h
1489 26-06-2019 00:00:00 23.41667 C 14.63 g/m*3 23.42 C 0.13333 km/h
1490 26-06-2019 01:00:00 22.38333 C 14.72 g/m*3 22.38 C 1.06667 km/h
1491 26-06-2019 02:00:00 21.20833 C 14.65 g/m*3 21.21 C 0.4 km/h
1492 26-06-2019 03:00:00 20.575 C 14.64 g/m*3 20.58 C 0.4 km/h
1493 26-06-2019 04:00:00 19.825 C 14.44 g/m*3 19.83 C 0 km/h
1494 26-06-2019 05:00:00 19.475 C 14.5 g/m*3 19.48 C 0.66667 km/h
1495 26-06-2019 06:00:00 19.575 C 14.81 g/m*3 19.58 C 0.26667 km/h
1496 26-06-2019 07:00:00 20.03333 C 15.24 g/m*3 20.03 C 0.53333 km/h
1497 26-06-2019 08:00:00 22.7 C 17.68 g/m*3 22.7 C 0 km/h
1498 26-06-2019 09:00:00 24.64167 C 18.72 g/m*3 24.64 C 4.15 km/h
1499 26-06-2019 10:00:00 27.25 C 19.33 g/m*3 27.25 C 4.275 km/h
1500 26-06-2019 11:00:00 28.95 C 19.53 g/m*3 28.95 C 7.24167 km/h
Sensor: Nr:Datum:Temp:Abs-Feuchte:Windchill:Wind:
Aussen-T/F 1501 26-06-2019 12:00:00 30.24167 C 19.3 g/m*3 30.24 C 6.575 km/h
1502 26-06-2019 13:00:00 31.63333 C 17.57 g/m*3 31.63 C 8.08333 km/h
1503 26-06-2019 14:00:00 32.64167 C 17.64 g/m*3 32.64 C 9.15 km/h
1504 26-06-2019 15:00:00 33.9 C 18.51 g/m*3 33.9 C 9.825 km/h
1505 26-06-2019 16:00:00 34.76667 C 17.9 g/m*3 34.77 C 11.3 km/h
1506 26-06-2019 17:00:00 34.76667 C 17.18 g/m*3 34.77 C 11.16667 km/h
1507 26-06-2019 18:00:00 34.36667 C 16 g/m*3 34.37 C 11.96667 km/h
1508 26-06-2019 19:00:00 33.36667 C 15.82 g/m*3 33.37 C 10.76667 km/h
1509 26-06-2019 20:00:00 30.94167 C 16.03 g/m*3 30.94 C 8.34167 km/h
1510 26-06-2019 21:00:00 28.8 C 16.05 g/m*3 28.8 C 2.93333 km/h
1511 26-06-2019 22:00:00 26.4 C 16.24 g/m*3 26.4 C 2.68333 km/h
1512 26-06-2019 23:00:00 26.03333 C 16.91 g/m*3 26.03 C 5.63333 km/h
1513 27-06-2019 00:00:00 25.24167 C 17.03 g/m*3 25.24 C 5.89167 km/h
1514 27-06-2019 01:00:00 24.11667 C 16.75 g/m*3 24.12 C 4.675 km/h
1515 27-06-2019 02:00:00 23.25833 C 16.37 g/m*3 23.26 C 2.66667 km/h
1516 27-06-2019 03:00:00 22.41667 C 15.51 g/m*3 22.42 C 4.40833 km/h
1517 27-06-2019 04:00:00 21.66667 C 14.66 g/m*3 21.67 C 6.025 km/h
1518 27-06-2019 05:00:00 20.54167 C 14.17 g/m*3 20.54 C 3.20833 km/h
1519 27-06-2019 06:00:00 20.01667 C 13.97 g/m*3 20.02 C 1.86667 km/h
1520 27-06-2019 07:00:00 20.03333 C 13.81 g/m*3 20.03 C 6.41667 km/h
1521 27-06-2019 08:00:00 20.6 C 13.87 g/m*3 20.6 C 6.01667 km/h
1522 27-06-2019 09:00:00 21.45833 C 13.92 g/m*3 21.46 C 8.35 km/h
1523 27-06-2019 10:00:00 22.83333 C 13.84 g/m*3 22.83 C 10.09167 km/h
1524 27-06-2019 11:00:00 24.03333 C 13.53 g/m*3 24.03 C 9.14167 km/h
1525 27-06-2019 12:00:00 24.84167 C 13.44 g/m*3 24.84 C 12.1 km/h
Sensor: Nr:Datum:Temp:Abs-Feuchte:Windchill:Wind:
Aussen-T/F 1526 27-06-2019 13:00:00 25.875 C 12.87 g/m*3 25.88 C 10.63333 km/h
1527 27-06-2019 14:00:00 26.98333 C 12.43 g/m*3 26.98 C 11.43333 km/h
1528 27-06-2019 15:00:00 28.6 C 11.55 g/m*3 28.6 C 12.9 km/h
1529 27-06-2019 16:00:00 30.18333 C 9.93 g/m*3 30.18 C 13.56667 km/h
1530 27-06-2019 17:00:00 30.54167 C 8.74 g/m*3 30.54 C 13.83333 km/h
1531 27-06-2019 18:00:00 30.225 C 8.08 g/m*3 30.23 C 12.1 km/h
1532 27-06-2019 19:00:00 29.59167 C 7.64 g/m*3 29.59 C 11.3 km/h
1533 27-06-2019 20:00:00 27.43333 C 8.57 g/m*3 27.43 C 8.475 km/h
1534 27-06-2019 21:00:00 24.48333 C 9.32 g/m*3 24.48 C 3.46667 km/h
1535 27-06-2019 22:00:00 21.28333 C 10.24 g/m*3 21.28 C 1.46667 km/h
1536 27-06-2019 23:00:00 19.9 C 10.45 g/m*3 19.9 C 1.33333 km/h
1537 28-06-2019 00:00:00 18.53333 C 10.48 g/m*3 18.53 C 0 km/h
1538 28-06-2019 01:00:00 17.18333 C 10.48 g/m*3 17.18 C 0 km/h
1539 28-06-2019 02:00:00 16.26667 C 10.59 g/m*3 16.27 C 0 km/h
1540 28-06-2019 03:00:00 15.48333 C 10.6 g/m*3 15.48 C 0 km/h
1541 28-06-2019 04:00:00 14.35 C 10.38 g/m*3 14.35 C 0 km/h
1542 28-06-2019 05:00:00 13.51667 C 10.24 g/m*3 13.52 C 0 km/h
1543 28-06-2019 06:00:00 13.35833 C 10.41 g/m*3 13.36 C 0 km/h
1544 28-06-2019 07:00:00 13.86667 C 10.87 g/m*3 13.87 C 0 km/h
1545 28-06-2019 08:00:00 15.39167 C 11.23 g/m*3 15.39 C 2.4 km/h
1546 28-06-2019 09:00:00 17.7 C 11.3 g/m*3 17.7 C 3.73333 km/h
1547 28-06-2019 10:00:00 19.81667 C 11.53 g/m*3 19.82 C 5.20833 km/h
1548 28-06-2019 11:00:00 21.475 C 11.36 g/m*3 21.48 C 6.3 km/h
1549 28-06-2019 12:00:00 22.84167 C 11.34 g/m*3 22.84 C 8.05833 km/h
1550 28-06-2019 13:00:00 24.66667 C 10.67 g/m*3 24.67 C 9.81667 km/h
Sensor: Nr:Datum:Temp:Abs-Feuchte:Windchill:Wind:
Aussen-T/F 1551 28-06-2019 14:00:00 26.31667 C 10.49 g/m*3 26.32 C 8.89167 km/h
1552 28-06-2019 15:00:00 28.225 C 10.62 g/m*3 28.23 C 8.05 km/h
1553 28-06-2019 16:00:00 30.25 C 10.32 g/m*3 30.25 C 8.86667 km/h
1554 28-06-2019 17:00:00 31.13333 C 9.59 g/m*3 31.13 C 8.58333 km/h
1555 28-06-2019 18:00:00 31.66667 C 9.29 g/m*3 31.67 C 7.65 km/h
1556 28-06-2019 19:00:00 31.2 C 9.73 g/m*3 31.2 C 6.56667 km/h
1557 28-06-2019 20:00:00 29.49167 C 10.87 g/m*3 29.49 C 4.3 km/h
1558 28-06-2019 21:00:00 25.61667 C 11.48 g/m*3 25.62 C 0.8 km/h
1559 28-06-2019 22:00:00 21.58333 C 10.36 g/m*3 21.58 C 0.4 km/h
1560 28-06-2019 23:00:00 19.275 C 10.54 g/m*3 19.27 C 0 km/h
1561 29-06-2019 00:00:00 18.40833 C 10.37 g/m*3 18.41 C 0.4 km/h
1562 29-06-2019 01:00:00 17.83333 C 10.35 g/m*3 17.83 C 0.53333 km/h
1563 29-06-2019 02:00:00 17.09167 C 10.32 g/m*3 17.09 C 0.13333 km/h
1564 29-06-2019 03:00:00 16.39167 C 10.37 g/m*3 16.39 C 0 km/h
1565 29-06-2019 04:00:00 15.175 C 10.18 g/m*3 15.18 C 0 km/h
1566 29-06-2019 05:00:00 14.09167 C 10.04 g/m*3 14.09 C 0 km/h
1567 29-06-2019 06:00:00 13.70833 C 10.13 g/m*3 13.71 C 0 km/h
1568 29-06-2019 07:00:00 14.075 C 10.62 g/m*3 14.08 C 0 km/h
1569 29-06-2019 08:00:00 15.26667 C 11.33 g/m*3 15.27 C 0 km/h
1570 29-06-2019 09:00:00 19.2 C 11.79 g/m*3 19.2 C 6.16667 km/h
1571 29-06-2019 10:00:00 23.49167 C 11.64 g/m*3 23.49 C 9 km/h
1572 29-06-2019 11:00:00 25.775 C 11.54 g/m*3 25.78 C 7.925 km/h
1573 29-06-2019 12:00:00 27.41667 C 11.74 g/m*3 27.42 C 10.89167 km/h
1574 29-06-2019 13:00:00 29.11667 C 10.24 g/m*3 29.12 C 11.69167 km/h
1575 29-06-2019 14:00:00 30.58333 C 9.54 g/m*3 30.58 C 11.13333 km/h
Sensor: Nr:Datum:Temp:Abs-Feuchte:Windchill:Wind:
Aussen-T/F 1576 29-06-2019 15:00:00 32.63333 C 9.25 g/m*3 32.63 C 10.75 km/h
1577 29-06-2019 16:00:00 34.24167 C 8.93 g/m*3 34.24 C 12.09167 km/h
1578 29-06-2019 17:00:00 35.325 C 8.95 g/m*3 35.33 C 7.78333 km/h
1579 29-06-2019 18:00:00 35.64167 C 9.23 g/m*3 35.64 C 7.38333 km/h
1580 29-06-2019 19:00:00 35.26667 C 9.39 g/m*3 35.27 C 4.66667 km/h
1581 29-06-2019 20:00:00 32.425 C 11.77 g/m*3 32.42 C 1.06667 km/h
1582 29-06-2019 21:00:00 27.60833 C 10.67 g/m*3 27.61 C 1.6 km/h
1583 29-06-2019 22:00:00 24.225 C 10.01 g/m*3 24.23 C 1.2 km/h
1584 29-06-2019 23:00:00 21.23333 C 10.66 g/m*3 21.23 C 0 km/h
1585 30-06-2019 00:00:00 18.93333 C 10.69 g/m*3 18.93 C 0 km/h
1586 30-06-2019 01:00:00 17.525 C 10.78 g/m*3 17.52 C 0 km/h
1587 30-06-2019 02:00:00 16.75 C 10.77 g/m*3 16.75 C 0 km/h
1588 30-06-2019 03:00:00 16.10833 C 10.8 g/m*3 16.11 C 0 km/h
1589 30-06-2019 04:00:00 15.58333 C 10.81 g/m*3 15.58 C 0.26667 km/h
1590 30-06-2019 05:00:00 15.05 C 10.75 g/m*3 15.05 C 0 km/h
1591 30-06-2019 06:00:00 14.85 C 10.99 g/m*3 14.85 C 0 km/h
1592 30-06-2019 07:00:00 15.44167 C 11.57 g/m*3 15.44 C 0.13333 km/h
1593 30-06-2019 08:00:00 17.025 C 12.52 g/m*3 17.02 C 0 km/h
1594 30-06-2019 09:00:00 19.65833 C 13.82 g/m*3 19.66 C 0 km/h
1595 30-06-2019 10:00:00 25.225 C 15.09 g/m*3 25.23 C 5.64167 km/h
1596 30-06-2019 11:00:00 30.59167 C 14.17 g/m*3 30.59 C 12.76667 km/h
1597 30-06-2019 12:00:00 32.48333 C 13.85 g/m*3 32.48 C 8.61667 km/h
1598 30-06-2019 13:00:00 34.6 C 13.55 g/m*3 34.6 C 11.7 km/h
1599 30-06-2019 14:00:00 36.00833 C 14.3 g/m*3 36.01 C 15.03333 km/h
1600 30-06-2019 15:00:00 35.5 C 16.53 g/m*3 35.5 C 14.9 km/h
Sensor: Nr:Datum:Temp:Abs-Feuchte:Windchill:Wind:
Aussen-T/F 1601 30-06-2019 16:00:00 35.49167 C 18.25 g/m*3 35.49 C 10.75 km/h
1602 30-06-2019 17:00:00 35.875 C 18.86 g/m*3 35.88 C 8.34167 km/h
1603 30-06-2019 18:00:00 34.975 C 18.29 g/m*3 34.98 C 10.23333 km/h
1604 30-06-2019 19:00:00 32.65833 C 17.71 g/m*3 32.66 C 11.01667 km/h
1605 30-06-2019 20:00:00 29.35 C 17.22 g/m*3 29.35 C 13.43333 km/h
1606 30-06-2019 21:00:00 27.18333 C 16.25 g/m*3 27.18 C 8.6 km/h
1607 30-06-2019 22:00:00 26.25833 C 15.72 g/m*3 26.26 C 7.10833 km/h
1608 30-06-2019 23:00:00 24.55833 C 15.04 g/m*3 24.56 C 2.66667 km/h
1609 01-07-2019 00:00:00 22.68333 C 14.75 g/m*3 22.68 C 1.46667 km/h
1610 01-07-2019 01:00:00 22.36667 C 14.49 g/m*3 22.37 C 4.025 km/h
1611 01-07-2019 02:00:00 21.63333 C 14.05 g/m*3 21.63 C 1.06667 km/h
1612 01-07-2019 03:00:00 20.98333 C 13.19 g/m*3 20.98 C 2.68333 km/h
1613 01-07-2019 04:00:00 20.34167 C 12.65 g/m*3 20.34 C 0 km/h
1614 01-07-2019 05:00:00 19.65833 C 12.38 g/m*3 19.66 C 0.66667 km/h
1615 01-07-2019 06:00:00 19.68333 C 12.03 g/m*3 19.68 C 1.06667 km/h
1616 01-07-2019 07:00:00 19.675 C 12.02 g/m*3 19.68 C 4.40833 km/h
1617 01-07-2019 08:00:00 19.79167 C 12.06 g/m*3 19.79 C 2.4 km/h
1618 01-07-2019 09:00:00 20.24167 C 12.14 g/m*3 20.24 C 4.675 km/h
1619 01-07-2019 10:00:00 21.20833 C 12.76 g/m*3 21.21 C 6.84167 km/h
1620 01-07-2019 11:00:00 21.78333 C 13.27 g/m*3 21.78 C 9.80833 km/h
1621 01-07-2019 12:00:00 23.16667 C 13.02 g/m*3 23.17 C 8.61667 km/h
1622 01-07-2019 13:00:00 24.89167 C 11.65 g/m*3 24.89 C 13.83333 km/h
1623 01-07-2019 14:00:00 25.55833 C 12.15 g/m*3 25.56 C 10.61667 km/h
1624 01-07-2019 15:00:00 26.675 C 11.92 g/m*3 26.68 C 13.7 km/h
1625 01-07-2019 16:00:00 26.89167 C 11.34 g/m*3 26.89 C 13.3 km/h
Sensor: Nr:Datum:Temp:Abs-Feuchte:Windchill:Wind:
Aussen-T/F 1626 01-07-2019 17:00:00 27.04167 C 10.86 g/m*3 27.04 C 15.43333 km/h
1627 01-07-2019 18:00:00 26.3 C 10.89 g/m*3 26.3 C 13.96667 km/h
1628 01-07-2019 19:00:00 25.96667 C 10.39 g/m*3 25.97 C 11.96667 km/h
1629 01-07-2019 20:00:00 24.53333 C 10.46 g/m*3 24.53 C 8.05 km/h
1630 01-07-2019 21:00:00 22.55833 C 10.25 g/m*3 22.56 C 7.25 km/h
1631 01-07-2019 22:00:00 20.825 C 10.38 g/m*3 20.83 C 2.93333 km/h
1632 01-07-2019 23:00:00 20.03333 C 10.29 g/m*3 20.03 C 8.33333 km/h
1633 02-07-2019 00:00:00 18.85833 C 10.21 g/m*3 18.86 C 2.8 km/h
1634 02-07-2019 01:00:00 16.89167 C 10.11 g/m*3 16.89 C 2 km/h
1635 02-07-2019 02:00:00 15.85 C 10.04 g/m*3 15.85 C 1.73333 km/h
1636 02-07-2019 03:00:00 15.49167 C 9.94 g/m*3 15.49 C 2.95 km/h
1637 02-07-2019 04:00:00 14.525 C 9.82 g/m*3 14.53 C 0.26667 km/h
1638 02-07-2019 05:00:00 13.45 C 9.71 g/m*3 13.45 C 0.13333 km/h
1639 02-07-2019 06:00:00 13.10833 C 9.76 g/m*3 13.11 C 0 km/h
1640 02-07-2019 07:00:00 13.23333 C 10.01 g/m*3 13.23 C 0 km/h
1641 02-07-2019 08:00:00 14.925 C 10.47 g/m*3 14.93 C 3.75 km/h
1642 02-07-2019 09:00:00 17.48333 C 10.48 g/m*3 17.48 C 8.45 km/h
1643 02-07-2019 10:00:00 19 C 10.23 g/m*3 19 C 9.01667 km/h
1644 02-07-2019 11:00:00 19.60833 C 10.23 g/m*3 19.61 C 6.01667 km/h
1645 02-07-2019 12:00:00 20.48333 C 9.79 g/m*3 20.48 C 9 km/h
1646 02-07-2019 13:00:00 21.46667 C 9.68 g/m*3 21.47 C 10.075 km/h
1647 02-07-2019 14:00:00 22.31667 C 9.72 g/m*3 22.32 C 9.11667 km/h
1648 02-07-2019 15:00:00 23.00833 C 9.78 g/m*3 23.01 C 9.14167 km/h
1649 02-07-2019 16:00:00 24.98333 C 9.26 g/m*3 24.98 C 11.83333 km/h
1650 02-07-2019 17:00:00 25.49167 C 9.11 g/m*3 25.49 C 11.83333 km/h
Sensor: Nr:Datum:Temp:Abs-Feuchte:Windchill:Wind:
Aussen-T/F 1651 02-07-2019 18:00:00 24.36667 C 9.18 g/m*3 24.37 C 9.675 km/h
1652 02-07-2019 19:00:00 24.775 C 8.77 g/m*3 24.78 C 9.83333 km/h
1653 02-07-2019 20:00:00 22.95 C 8.56 g/m*3 22.95 C 10.35833 km/h
1654 02-07-2019 21:00:00 20.825 C 8.81 g/m*3 20.83 C 2.66667 km/h
1655 02-07-2019 22:00:00 17.64167 C 8.76 g/m*3 17.64 C 0.26667 km/h
1656 02-07-2019 23:00:00 16.3 C 8.64 g/m*3 16.3 C 0.13333 km/h
1657 03-07-2019 00:00:00 14.80833 C 8.63 g/m*3 14.81 C 0 km/h
1658 03-07-2019 01:00:00 13.23333 C 8.49 g/m*3 13.23 C 0 km/h
1659 03-07-2019 02:00:00 12.30833 C 8.39 g/m*3 12.31 C 0 km/h
1660 03-07-2019 03:00:00 11.475 C 8.3 g/m*3 11.48 C 0 km/h
1661 03-07-2019 04:00:00 10.65 C 8.15 g/m*3 10.65 C 0 km/h
1662 03-07-2019 05:00:00 10.10833 C 8.12 g/m*3 10.11 C 0 km/h
1663 03-07-2019 06:00:00 10.13333 C 8.34 g/m*3 10.13 C 0 km/h
1664 03-07-2019 07:00:00 10.91667 C 8.83 g/m*3 10.92 C 0 km/h
1665 03-07-2019 08:00:00 12.31667 C 9.37 g/m*3 12.32 C 0 km/h
1666 03-07-2019 09:00:00 14.475 C 9.56 g/m*3 14.48 C 0.8 km/h
1667 03-07-2019 10:00:00 18.01667 C 9.37 g/m*3 18.02 C 3.86667 km/h
1668 03-07-2019 11:00:00 19.95 C 8.76 g/m*3 19.95 C 9.4 km/h
1669 03-07-2019 12:00:00 20.75833 C 8.81 g/m*3 20.76 C 9.55 km/h
1670 03-07-2019 13:00:00 21.4 C 8.75 g/m*3 21.4 C 11.69167 km/h
1671 03-07-2019 14:00:00 21.975 C 8.98 g/m*3 21.98 C 11.96667 km/h
1672 03-07-2019 15:00:00 22.625 C 9.09 g/m*3 22.63 C 10.89167 km/h
1673 03-07-2019 16:00:00 24.44167 C 8.9 g/m*3 24.44 C 11.43333 km/h
1674 03-07-2019 17:00:00 24.56667 C 8.56 g/m*3 24.57 C 13.43333 km/h
1675 03-07-2019 18:00:00 24.70833 C 8.49 g/m*3 24.71 C 13.3 km/h
Sensor: Nr:Datum:Temp:Abs-Feuchte:Windchill:Wind:
Aussen-T/F 1676 03-07-2019 19:00:00 23.79167 C 8.35 g/m*3 23.79 C 13.7 km/h
1677 03-07-2019 20:00:00 22.35833 C 8.3 g/m*3 22.36 C 10.5 km/h
1678 03-07-2019 21:00:00 20.40833 C 8.22 g/m*3 20.41 C 5.91667 km/h
1679 03-07-2019 22:00:00 17.54167 C 8.23 g/m*3 17.54 C 1.46667 km/h
1680 03-07-2019 23:00:00 15.46667 C 8.16 g/m*3 15.47 C 0.13333 km/h
1681 04-07-2019 00:00:00 14.2 C 8.05 g/m*3 14.2 C 0.26667 km/h
1682 04-07-2019 01:00:00 13.48333 C 7.96 g/m*3 13.48 C 0.13333 km/h
1683 04-07-2019 02:00:00 12.625 C 7.94 g/m*3 12.63 C 0 km/h
1684 04-07-2019 03:00:00 11.24167 C 7.84 g/m*3 11.24 C 0 km/h
1685 04-07-2019 04:00:00 10.78333 C 7.87 g/m*3 10.78 C 0 km/h
1686 04-07-2019 05:00:00 10.51667 C 7.94 g/m*3 10.52 C 0 km/h
1687 04-07-2019 06:00:00 10.28333 C 8.01 g/m*3 10.28 C 0 km/h
1688 04-07-2019 07:00:00 10.55 C 8.37 g/m*3 10.55 C 0 km/h
1689 04-07-2019 08:00:00 11.76667 C 8.81 g/m*3 11.77 C 0 km/h
1690 04-07-2019 09:00:00 14.4 C 9.04 g/m*3 14.4 C 2.94167 km/h
1691 04-07-2019 10:00:00 18.125 C 8.68 g/m*3 18.13 C 6.99167 km/h
1692 04-07-2019 11:00:00 19.58333 C 8.28 g/m*3 19.58 C 7.38333 km/h
1693 04-07-2019 12:00:00 20.4 C 8.02 g/m*3 20.4 C 8.33333 km/h
1694 04-07-2019 13:00:00 21.63333 C 7.9 g/m*3 21.63 C 8.475 km/h
1695 04-07-2019 14:00:00 22.71667 C 7.68 g/m*3 22.72 C 6.825 km/h
1696 04-07-2019 15:00:00 24.7 C 7.6 g/m*3 24.7 C 9.41667 km/h
1697 04-07-2019 16:00:00 26.80833 C 8 g/m*3 26.81 C 8.6 km/h
1698 04-07-2019 17:00:00 26.9 C 8.17 g/m*3 26.9 C 9.4 km/h
1699 04-07-2019 18:00:00 27.35 C 8.07 g/m*3 27.35 C 8.74167 km/h
1700 04-07-2019 19:00:00 26.94167 C 8.12 g/m*3 26.94 C 7.36667 km/h
Sensor: Nr:Datum:Temp:Abs-Feuchte:Windchill:Wind:
Aussen-T/F 1701 04-07-2019 20:00:00 24.95 C 8.3 g/m*3 24.95 C 5.61667 km/h
1702 04-07-2019 21:00:00 21.60833 C 9 g/m*3 21.61 C 0.8 km/h
1703 04-07-2019 22:00:00 18.56667 C 8.48 g/m*3 18.57 C 0.13333 km/h
1704 04-07-2019 23:00:00 17.39167 C 8.44 g/m*3 17.39 C 0.13333 km/h
1705 05-07-2019 00:00:00 16.41667 C 8.59 g/m*3 16.42 C 0.13333 km/h
1706 05-07-2019 01:00:00 15.18333 C 8.54 g/m*3 15.18 C 0 km/h
1707 05-07-2019 02:00:00 14.13333 C 8.41 g/m*3 14.13 C 0 km/h
1708 05-07-2019 03:00:00 13.70833 C 8.68 g/m*3 13.71 C 1.06667 km/h
1709 05-07-2019 04:00:00 14.08333 C 8.95 g/m*3 14.08 C 2.93333 km/h
1710 05-07-2019 05:00:00 13.75833 C 8.86 g/m*3 13.76 C 0.93333 km/h
1711 05-07-2019 06:00:00 13.93333 C 9.17 g/m*3 13.93 C 1.33333 km/h
1712 05-07-2019 07:00:00 14.55 C 9.41 g/m*3 14.55 C 3.60833 km/h
1713 05-07-2019 08:00:00 15.8 C 9.77 g/m*3 15.8 C 5.61667 km/h
1714 05-07-2019 09:00:00 17.29167 C 9.95 g/m*3 17.29 C 3.06667 km/h
1715 05-07-2019 10:00:00 20.225 C 10.27 g/m*3 20.23 C 4.40833 km/h
1716 05-07-2019 11:00:00 21.94167 C 10.28 g/m*3 21.94 C 5.76667 km/h
1717 05-07-2019 12:00:00 22.84167 C 10.24 g/m*3 22.84 C 5.775 km/h
1718 05-07-2019 13:00:00 24.38333 C 10.1 g/m*3 24.38 C 9.825 km/h
1719 05-07-2019 14:00:00 25.5 C 10.12 g/m*3 25.5 C 7.65 km/h
1720 05-07-2019 15:00:00 27.45 C 9.98 g/m*3 27.45 C 9.68333 km/h
1721 05-07-2019 16:00:00 28.91667 C 9.96 g/m*3 28.92 C 10.09167 km/h
1722 05-07-2019 17:00:00 29.6 C 10.02 g/m*3 29.6 C 9.94167 km/h
1723 05-07-2019 18:00:00 29.41667 C 10.28 g/m*3 29.42 C 11.025 km/h
1724 05-07-2019 19:00:00 27.68333 C 10.33 g/m*3 27.68 C 8.75 km/h
1725 05-07-2019 20:00:00 26.10833 C 10.45 g/m*3 26.11 C 4.26667 km/h
Sensor: Nr:Datum:Temp:Abs-Feuchte:Windchill:Wind:
Aussen-T/F 1726 05-07-2019 21:00:00 23.225 C 10.96 g/m*3 23.23 C 0.26667 km/h
1727 05-07-2019 22:00:00 21.18333 C 10.88 g/m*3 21.18 C 0.26667 km/h
1728 05-07-2019 23:00:00 20.4 C 11.09 g/m*3 20.4 C 0 km/h
1729 06-07-2019 00:00:00 18.45833 C 11.03 g/m*3 18.46 C 0 km/h
1730 06-07-2019 01:00:00 17.60833 C 10.97 g/m*3 17.61 C 0.26667 km/h
1731 06-07-2019 02:00:00 17.05833 C 11.07 g/m*3 17.06 C 0 km/h
1732 06-07-2019 03:00:00 16.875 C 11.13 g/m*3 16.88 C 0.53333 km/h
1733 06-07-2019 04:00:00 16.16667 C 10.96 g/m*3 16.17 C 0.66667 km/h
1734 06-07-2019 05:00:00 15.425 C 10.77 g/m*3 15.43 C 0.13333 km/h
1735 06-07-2019 06:00:00 15.18333 C 10.97 g/m*3 15.18 C 0 km/h
1736 06-07-2019 07:00:00 15.18333 C 11.03 g/m*3 15.18 C 2.40833 km/h
1737 06-07-2019 08:00:00 16.78333 C 11.6 g/m*3 16.78 C 5.34167 km/h
1738 06-07-2019 09:00:00 19.425 C 11.97 g/m*3 19.43 C 4.26667 km/h
1739 06-07-2019 10:00:00 22.16667 C 12.25 g/m*3 22.17 C 4.15 km/h
1740 06-07-2019 11:00:00 24.41667 C 11.79 g/m*3 24.42 C 6.85 km/h
1741 06-07-2019 12:00:00 25.48333 C 11.83 g/m*3 25.48 C 8.075 km/h
1742 06-07-2019 13:00:00 26.84167 C 11.1 g/m*3 26.84 C 9.81667 km/h
1743 06-07-2019 14:00:00 28.7 C 9.07 g/m*3 28.7 C 11.81667 km/h
1744 06-07-2019 15:00:00 30.95833 C 7.21 g/m*3 30.96 C 15.83333 km/h
1745 06-07-2019 16:00:00 29.08333 C 6.25 g/m*3 29.08 C 13.16667 km/h
1746 06-07-2019 17:00:00 27.89167 C 7.79 g/m*3 27.89 C 16.36667 km/h
1747 06-07-2019 18:00:00 22.825 C 10.53 g/m*3 22.83 C 11.79167 km/h
1748 06-07-2019 19:00:00 21.60833 C 10.61 g/m*3 21.61 C 6.3 km/h
1749 06-07-2019 20:00:00 20.35833 C 11.37 g/m*3 20.36 C 5.08333 km/h
1750 06-07-2019 21:00:00 19.75833 C 11.39 g/m*3 19.76 C 3.6 km/h
Sensor: Nr:Datum:Temp:Abs-Feuchte:Windchill:Wind:
Aussen-T/F 1751 06-07-2019 22:00:00 19.86667 C 12.2 g/m*3 19.87 C 6.43333 km/h
1752 06-07-2019 23:00:00 20.35833 C 12.6 g/m*3 20.36 C 9.68333 km/h
1753 07-07-2019 00:00:00 18.93333 C 12.04 g/m*3 18.93 C 7.11667 km/h
1754 07-07-2019 01:00:00 17.88333 C 11.81 g/m*3 17.88 C 7.39167 km/h
1755 07-07-2019 02:00:00 17.33333 C 11 g/m*3 17.33 C 6.175 km/h
1756 07-07-2019 03:00:00 17 C 10.94 g/m*3 17 C 4.53333 km/h
1757 07-07-2019 04:00:00 16.825 C 10.86 g/m*3 16.83 C 4.94167 km/h
1758 07-07-2019 05:00:00 16.47 C 11.07 g/m*3 16.47 C 6.77 km/h
1759 07-07-2019 06:00:00 14.96 C 11.51 g/m*3 14.96 C 0.48 km/h
1760 07-07-2019 07:00:00 14.65 C 11.66 g/m*3 14.65 C 1.2 km/h
1761 07-07-2019 08:00:00 14.28182 C 11.51 g/m*3 14.28 C 0.72727 km/h
1762 07-07-2019 09:00:00 14.78333 C 11.92 g/m*3 14.78 C 2.80833 km/h
1763 07-07-2019 10:00:00 15.38333 C 11.31 g/m*3 15.38 C 8.60833 km/h
1764 07-07-2019 11:00:00 16.50833 C 10.6 g/m*3 16.51 C 9.95833 km/h
1765 07-07-2019 12:00:00 17.73333 C 10.22 g/m*3 17.73 C 9.15 km/h
1766 07-07-2019 13:00:00 18.5 C 9.88 g/m*3 18.5 C 12.225 km/h
1767 07-07-2019 14:00:00 19.25833 C 9.21 g/m*3 19.26 C 12.36667 km/h
1768 07-07-2019 15:00:00 20.91667 C 8.84 g/m*3 20.92 C 14.23333 km/h
1769 07-07-2019 16:00:00 21.78333 C 8.37 g/m*3 21.78 C 12.88333 km/h
1770 07-07-2019 17:00:00 21.475 C 8.3 g/m*3 21.48 C 12.76667 km/h
1771 07-07-2019 18:00:00 21.775 C 8.51 g/m*3 21.78 C 13.16667 km/h
1772 07-07-2019 19:00:00 21.325 C 8.31 g/m*3 21.33 C 11.29167 km/h
1773 07-07-2019 20:00:00 20 C 8.3 g/m*3 20 C 9.54167 km/h
1774 07-07-2019 21:00:00 18.65 C 8.39 g/m*3 18.65 C 5.20833 km/h
1775 07-07-2019 22:00:00 15.64167 C 8.83 g/m*3 15.64 C 0 km/h
Sensor: Nr:Datum:Temp:Abs-Feuchte:Windchill:Wind:
Aussen-T/F 1776 07-07-2019 23:00:00 13.85 C 8.83 g/m*3 13.85 C 0.4 km/h
1777 08-07-2019 00:00:00 12.875 C 8.72 g/m*3 12.88 C 0.26667 km/h
1778 08-07-2019 01:00:00 11.89167 C 8.6 g/m*3 11.89 C 0 km/h
1779 08-07-2019 02:00:00 11.05 C 8.41 g/m*3 11.05 C 0 km/h
1780 08-07-2019 03:00:00 10.94167 C 8.33 g/m*3 10.94 C 0.26667 km/h
1781 08-07-2019 04:00:00 10.78333 C 8.29 g/m*3 10.78 C 0.53333 km/h
1782 08-07-2019 05:00:00 9.89167 C 8.1 g/m*3 9.89 C 0 km/h
1783 08-07-2019 06:00:00 9.55833 C 8.18 g/m*3 9.56 C 0 km/h
1784 08-07-2019 07:00:00 9.975 C 8.54 g/m*3 9.98 C 0 km/h
1785 08-07-2019 08:00:00 11.225 C 9.15 g/m*3 11.23 C 0.53333 km/h
1786 08-07-2019 09:00:00 14.18333 C 9.01 g/m*3 14.18 C 8.45 km/h
1787 08-07-2019 10:00:00 15.65833 C 8.36 g/m*3 15.66 C 9.28333 km/h
1788 08-07-2019 11:00:00 16.14167 C 8.5 g/m*3 16.14 C 10.36667 km/h
1789 08-07-2019 12:00:00 16.68333 C 8.46 g/m*3 16.68 C 11.43333 km/h
1790 08-07-2019 13:00:00 17.05833 C 8.45 g/m*3 17.06 C 9.69167 km/h
1791 08-07-2019 14:00:00 17.33333 C 8.51 g/m*3 17.33 C 8.33333 km/h
1792 08-07-2019 15:00:00 17.49167 C 8.62 g/m*3 17.49 C 10.36667 km/h
1793 08-07-2019 16:00:00 18.025 C 8.77 g/m*3 18.02 C 9.825 km/h
1794 08-07-2019 17:00:00 18.16667 C 8.87 g/m*3 18.17 C 10.36667 km/h
1795 08-07-2019 18:00:00 18.04167 C 8.82 g/m*3 18.04 C 9.68333 km/h
1796 08-07-2019 19:00:00 17.75833 C 8.79 g/m*3 17.76 C 7.94167 km/h
1797 08-07-2019 20:00:00 17.69167 C 8.82 g/m*3 17.69 C 6.025 km/h
1798 08-07-2019 21:00:00 16.26667 C 9.01 g/m*3 16.27 C 2.8 km/h
1799 08-07-2019 22:00:00 13.975 C 9.01 g/m*3 13.98 C 0 km/h
1800 08-07-2019 23:00:00 14.11667 C 9.16 g/m*3 14.12 C 0.53333 km/h
Sensor: Nr:Datum:Temp:Abs-Feuchte:Windchill:Wind:
Aussen-T/F 1801 09-07-2019 00:00:00 13.29167 C 9.16 g/m*3 13.29 C 0.13333 km/h
1802 09-07-2019 01:00:00 12.7 C 9.06 g/m*3 12.7 C 0 km/h
1803 09-07-2019 02:00:00 11.88333 C 8.87 g/m*3 11.88 C 0 km/h
1804 09-07-2019 03:00:00 11.11667 C 8.79 g/m*3 11.12 C 0 km/h
1805 09-07-2019 04:00:00 10.43333 C 8.53 g/m*3 10.43 C 0 km/h
1806 09-07-2019 05:00:00 9.80833 C 8.37 g/m*3 9.81 C 0 km/h
1807 09-07-2019 06:00:00 9.725 C 8.43 g/m*3 9.73 C 0 km/h
1808 09-07-2019 07:00:00 10.91667 C 9.03 g/m*3 10.92 C 0.8 km/h
1809 09-07-2019 08:00:00 12.98333 C 9.22 g/m*3 12.98 C 1.6 km/h
1810 09-07-2019 09:00:00 14.2 C 9.26 g/m*3 14.2 C 3.475 km/h
1811 09-07-2019 10:00:00 14.9 C 9.01 g/m*3 14.9 C 4.4 km/h
1812 09-07-2019 11:00:00 16.09167 C 8.28 g/m*3 16.09 C 9.95 km/h
1813 09-07-2019 12:00:00 16.86667 C 8.13 g/m*3 16.87 C 9.55 km/h
1814 09-07-2019 13:00:00 17.68333 C 7.9 g/m*3 17.68 C 11.16667 km/h
1815 09-07-2019 14:00:00 18.6 C 7.83 g/m*3 18.6 C 11.69167 km/h
1816 09-07-2019 15:00:00 19.73333 C 7.81 g/m*3 19.73 C 12.225 km/h
1817 09-07-2019 16:00:00 20.475 C 7.77 g/m*3 20.48 C 10.9 km/h
1818 09-07-2019 17:00:00 21.725 C 7.55 g/m*3 21.73 C 12.36667 km/h
1819 09-07-2019 18:00:00 21.06667 C 7.31 g/m*3 21.07 C 11.56667 km/h
1820 09-07-2019 19:00:00 20.98333 C 7.46 g/m*3 20.98 C 9.825 km/h
1821 09-07-2019 20:00:00 19.525 C 7.82 g/m*3 19.52 C 3.06667 km/h
1822 09-07-2019 21:00:00 17.04167 C 8.24 g/m*3 17.04 C 0.26667 km/h
1823 09-07-2019 22:00:00 14.95 C 7.99 g/m*3 14.95 C 0.26667 km/h
1824 09-07-2019 23:00:00 13.10833 C 8.2 g/m*3 13.11 C 0 km/h
1825 10-07-2019 00:00:00 12.05 C 8.03 g/m*3 12.05 C 0 km/h
Sensor: Nr:Datum:Temp:Abs-Feuchte:Windchill:Wind:
Aussen-T/F 1826 10-07-2019 01:00:00 11.01667 C 7.82 g/m*3 11.02 C 0 km/h
1827 10-07-2019 02:00:00 10.01667 C 7.63 g/m*3 10.02 C 0 km/h
1828 10-07-2019 03:00:00 9.05 C 7.49 g/m*3 9.05 C 0 km/h
1829 10-07-2019 04:00:00 8.5 C 7.43 g/m*3 8.5 C 0 km/h
1830 10-07-2019 05:00:00 8.23333 C 7.43 g/m*3 8.23 C 0 km/h
1831 10-07-2019 06:00:00 8.10833 C 7.47 g/m*3 8.11 C 0 km/h
1832 10-07-2019 07:00:00 8.46667 C 7.72 g/m*3 8.47 C 0 km/h
1833 10-07-2019 08:00:00 10 C 8.47 g/m*3 10 C 0 km/h
1834 10-07-2019 09:00:00 12.49167 C 8.99 g/m*3 12.49 C 1.33333 km/h
1835 10-07-2019 10:00:00 16.09167 C 9.38 g/m*3 16.09 C 2.53333 km/h
1836 10-07-2019 11:00:00 18.40833 C 8.59 g/m*3 18.41 C 5.49167 km/h
1837 10-07-2019 12:00:00 19.80833 C 7.29 g/m*3 19.81 C 7.25833 km/h
1838 10-07-2019 13:00:00 21.15833 C 6.55 g/m*3 21.16 C 9.15 km/h
1839 10-07-2019 14:00:00 22.70833 C 6.23 g/m*3 22.71 C 10.08333 km/h
1840 10-07-2019 15:00:00 24.41667 C 6.29 g/m*3 24.42 C 9.01667 km/h
1841 10-07-2019 16:00:00 25.66667 C 6.37 g/m*3 25.67 C 10.35833 km/h
1842 10-07-2019 17:00:00 26.63333 C 6.41 g/m*3 26.63 C 9.40833 km/h
1843 10-07-2019 18:00:00 26.76667 C 6.54 g/m*3 26.77 C 9.54167 km/h
1844 10-07-2019 19:00:00 25.75 C 6.74 g/m*3 25.75 C 9.68333 km/h
1845 10-07-2019 20:00:00 23.525 C 7.13 g/m*3 23.53 C 5.63333 km/h
1846 10-07-2019 21:00:00 20.74167 C 7.82 g/m*3 20.74 C 0.13333 km/h
1847 10-07-2019 22:00:00 19.21667 C 7.96 g/m*3 19.22 C 0 km/h
1848 10-07-2019 23:00:00 18.9 C 8.42 g/m*3 18.9 C 2.55 km/h
1849 11-07-2019 00:00:00 19.10833 C 8.92 g/m*3 19.11 C 1.2 km/h
1850 11-07-2019 01:00:00 17.8 C 9.27 g/m*3 17.8 C 0 km/h
Sensor: Nr:Datum:Temp:Abs-Feuchte:Windchill:Wind:
Aussen-T/F 1851 11-07-2019 02:00:00 17.175 C 9.63 g/m*3 17.18 C 0 km/h
1852 11-07-2019 03:00:00 16.875 C 10.08 g/m*3 16.88 C 0 km/h
1853 11-07-2019 04:00:00 16.59167 C 10.26 g/m*3 16.59 C 0 km/h
1854 11-07-2019 05:00:00 16.34167 C 10.18 g/m*3 16.34 C 0 km/h
1855 11-07-2019 06:00:00 16.39167 C 10.36 g/m*3 16.39 C 0 km/h
1856 11-07-2019 07:00:00 17.23333 C 10.53 g/m*3 17.23 C 0.13333 km/h
1857 11-07-2019 08:00:00 17.85833 C 10.51 g/m*3 17.86 C 0.4 km/h
1858 11-07-2019 09:00:00 18.675 C 10.95 g/m*3 18.68 C 0.66667 km/h
1859 11-07-2019 10:00:00 18.7 C 11.31 g/m*3 18.7 C 0.53333 km/h
1860 11-07-2019 11:00:00 18.9 C 11.26 g/m*3 18.9 C 4.975 km/h
1861 11-07-2019 12:00:00 17.35 C 12.1 g/m*3 17.35 C 5.63333 km/h
1862 11-07-2019 13:00:00 16.31667 C 12.61 g/m*3 16.32 C 2.53333 km/h
1863 11-07-2019 14:00:00 16.79167 C 13.25 g/m*3 16.79 C 0.53333 km/h
1864 11-07-2019 15:00:00 17.575 C 13.85 g/m*3 17.58 C 2.26667 km/h
1865 11-07-2019 16:00:00 19.11667 C 14.66 g/m*3 19.12 C 7.51667 km/h
1866 11-07-2019 17:00:00 20.88333 C 15.37 g/m*3 20.88 C 2.8 km/h
1867 11-07-2019 18:00:00 19.50833 C 15.13 g/m*3 19.51 C 0.4 km/h
1868 11-07-2019 19:00:00 18.3 C 14.55 g/m*3 18.3 C 0.93333 km/h
1869 11-07-2019 20:00:00 18.04167 C 14.47 g/m*3 18.04 C 0 km/h
1870 11-07-2019 21:00:00 17.44167 C 13.97 g/m*3 17.44 C 0 km/h
1871 11-07-2019 22:00:00 16.85 C 13.61 g/m*3 16.85 C 0 km/h
1872 11-07-2019 23:00:00 16.43333 C 13.3 g/m*3 16.43 C 0.93333 km/h
1873 12-07-2019 00:00:00 16.05 C 13.12 g/m*3 16.05 C 1.6 km/h
1874 12-07-2019 01:00:00 15.70833 C 12.85 g/m*3 15.71 C 1.06667 km/h
1875 12-07-2019 02:00:00 15.34167 C 12.57 g/m*3 15.34 C 0.26667 km/h
Sensor: Nr:Datum:Temp:Abs-Feuchte:Windchill:Wind:
Aussen-T/F 1876 12-07-2019 03:00:00 15.31667 C 12.61 g/m*3 15.32 C 0.26667 km/h
1877 12-07-2019 04:00:00 14.93333 C 12.31 g/m*3 14.93 C 0 km/h
1878 12-07-2019 05:00:00 14.58333 C 12.13 g/m*3 14.58 C 0 km/h
1879 12-07-2019 06:00:00 14.75833 C 12.26 g/m*3 14.76 C 0 km/h
1880 12-07-2019 07:00:00 15.73333 C 13.03 g/m*3 15.73 C 1.46667 km/h
1881 12-07-2019 08:00:00 16.45833 C 13.6 g/m*3 16.46 C 0 km/h
1882 12-07-2019 09:00:00 17.45 C 14.48 g/m*3 17.45 C 0.66667 km/h
1883 12-07-2019 10:00:00 18.78333 C 15.28 g/m*3 18.78 C 1.73333 km/h
1884 12-07-2019 11:00:00 20.325 C 15.63 g/m*3 20.33 C 0.4 km/h
1885 12-07-2019 12:00:00 19.04167 C 14.99 g/m*3 19.04 C 0.8 km/h
1886 12-07-2019 13:00:00 17.98333 C 14.46 g/m*3 17.98 C 1.86667 km/h
1887 12-07-2019 14:00:00 17.70833 C 14.21 g/m*3 17.71 C 3.06667 km/h
1888 12-07-2019 15:00:00 19.6 C 15.04 g/m*3 19.6 C 6.96667 km/h
1889 12-07-2019 16:00:00 20.76667 C 15.69 g/m*3 20.77 C 1.06667 km/h
1890 12-07-2019 17:00:00 19.975 C 13.79 g/m*3 19.98 C 8.59167 km/h
1891 12-07-2019 18:00:00 18.30833 C 13.28 g/m*3 18.31 C 1.46667 km/h
1892 12-07-2019 19:00:00 17.55833 C 13.12 g/m*3 17.56 C 4.825 km/h
1893 12-07-2019 20:00:00 18.23333 C 13.74 g/m*3 18.23 C 4.025 km/h
1894 12-07-2019 21:00:00 17.63333 C 13.07 g/m*3 17.63 C 6.16667 km/h
1895 12-07-2019 22:00:00 17.3 C 12.71 g/m*3 17.3 C 7.64167 km/h
1896 12-07-2019 23:00:00 16.55 C 12.44 g/m*3 16.55 C 1.73333 km/h
1897 13-07-2019 00:00:00 16.34167 C 12.05 g/m*3 16.34 C 4.55 km/h
1898 13-07-2019 01:00:00 16.13333 C 12.35 g/m*3 16.13 C 4.14167 km/h
1899 13-07-2019 02:00:00 15.51667 C 12.44 g/m*3 15.52 C 0.53333 km/h
1900 13-07-2019 03:00:00 15.175 C 12.3 g/m*3 15.18 C 2.14167 km/h
Sensor: Nr:Datum:Temp:Abs-Feuchte:Windchill:Wind:
Aussen-T/F 1901 13-07-2019 04:00:00 14.99167 C 12.19 g/m*3 14.99 C 1.875 km/h
1902 13-07-2019 05:00:00 14.90833 C 12.24 g/m*3 14.91 C 0 km/h
1903 13-07-2019 06:00:00 14.75 C 12.12 g/m*3 14.75 C 1.2 km/h
1904 13-07-2019 07:00:00 14.93333 C 12.28 g/m*3 14.93 C 1.06667 km/h
1905 13-07-2019 08:00:00 15.61667 C 12.8 g/m*3 15.62 C 1.2 km/h
1906 13-07-2019 09:00:00 15.83333 C 12.88 g/m*3 15.83 C 1.46667 km/h
1907 13-07-2019 10:00:00 16.5 C 12.78 g/m*3 16.5 C 5.9 km/h
1908 13-07-2019 11:00:00 17.51667 C 13.18 g/m*3 17.52 C 5.64167 km/h
1909 13-07-2019 12:00:00 18.75833 C 13.09 g/m*3 18.76 C 4.675 km/h
1910 13-07-2019 13:00:00 19.725 C 12.91 g/m*3 19.73 C 9.8 km/h
1911 13-07-2019 14:00:00 21.15 C 12.8 g/m*3 21.15 C 13.16667 km/h
1912 13-07-2019 15:00:00 21.18333 C 13.16 g/m*3 21.18 C 14.35833 km/h
1913 13-07-2019 16:00:00 20.90833 C 12.56 g/m*3 20.91 C 13.425 km/h
1914 13-07-2019 17:00:00 21.84167 C 12.92 g/m*3 21.84 C 11.7 km/h
1915 13-07-2019 18:00:00 22.38333 C 12.75 g/m*3 22.38 C 10.625 km/h
1916 13-07-2019 19:00:00 22.70833 C 12.73 g/m*3 22.71 C 9 km/h
1917 13-07-2019 20:00:00 20.45833 C 12.45 g/m*3 20.46 C 8.475 km/h
1918 13-07-2019 21:00:00 19.2 C 12.74 g/m*3 19.2 C 4.425 km/h
1919 13-07-2019 22:00:00 18.225 C 13.24 g/m*3 18.23 C 2.425 km/h
1920 13-07-2019 23:00:00 17.21667 C 13.13 g/m*3 17.22 C 0.26667 km/h
1921 14-07-2019 00:00:00 16.95 C 12.95 g/m*3 16.95 C 1.06667 km/h
1922 14-07-2019 01:00:00 16.975 C 12.8 g/m*3 16.98 C 3.48333 km/h
1923 14-07-2019 02:00:00 16.35833 C 12.48 g/m*3 16.36 C 6.04167 km/h
1924 14-07-2019 03:00:00 15.44167 C 11.98 g/m*3 15.44 C 4.01667 km/h
1925 14-07-2019 04:00:00 15.11667 C 11.74 g/m*3 15.12 C 3.2 km/h
Sensor: Nr:Datum:Temp:Abs-Feuchte:Windchill:Wind:
Aussen-T/F 1926 14-07-2019 05:00:00 14.85 C 11.47 g/m*3 14.85 C 3.48333 km/h
1927 14-07-2019 06:00:00 14.71667 C 11.46 g/m*3 14.72 C 3.2 km/h
1928 14-07-2019 07:00:00 14.86667 C 11.04 g/m*3 14.87 C 2 km/h
1929 14-07-2019 08:00:00 15.40833 C 11.22 g/m*3 15.41 C 4.80833 km/h
1930 14-07-2019 09:00:00 15.26667 C 10.97 g/m*3 15.27 C 6.56667 km/h
1931 14-07-2019 10:00:00 16.00833 C 10.6 g/m*3 16.01 C 9.29167 km/h
1932 14-07-2019 11:00:00 16.83333 C 10.48 g/m*3 16.83 C 9.28333 km/h
1933 14-07-2019 12:00:00 17.53333 C 10.37 g/m*3 17.53 C 9.95833 km/h
1934 14-07-2019 13:00:00 17.80833 C 10.15 g/m*3 17.81 C 10.1 km/h
1935 14-07-2019 14:00:00 18.19167 C 9.99 g/m*3 18.19 C 11.16667 km/h
1936 14-07-2019 15:00:00 18.925 C 9.91 g/m*3 18.93 C 10.76667 km/h
1937 14-07-2019 16:00:00 19.33333 C 9.78 g/m*3 19.33 C 13.3 km/h
1938 14-07-2019 17:00:00 19.34167 C 9.74 g/m*3 19.34 C 9.00833 km/h
1939 14-07-2019 18:00:00 18.65833 C 9.88 g/m*3 18.66 C 10.35 km/h
1940 14-07-2019 19:00:00 18.36667 C 9.73 g/m*3 18.37 C 10.35833 km/h
1941 14-07-2019 20:00:00 17.89167 C 10.07 g/m*3 17.89 C 9.94167 km/h
1942 14-07-2019 21:00:00 17.45 C 10.02 g/m*3 17.45 C 7.25 km/h
1943 14-07-2019 22:00:00 17.125 C 9.93 g/m*3 17.13 C 3.74167 km/h
1944 14-07-2019 23:00:00 16.8 C 10.16 g/m*3 16.8 C 3.60833 km/h
1945 15-07-2019 00:00:00 16.06667 C 10.5 g/m*3 16.07 C 1.2 km/h
1946 15-07-2019 01:00:00 15.63333 C 10.49 g/m*3 15.63 C 2.675 km/h
1947 15-07-2019 02:00:00 15.55833 C 10.66 g/m*3 15.56 C 0.13333 km/h
1948 15-07-2019 03:00:00 14.99167 C 10.7 g/m*3 14.99 C 0 km/h
1949 15-07-2019 04:00:00 15.30833 C 10.22 g/m*3 15.31 C 2.66667 km/h
1950 15-07-2019 05:00:00 15.65 C 9.93 g/m*3 15.65 C 4.81667 km/h
Sensor: Nr:Datum:Temp:Abs-Feuchte:Windchill:Wind:
Aussen-T/F 1951 15-07-2019 06:00:00 15.6 C 9.86 g/m*3 15.6 C 3.33333 km/h
1952 15-07-2019 07:00:00 15.69167 C 9.9 g/m*3 15.69 C 5.49167 km/h
1953 15-07-2019 08:00:00 15.83333 C 9.99 g/m*3 15.83 C 6.7 km/h
1954 15-07-2019 09:00:00 16.53333 C 10.05 g/m*3 16.53 C 6.44167 km/h
1955 15-07-2019 10:00:00 16.8 C 10.32 g/m*3 16.8 C 5.48333 km/h
1956 15-07-2019 11:00:00 16.84167 C 10.67 g/m*3 16.84 C 7.525 km/h
1957 15-07-2019 12:00:00 17.10833 C 10.61 g/m*3 17.11 C 9.7 km/h
1958 15-07-2019 13:00:00 17.49167 C 10.39 g/m*3 17.49 C 11.43333 km/h
1959 15-07-2019 14:00:00 18.09167 C 10.24 g/m*3 18.09 C 12.49167 km/h
1960 15-07-2019 15:00:00 17.68333 C 10.24 g/m*3 17.68 C 10.75833 km/h
1961 15-07-2019 16:00:00 17.11667 C 10.27 g/m*3 17.12 C 8.73333 km/h
1962 15-07-2019 17:00:00 16.775 C 10.23 g/m*3 16.77 C 8.74167 km/h
1963 15-07-2019 18:00:00 16.69167 C 10.17 g/m*3 16.69 C 6.56667 km/h
1964 15-07-2019 19:00:00 16.78333 C 10.14 g/m*3 16.78 C 5.09167 km/h
1965 15-07-2019 20:00:00 16.69167 C 10.1 g/m*3 16.69 C 4.01667 km/h
1966 15-07-2019 21:00:00 16.34167 C 10.28 g/m*3 16.34 C 2.13333 km/h
1967 15-07-2019 22:00:00 15.61667 C 10.58 g/m*3 15.62 C 0 km/h
1968 15-07-2019 23:00:00 15.44167 C 10.18 g/m*3 15.44 C 0.93333 km/h
1969 16-07-2019 00:00:00 14.75 C 10.08 g/m*3 14.75 C 0 km/h
1970 16-07-2019 01:00:00 13.675 C 9.5 g/m*3 13.68 C 0 km/h
1971 16-07-2019 02:00:00 12.23333 C 9.25 g/m*3 12.23 C 0 km/h
1972 16-07-2019 03:00:00 10.9 C 8.98 g/m*3 10.9 C 0 km/h
1973 16-07-2019 04:00:00 10.28333 C 8.83 g/m*3 10.28 C 0 km/h
1974 16-07-2019 05:00:00 9.98333 C 8.75 g/m*3 9.98 C 0 km/h
1975 16-07-2019 06:00:00 10.125 C 8.94 g/m*3 10.13 C 1.33333 km/h
Sensor: Nr:Datum:Temp:Abs-Feuchte:Windchill:Wind:
Aussen-T/F 1976 16-07-2019 07:00:00 11.01667 C 9.39 g/m*3 11.02 C 4.4 km/h
1977 16-07-2019 08:00:00 12.625 C 10.06 g/m*3 12.63 C 2.4 km/h
1978 16-07-2019 09:00:00 14.58333 C 10.52 g/m*3 14.58 C 4.15 km/h
1979 16-07-2019 10:00:00 15.51667 C 10.25 g/m*3 15.52 C 6.84167 km/h
1980 16-07-2019 11:00:00 15.99167 C 10.17 g/m*3 15.99 C 9.66667 km/h
1981 16-07-2019 12:00:00 16.725 C 10.22 g/m*3 16.73 C 10.49167 km/h
1982 16-07-2019 13:00:00 17.40833 C 10.29 g/m*3 17.41 C 8.46667 km/h
1983 16-07-2019 14:00:00 18.38333 C 10.45 g/m*3 18.38 C 9.95 km/h
1984 16-07-2019 15:00:00 20.325 C 10.73 g/m*3 20.33 C 7.78333 km/h
1985 16-07-2019 16:00:00 22.31667 C 10.84 g/m*3 22.32 C 8.325 km/h
1986 16-07-2019 17:00:00 22.8 C 10.79 g/m*3 22.8 C 9.55833 km/h
1987 16-07-2019 18:00:00 23.075 C 10.73 g/m*3 23.08 C 8.05833 km/h
1988 16-07-2019 19:00:00 22.125 C 10.59 g/m*3 22.13 C 8.89167 km/h
1989 16-07-2019 20:00:00 20.81667 C 10.57 g/m*3 20.82 C 6.45 km/h
1990 16-07-2019 21:00:00 18.30833 C 10.98 g/m*3 18.31 C 0.53333 km/h
1991 16-07-2019 22:00:00 15.85 C 10.64 g/m*3 15.85 C 0 km/h
1992 16-07-2019 23:00:00 15.08333 C 10.54 g/m*3 15.08 C 0 km/h
1993 17-07-2019 00:00:00 14.09167 C 10.23 g/m*3 14.09 C 0 km/h
1994 17-07-2019 01:00:00 13.08333 C 10.06 g/m*3 13.08 C 0 km/h
1995 17-07-2019 02:00:00 12.40833 C 9.81 g/m*3 12.41 C 0 km/h
1996 17-07-2019 03:00:00 11.64167 C 9.54 g/m*3 11.64 C 0 km/h
1997 17-07-2019 04:00:00 11.225 C 9.42 g/m*3 11.23 C 0.26667 km/h
1998 17-07-2019 05:00:00 10.83333 C 9.29 g/m*3 10.83 C 0 km/h
1999 17-07-2019 06:00:00 10.74167 C 9.31 g/m*3 10.74 C 0 km/h
2000 17-07-2019 07:00:00 11.51667 C 9.83 g/m*3 11.52 C 0 km/h
Sensor: Nr:Datum:Temp:Abs-Feuchte:Windchill:Wind:
Aussen-T/F 2001 17-07-2019 08:00:00 12.79167 C 10.58 g/m*3 12.79 C 0 km/h
2002 17-07-2019 09:00:00 14.85833 C 11.26 g/m*3 14.86 C 1.86667 km/h
2003 17-07-2019 10:00:00 17.23333 C 11.36 g/m*3 17.23 C 5.35833 km/h
2004 17-07-2019 11:00:00 18.58333 C 11.4 g/m*3 18.58 C 6.58333 km/h
2005 17-07-2019 12:00:00 19.39167 C 11.46 g/m*3 19.39 C 7.375 km/h
2006 17-07-2019 13:00:00 20.5 C 11.2 g/m*3 20.5 C 8.88333 km/h
2007 17-07-2019 14:00:00 21.69167 C 11.23 g/m*3 21.69 C 9.13333 km/h
2008 17-07-2019 15:00:00 22.69167 C 11.71 g/m*3 22.69 C 12.63333 km/h
2009 17-07-2019 16:00:00 23.675 C 11.73 g/m*3 23.68 C 11.55833 km/h
2010 17-07-2019 17:00:00 24.575 C 11.91 g/m*3 24.58 C 10.225 km/h
2011 17-07-2019 18:00:00 24.24167 C 11.95 g/m*3 24.24 C 11.3 km/h
2012 17-07-2019 19:00:00 23.20833 C 12.17 g/m*3 23.21 C 10.23333 km/h
2013 17-07-2019 20:00:00 21.525 C 12.13 g/m*3 21.53 C 8.74167 km/h
2014 17-07-2019 21:00:00 19.69167 C 11.99 g/m*3 19.69 C 2.68333 km/h
2015 17-07-2019 22:00:00 17.05 C 11.61 g/m*3 17.05 C 0.13333 km/h
2016 17-07-2019 23:00:00 16.025 C 11.53 g/m*3 16.02 C 0 km/h
2017 18-07-2019 00:00:00 15.29167 C 11.24 g/m*3 15.29 C 0 km/h
2018 18-07-2019 01:00:00 14.29167 C 10.87 g/m*3 14.29 C 0 km/h
2019 18-07-2019 02:00:00 13.69167 C 10.8 g/m*3 13.69 C 0 km/h
2020 18-07-2019 03:00:00 13.45833 C 10.76 g/m*3 13.46 C 0 km/h
2021 18-07-2019 04:00:00 13.24167 C 10.7 g/m*3 13.24 C 0 km/h
2022 18-07-2019 05:00:00 12.675 C 10.35 g/m*3 12.68 C 0 km/h
2023 18-07-2019 06:00:00 12.45833 C 10.34 g/m*3 12.46 C 0 km/h
2024 18-07-2019 07:00:00 13.25833 C 10.95 g/m*3 13.26 C 0 km/h
2025 18-07-2019 08:00:00 14.31667 C 11.46 g/m*3 14.32 C 0.13333 km/h
Sensor: Nr:Datum:Temp:Abs-Feuchte:Windchill:Wind:
Aussen-T/F 2026 18-07-2019 09:00:00 16.21667 C 12.3 g/m*3 16.22 C 0 km/h
2027 18-07-2019 10:00:00 18.83333 C 13.12 g/m*3 18.83 C 0.13333 km/h
2028 18-07-2019 11:00:00 21.89167 C 12.42 g/m*3 21.89 C 5.24167 km/h
2029 18-07-2019 12:00:00 24.18333 C 11.91 g/m*3 24.18 C 4.675 km/h
2030 18-07-2019 13:00:00 25.71667 C 11.76 g/m*3 25.72 C 6.15 km/h
2031 18-07-2019 14:00:00 27.20833 C 10.7 g/m*3 27.21 C 10.325 km/h
2032 18-07-2019 15:00:00 26.04167 C 10.96 g/m*3 26.04 C 7.525 km/h
2033 18-07-2019 16:00:00 24.76667 C 11.91 g/m*3 24.77 C 6.70833 km/h
2034 18-07-2019 17:00:00 24.84167 C 12.8 g/m*3 24.84 C 2.675 km/h
2035 18-07-2019 18:00:00 23.975 C 13.63 g/m*3 23.98 C 1.86667 km/h
2036 18-07-2019 19:00:00 21.06667 C 13.65 g/m*3 21.07 C 0 km/h
2037 18-07-2019 20:00:00 20.86667 C 12.72 g/m*3 20.87 C 0.13333 km/h
2038 18-07-2019 21:00:00 20.35 C 12.19 g/m*3 20.35 C 0 km/h
2039 18-07-2019 22:00:00 19.66667 C 12.15 g/m*3 19.67 C 0.26667 km/h
2040 18-07-2019 23:00:00 19.35833 C 12.07 g/m*3 19.36 C 0 km/h
2041 19-07-2019 00:00:00 19.33333 C 12.31 g/m*3 19.33 C 0 km/h
2042 19-07-2019 01:00:00 18.45833 C 13.01 g/m*3 18.46 C 0 km/h
2043 19-07-2019 02:00:00 17.05833 C 13.06 g/m*3 17.06 C 0 km/h
2044 19-07-2019 03:00:00 16.60833 C 13.05 g/m*3 16.61 C 0 km/h
2045 19-07-2019 04:00:00 16.375 C 13.02 g/m*3 16.38 C 0 km/h
2046 19-07-2019 05:00:00 16.3 C 13.06 g/m*3 16.3 C 0 km/h
2047 19-07-2019 06:00:00 16.35 C 13.22 g/m*3 16.35 C 0 km/h
2048 19-07-2019 07:00:00 16.7 C 13.54 g/m*3 16.7 C 0 km/h
2049 19-07-2019 08:00:00 17.23333 C 14.09 g/m*3 17.23 C 0.4 km/h
2050 19-07-2019 09:00:00 18.025 C 14.59 g/m*3 18.02 C 2.55 km/h
Sensor: Nr:Datum:Temp:Abs-Feuchte:Windchill:Wind:
Aussen-T/F 2051 19-07-2019 10:00:00 19.275 C 14.96 g/m*3 19.27 C 6.16667 km/h
2052 19-07-2019 11:00:00 20.475 C 14.87 g/m*3 20.48 C 6.725 km/h
2053 19-07-2019 12:00:00 20.04167 C 14.93 g/m*3 20.04 C 2.94167 km/h
2054 19-07-2019 13:00:00 21.975 C 14.5 g/m*3 21.98 C 7.54167 km/h
2055 19-07-2019 14:00:00 23.525 C 12.9 g/m*3 23.53 C 10.73333 km/h
2056 19-07-2019 15:00:00 24.875 C 12.08 g/m*3 24.88 C 10.76667 km/h
2057 19-07-2019 16:00:00 25.21667 C 11.79 g/m*3 25.22 C 10.23333 km/h
2058 19-07-2019 17:00:00 25.91667 C 12.02 g/m*3 25.92 C 8.2 km/h
2059 19-07-2019 18:00:00 25.43333 C 12.05 g/m*3 25.43 C 6.425 km/h
2060 19-07-2019 19:00:00 24.78333 C 13.68 g/m*3 24.78 C 1.6 km/h
2061 19-07-2019 20:00:00 23.25833 C 13.4 g/m*3 23.26 C 0.8 km/h
2062 19-07-2019 21:00:00 20.90833 C 13.04 g/m*3 20.91 C 0 km/h
2063 19-07-2019 22:00:00 19.20833 C 13.05 g/m*3 19.21 C 0 km/h
2064 19-07-2019 23:00:00 18.525 C 13.14 g/m*3 18.52 C 0 km/h
2065 20-07-2019 00:00:00 17.39167 C 12.76 g/m*3 17.39 C 0 km/h
2066 20-07-2019 01:00:00 16.6 C 12.47 g/m*3 16.6 C 0 km/h
2067 20-07-2019 02:00:00 15.74167 C 12.14 g/m*3 15.74 C 0 km/h
2068 20-07-2019 03:00:00 15.025 C 11.87 g/m*3 15.03 C 0 km/h
2069 20-07-2019 04:00:00 14.55833 C 11.66 g/m*3 14.56 C 0 km/h
2070 20-07-2019 05:00:00 14.18333 C 11.48 g/m*3 14.18 C 0 km/h
2071 20-07-2019 06:00:00 13.96667 C 11.43 g/m*3 13.97 C 0 km/h
2072 20-07-2019 07:00:00 14.56667 C 11.96 g/m*3 14.57 C 0 km/h
2073 20-07-2019 08:00:00 15.86667 C 12.97 g/m*3 15.87 C 0 km/h
2074 20-07-2019 09:00:00 17.73333 C 14.34 g/m*3 17.73 C 0 km/h
2075 20-07-2019 10:00:00 21.4 C 16.36 g/m*3 21.4 C 0 km/h
Sensor: Nr:Datum:Temp:Abs-Feuchte:Windchill:Wind:
Aussen-T/F 2076 20-07-2019 11:00:00 25.8 C 15.23 g/m*3 25.8 C 7.65 km/h
2077 20-07-2019 12:00:00 27.775 C 13.81 g/m*3 27.78 C 12.36667 km/h
2078 20-07-2019 13:00:00 28.175 C 13.87 g/m*3 28.18 C 8.6 km/h
2079 20-07-2019 14:00:00 30.04167 C 13.8 g/m*3 30.04 C 13.96667 km/h
2080 20-07-2019 15:00:00 30.8 C 13.85 g/m*3 30.8 C 10.35 km/h
2081 20-07-2019 16:00:00 28.94167 C 18.44 g/m*3 28.94 C 5.09167 km/h
2082 20-07-2019 17:00:00 28.35 C 16.89 g/m*3 28.35 C 12.75833 km/h
2083 20-07-2019 18:00:00 28.925 C 14.11 g/m*3 28.93 C 10.60833 km/h
2084 20-07-2019 19:00:00 27.50833 C 14.18 g/m*3 27.51 C 15.16667 km/h
2085 20-07-2019 20:00:00 23.425 C 14.65 g/m*3 23.43 C 3.35 km/h
2086 20-07-2019 21:00:00 21.725 C 14.53 g/m*3 21.73 C 0 km/h
2087 20-07-2019 22:00:00 20.56667 C 14.31 g/m*3 20.57 C 0 km/h
2088 20-07-2019 23:00:00 19.75 C 14.23 g/m*3 19.75 C 0 km/h
2089 21-07-2019 00:00:00 19.08333 C 14.03 g/m*3 19.08 C 0 km/h
2090 21-07-2019 01:00:00 18.58333 C 13.98 g/m*3 18.58 C 0 km/h
2091 21-07-2019 02:00:00 18.875 C 14.19 g/m*3 18.88 C 0 km/h
2092 21-07-2019 03:00:00 18.65 C 14.15 g/m*3 18.65 C 0 km/h
2093 21-07-2019 04:00:00 17.95 C 13.68 g/m*3 17.95 C 0 km/h
2094 21-07-2019 05:00:00 17.46667 C 13.56 g/m*3 17.47 C 0 km/h
2095 21-07-2019 06:00:00 17.73333 C 13.86 g/m*3 17.73 C 0 km/h
2096 21-07-2019 07:00:00 18.5 C 14.11 g/m*3 18.5 C 0 km/h
2097 21-07-2019 08:00:00 19.34167 C 13.37 g/m*3 19.34 C 2.4 km/h
2098 21-07-2019 09:00:00 20.30833 C 13.02 g/m*3 20.31 C 7.53333 km/h
2099 21-07-2019 10:00:00 21.85833 C 12.75 g/m*3 21.86 C 7.25 km/h
2100 21-07-2019 11:00:00 23.79167 C 11.57 g/m*3 23.79 C 11.41667 km/h
Sensor: Nr:Datum:Temp:Abs-Feuchte:Windchill:Wind:
Aussen-T/F 2101 21-07-2019 12:00:00 24.96667 C 11.74 g/m*3 24.97 C 11.55833 km/h
2102 21-07-2019 13:00:00 24.95833 C 12.23 g/m*3 24.96 C 9.15 km/h
2103 21-07-2019 14:00:00 26.01667 C 12.45 g/m*3 26.02 C 9.825 km/h
2104 21-07-2019 15:00:00 26.84167 C 12.33 g/m*3 26.84 C 11.55833 km/h
2105 21-07-2019 16:00:00 27.76667 C 12.33 g/m*3 27.77 C 10.09167 km/h
2106 21-07-2019 17:00:00 27.275 C 12.43 g/m*3 27.28 C 11.16667 km/h
2107 21-07-2019 18:00:00 26.44167 C 12.29 g/m*3 26.44 C 9.41667 km/h
2108 21-07-2019 19:00:00 25.40833 C 12.29 g/m*3 25.41 C 8.2 km/h
2109 21-07-2019 20:00:00 24.4 C 12.2 g/m*3 24.4 C 7.51667 km/h
2110 21-07-2019 21:00:00 22.64167 C 12.32 g/m*3 22.64 C 0.93333 km/h
2111 21-07-2019 22:00:00 19.85 C 12.25 g/m*3 19.85 C 0 km/h
2112 21-07-2019 23:00:00 18.35 C 12.26 g/m*3 18.35 C 0 km/h
2113 22-07-2019 00:00:00 17.075 C 11.79 g/m*3 17.08 C 0 km/h
2114 22-07-2019 01:00:00 16.15833 C 11.58 g/m*3 16.16 C 0 km/h
2115 22-07-2019 02:00:00 15.64167 C 11.65 g/m*3 15.64 C 0 km/h
2116 22-07-2019 03:00:00 15.33333 C 11.56 g/m*3 15.33 C 0 km/h
2117 22-07-2019 04:00:00 14.74167 C 11.3 g/m*3 14.74 C 0 km/h
2118 22-07-2019 05:00:00 14.3 C 11.17 g/m*3 14.3 C 0 km/h
2119 22-07-2019 06:00:00 14.175 C 11.2 g/m*3 14.18 C 0 km/h
2120 22-07-2019 07:00:00 14.725 C 11.7 g/m*3 14.73 C 0 km/h
2121 22-07-2019 08:00:00 16.28333 C 12.37 g/m*3 16.28 C 0 km/h
2122 22-07-2019 09:00:00 18.20833 C 13.05 g/m*3 18.21 C 0 km/h
2123 22-07-2019 10:00:00 20.80833 C 13.45 g/m*3 20.81 C 0 km/h
2124 22-07-2019 11:00:00 24.00833 C 12.62 g/m*3 24.01 C 5.225 km/h
2125 22-07-2019 12:00:00 25.55833 C 12.49 g/m*3 25.56 C 9.13333 km/h
Sensor: Nr:Datum:Temp:Abs-Feuchte:Windchill:Wind:
Aussen-T/F 2126 22-07-2019 13:00:00 26.41667 C 12.5 g/m*3 26.42 C 7.93333 km/h
2127 22-07-2019 14:00:00 27.775 C 12.29 g/m*3 27.78 C 6.99167 km/h
2128 22-07-2019 15:00:00 29.05 C 12.41 g/m*3 29.05 C 9.55833 km/h
2129 22-07-2019 16:00:00 30.80833 C 12.27 g/m*3 30.81 C 10.75833 km/h
2130 22-07-2019 17:00:00 31.51667 C 12.12 g/m*3 31.52 C 7.79167 km/h
2131 22-07-2019 18:00:00 32.31667 C 12.13 g/m*3 32.32 C 6.575 km/h
2132 22-07-2019 19:00:00 31.475 C 11.93 g/m*3 31.48 C 7.375 km/h
2133 22-07-2019 20:00:00 29.425 C 12.62 g/m*3 29.43 C 6.56667 km/h
2134 22-07-2019 21:00:00 25.59167 C 13.44 g/m*3 25.59 C 0 km/h
2135 22-07-2019 22:00:00 22.85 C 12.97 g/m*3 22.85 C 0 km/h
2136 22-07-2019 23:00:00 20.925 C 12.95 g/m*3 20.93 C 0 km/h
2137 23-07-2019 00:00:00 19.4 C 12.72 g/m*3 19.4 C 0 km/h
2138 23-07-2019 01:00:00 18.375 C 12.54 g/m*3 18.38 C 0 km/h
2139 23-07-2019 02:00:00 17.55833 C 12.34 g/m*3 17.56 C 0 km/h
2140 23-07-2019 03:00:00 16.84167 C 12.19 g/m*3 16.84 C 0 km/h
2141 23-07-2019 04:00:00 16.29167 C 12.12 g/m*3 16.29 C 0 km/h
2142 23-07-2019 05:00:00 15.825 C 12.01 g/m*3 15.83 C 0 km/h
2143 23-07-2019 06:00:00 15.65833 C 12.12 g/m*3 15.66 C 0 km/h
2144 23-07-2019 07:00:00 16.10833 C 12.48 g/m*3 16.11 C 0 km/h
2145 23-07-2019 08:00:00 16.83333 C 12.98 g/m*3 16.83 C 0 km/h
2146 23-07-2019 09:00:00 18.70833 C 13.95 g/m*3 18.71 C 0 km/h
2147 23-07-2019 10:00:00 22.425 C 14.92 g/m*3 22.43 C 1.61667 km/h
2148 23-07-2019 11:00:00 27.35 C 13.99 g/m*3 27.35 C 7.24167 km/h
2149 23-07-2019 12:00:00 29.59167 C 13.05 g/m*3 29.59 C 11.55833 km/h
2150 23-07-2019 13:00:00 30.78333 C 12.63 g/m*3 30.78 C 10.33333 km/h
Sensor: Nr:Datum:Temp:Abs-Feuchte:Windchill:Wind:
Aussen-T/F 2151 23-07-2019 14:00:00 32.11667 C 12.63 g/m*3 32.12 C 9 km/h
2152 23-07-2019 15:00:00 33.90833 C 13.1 g/m*3 33.91 C 8.74167 km/h
2153 23-07-2019 16:00:00 35.8 C 12.74 g/m*3 35.8 C 7.24167 km/h
2154 23-07-2019 17:00:00 36.38333 C 12.17 g/m*3 36.38 C 7.8 km/h
2155 23-07-2019 18:00:00 36.76667 C 12.31 g/m*3 36.77 C 7.51667 km/h
2156 23-07-2019 19:00:00 35.64167 C 12.6 g/m*3 35.64 C 5.88333 km/h
2157 23-07-2019 20:00:00 32.725 C 14.27 g/m*3 32.73 C 1.73333 km/h
2158 23-07-2019 21:00:00 28.00833 C 13.69 g/m*3 28.01 C 1.6 km/h
2159 23-07-2019 22:00:00 25.2 C 13.46 g/m*3 25.2 C 0.26667 km/h
2160 23-07-2019 23:00:00 22.93333 C 13.51 g/m*3 22.93 C 0 km/h
2161 24-07-2019 00:00:00 21.44167 C 13.44 g/m*3 21.44 C 0 km/h
2162 24-07-2019 01:00:00 20.31667 C 13.45 g/m*3 20.32 C 0 km/h
2163 24-07-2019 02:00:00 19.30833 C 13.11 g/m*3 19.31 C 0 km/h
2164 24-07-2019 03:00:00 18.63333 C 13.04 g/m*3 18.63 C 0 km/h
2165 24-07-2019 04:00:00 17.76667 C 12.81 g/m*3 17.77 C 0 km/h
2166 24-07-2019 05:00:00 17.23333 C 12.78 g/m*3 17.23 C 0 km/h
2167 24-07-2019 06:00:00 17.075 C 12.83 g/m*3 17.08 C 0 km/h
2168 24-07-2019 07:00:00 17.26667 C 13.23 g/m*3 17.27 C 0 km/h
2169 24-07-2019 08:00:00 18.325 C 13.91 g/m*3 18.33 C 0 km/h
2170 24-07-2019 09:00:00 20.23333 C 14.95 g/m*3 20.23 C 0 km/h
2171 24-07-2019 10:00:00 23.75 C 15.53 g/m*3 23.75 C 0 km/h
2172 24-07-2019 11:00:00 27.43333 C 15.68 g/m*3 27.43 C 0 km/h
2173 24-07-2019 12:00:00 32.04167 C 14.1 g/m*3 32.04 C 2.95833 km/h
2174 24-07-2019 13:00:00 34.175 C 11.01 g/m*3 34.17 C 7.11667 km/h
2175 24-07-2019 14:00:00 35.31667 C 10.78 g/m*3 35.32 C 6.28333 km/h
Sensor: Nr:Datum:Temp:Abs-Feuchte:Windchill:Wind:
Aussen-T/F 2176 24-07-2019 15:00:00 36.975 C 11.38 g/m*3 36.98 C 6.03333 km/h
2177 24-07-2019 16:00:00 39.59167 C 11.54 g/m*3 39.59 C 6.425 km/h
2178 24-07-2019 17:00:00 39.60833 C 11.47 g/m*3 39.61 C 9 km/h
2179 24-07-2019 18:00:00 39.31667 C 11.18 g/m*3 39.32 C 9.40833 km/h
2180 24-07-2019 19:00:00 38.49167 C 13.05 g/m*3 38.49 C 4.83333 km/h
2181 24-07-2019 20:00:00 33.13333 C 14.34 g/m*3 33.13 C 0.4 km/h
2182 24-07-2019 21:00:00 28.825 C 13.89 g/m*3 28.83 C 1.2 km/h
2183 24-07-2019 22:00:00 27.375 C 13.66 g/m*3 27.38 C 0.66667 km/h
2184 24-07-2019 23:00:00 25.58333 C 13.87 g/m*3 25.58 C 0 km/h
2185 25-07-2019 00:00:00 23.68333 C 13.48 g/m*3 23.68 C 0 km/h
2186 25-07-2019 01:00:00 22.53333 C 13.32 g/m*3 22.53 C 0 km/h
2187 25-07-2019 02:00:00 21.6 C 13.37 g/m*3 21.6 C 0 km/h
2188 25-07-2019 03:00:00 20.89167 C 13.46 g/m*3 20.89 C 0 km/h
2189 25-07-2019 04:00:00 20.075 C 13.5 g/m*3 20.08 C 0 km/h
2190 25-07-2019 05:00:00 19.35833 C 13.31 g/m*3 19.36 C 0 km/h
2191 25-07-2019 06:00:00 19.19167 C 13.56 g/m*3 19.19 C 0 km/h
2192 25-07-2019 07:00:00 19.55833 C 14.12 g/m*3 19.56 C 0 km/h
2193 25-07-2019 08:00:00 20.73333 C 14.93 g/m*3 20.73 C 0 km/h
2194 25-07-2019 09:00:00 22.75833 C 15.59 g/m*3 22.76 C 0 km/h
2195 25-07-2019 10:00:00 25.84167 C 16.09 g/m*3 25.84 C 0 km/h
2196 25-07-2019 11:00:00 29.93333 C 16.11 g/m*3 29.93 C 1.73333 km/h
2197 25-07-2019 12:00:00 34.525 C 13.66 g/m*3 34.53 C 8.06667 km/h
2198 25-07-2019 13:00:00 36.46667 C 13.22 g/m*3 36.47 C 9.025 km/h
2199 25-07-2019 14:00:00 37.425 C 12.92 g/m*3 37.42 C 7.76667 km/h
2200 25-07-2019 15:00:00 38.79167 C 12.64 g/m*3 38.79 C 9 km/h
Sensor: Nr:Datum:Temp:Abs-Feuchte:Windchill:Wind:
Aussen-T/F 2201 25-07-2019 16:00:00 40.15 C 12.17 g/m*3 40.15 C 11.95833 km/h
2202 25-07-2019 17:00:00 39.80833 C 11.41 g/m*3 39.81 C 13.29167 km/h
2203 25-07-2019 18:00:00 39.09167 C 11.46 g/m*3 39.09 C 10.1 km/h
2204 25-07-2019 19:00:00 36.66667 C 14.4 g/m*3 36.67 C 1.88333 km/h
2205 25-07-2019 20:00:00 32.81667 C 14.75 g/m*3 32.82 C 0 km/h
2206 25-07-2019 21:00:00 30.34167 C 13.8 g/m*3 30.34 C 1.46667 km/h
2207 25-07-2019 22:00:00 28.75833 C 13.39 g/m*3 28.76 C 1.06667 km/h
2208 25-07-2019 23:00:00 27.56667 C 13.19 g/m*3 27.57 C 0.93333 km/h
2209 26-07-2019 00:00:00 26.19167 C 13.14 g/m*3 26.19 C 0 km/h
2210 26-07-2019 01:00:00 25 C 13.14 g/m*3 25 C 0 km/h
2211 26-07-2019 02:00:00 22.51667 C 13.4 g/m*3 22.52 C 0 km/h
2212 26-07-2019 03:00:00 20.99167 C 13.12 g/m*3 20.99 C 0 km/h
2213 26-07-2019 04:00:00 20.125 C 13.33 g/m*3 20.13 C 0 km/h
2214 26-07-2019 05:00:00 19.29167 C 13.1 g/m*3 19.29 C 0 km/h
2215 26-07-2019 06:00:00 18.95833 C 13.06 g/m*3 18.96 C 0 km/h
2216 26-07-2019 07:00:00 19.61667 C 13.94 g/m*3 19.62 C 0 km/h
2217 26-07-2019 08:00:00 21.10833 C 14.75 g/m*3 21.11 C 0 km/h
2218 26-07-2019 09:00:00 23.50833 C 14.65 g/m*3 23.51 C 1.06667 km/h
2219 26-07-2019 10:00:00 28.225 C 13.63 g/m*3 28.23 C 6.70833 km/h
2220 26-07-2019 11:00:00 32.05 C 13.14 g/m*3 32.05 C 4.4 km/h
2221 26-07-2019 12:00:00 34.35 C 13.18 g/m*3 34.35 C 8.85833 km/h
2222 26-07-2019 13:00:00 36.00833 C 12.88 g/m*3 36.01 C 9.55833 km/h
2223 26-07-2019 14:00:00 37.35833 C 11.94 g/m*3 37.36 C 7.10833 km/h
2224 26-07-2019 15:00:00 37.1 C 12.48 g/m*3 37.1 C 13.56667 km/h
2225 26-07-2019 16:00:00 35.28333 C 13.64 g/m*3 35.28 C 5.775 km/h
Sensor: Nr:Datum:Temp:Abs-Feuchte:Windchill:Wind:
Aussen-T/F 2226 26-07-2019 17:00:00 32.5 C 14.7 g/m*3 32.5 C 6.04167 km/h
2227 26-07-2019 18:00:00 30.44167 C 14.13 g/m*3 30.44 C 9.525 km/h
2228 26-07-2019 19:00:00 28.825 C 14.84 g/m*3 28.83 C 0.4 km/h
2229 26-07-2019 20:00:00 27.525 C 15.3 g/m*3 27.53 C 0 km/h
2230 26-07-2019 21:00:00 26.33333 C 14.72 g/m*3 26.33 C 0.4 km/h
2231 26-07-2019 22:00:00 25.5 C 14.7 g/m*3 25.5 C 0.26667 km/h
2232 26-07-2019 23:00:00 24.35833 C 14.82 g/m*3 24.36 C 0.26667 km/h
2233 27-07-2019 00:00:00 23.15 C 14.56 g/m*3 23.15 C 0.53333 km/h
2234 27-07-2019 01:00:00 22.63333 C 14.74 g/m*3 22.63 C 0 km/h
2235 27-07-2019 02:00:00 22.33333 C 14.87 g/m*3 22.33 C 0 km/h
2236 27-07-2019 03:00:00 22.59167 C 15.01 g/m*3 22.59 C 1.2 km/h
2237 27-07-2019 04:00:00 20.9 C 15.74 g/m*3 20.9 C 0 km/h
2238 27-07-2019 05:00:00 20.275 C 15.59 g/m*3 20.27 C 0 km/h
2239 27-07-2019 06:00:00 20.525 C 15.79 g/m*3 20.53 C 0.26667 km/h
2240 27-07-2019 07:00:00 21.25 C 16.39 g/m*3 21.25 C 0 km/h
2241 27-07-2019 08:00:00 22.575 C 16.33 g/m*3 22.58 C 1.6 km/h
2242 27-07-2019 09:00:00 24.725 C 16.66 g/m*3 24.73 C 3.6 km/h
2243 27-07-2019 10:00:00 24.64167 C 18.42 g/m*3 24.64 C 2.55 km/h
2244 27-07-2019 11:00:00 23.94167 C 18.78 g/m*3 23.94 C 0.53333 km/h
2245 27-07-2019 12:00:00 23.75 C 17.91 g/m*3 23.75 C 2 km/h
2246 27-07-2019 13:00:00 26 C 17.97 g/m*3 26 C 5.89167 km/h
2247 27-07-2019 14:00:00 25.725 C 17.04 g/m*3 25.73 C 4.675 km/h
2248 27-07-2019 15:00:00 25.04167 C 17.09 g/m*3 25.04 C 7.26667 km/h
2249 27-07-2019 16:00:00 25.96667 C 16.65 g/m*3 25.97 C 11.56667 km/h
2250 27-07-2019 17:00:00 24.49167 C 16.98 g/m*3 24.49 C 7.91667 km/h
Sensor: Nr:Datum:Temp:Abs-Feuchte:Windchill:Wind:
Aussen-T/F 2251 27-07-2019 18:00:00 24.90833 C 17.35 g/m*3 24.91 C 6.28333 km/h
2252 27-07-2019 19:00:00 23.84167 C 17.41 g/m*3 23.84 C 6.98333 km/h
2253 27-07-2019 20:00:00 22.88333 C 17.34 g/m*3 22.88 C 5.74167 km/h
2254 27-07-2019 21:00:00 22.075 C 16.7 g/m*3 22.08 C 6.975 km/h
2255 27-07-2019 22:00:00 21.45 C 16.39 g/m*3 21.45 C 7.93333 km/h
2256 27-07-2019 23:00:00 21.14167 C 16.39 g/m*3 21.14 C 3.21667 km/h
2257 28-07-2019 00:00:00 20.83333 C 16.31 g/m*3 20.83 C 2.8 km/h
2258 28-07-2019 01:00:00 20.70833 C 16.21 g/m*3 20.71 C 2.8 km/h
2259 28-07-2019 02:00:00 20.7 C 16.2 g/m*3 20.7 C 1.73333 km/h
2260 28-07-2019 03:00:00 20.68333 C 16.19 g/m*3 20.68 C 0.4 km/h
2261 28-07-2019 04:00:00 20.60833 C 16.26 g/m*3 20.61 C 0.93333 km/h
2262 28-07-2019 05:00:00 20.55 C 16.24 g/m*3 20.55 C 2.26667 km/h
2263 28-07-2019 06:00:00 20.54167 C 16.23 g/m*3 20.54 C 2.13333 km/h
2264 28-07-2019 07:00:00 20.69167 C 16.19 g/m*3 20.69 C 7.65 km/h
2265 28-07-2019 08:00:00 20.71667 C 16.05 g/m*3 20.72 C 8.34167 km/h
2266 28-07-2019 09:00:00 20.425 C 16 g/m*3 20.43 C 8.34167 km/h
2267 28-07-2019 10:00:00 20.025 C 15.89 g/m*3 20.02 C 8.05833 km/h
2268 28-07-2019 11:00:00 20.08333 C 15.95 g/m*3 20.08 C 5.89167 km/h
2269 28-07-2019 12:00:00 20.50833 C 15.64 g/m*3 20.51 C 7.8 km/h
2270 28-07-2019 13:00:00 20.30833 C 15.37 g/m*3 20.31 C 6.45 km/h
2271 28-07-2019 14:00:00 19.98333 C 15.41 g/m*3 19.98 C 6.56667 km/h
2272 28-07-2019 15:00:00 19.90833 C 15.16 g/m*3 19.91 C 7.79167 km/h
2273 28-07-2019 16:00:00 19.81667 C 14.99 g/m*3 19.82 C 5.9 km/h
2274 28-07-2019 17:00:00 19.45833 C 15.04 g/m*3 19.46 C 3.625 km/h
2275 28-07-2019 18:00:00 19.175 C 14.89 g/m*3 19.18 C 3.475 km/h
Sensor: Nr:Datum:Temp:Abs-Feuchte:Windchill:Wind:
Aussen-T/F 2276 28-07-2019 19:00:00 18.875 C 14.81 g/m*3 18.88 C 0.26667 km/h
2277 28-07-2019 20:00:00 18.5 C 14.67 g/m*3 18.5 C 0 km/h
2278 28-07-2019 21:00:00 18.175 C 14.56 g/m*3 18.18 C 0 km/h
2279 28-07-2019 22:00:00 17.90833 C 14.47 g/m*3 17.91 C 0.4 km/h
2280 28-07-2019 23:00:00 17.6 C 14.25 g/m*3 17.6 C 0 km/h
2281 29-07-2019 00:00:00 17.325 C 14.02 g/m*3 17.33 C 0.13333 km/h
2282 29-07-2019 01:00:00 17.10833 C 13.84 g/m*3 17.11 C 1.33333 km/h
2283 29-07-2019 02:00:00 16.975 C 13.83 g/m*3 16.98 C 0 km/h
2284 29-07-2019 03:00:00 16.84167 C 13.76 g/m*3 16.84 C 0 km/h
2285 29-07-2019 04:00:00 16.80833 C 13.73 g/m*3 16.81 C 0 km/h
2286 29-07-2019 05:00:00 16.74167 C 13.68 g/m*3 16.74 C 0 km/h
2287 29-07-2019 06:00:00 16.725 C 13.66 g/m*3 16.73 C 0 km/h
2288 29-07-2019 07:00:00 16.99167 C 13.85 g/m*3 16.99 C 2.13333 km/h
2289 29-07-2019 08:00:00 17.46667 C 13.78 g/m*3 17.47 C 1.33333 km/h
2290 29-07-2019 09:00:00 18.49167 C 13.65 g/m*3 18.49 C 6.04167 km/h
2291 29-07-2019 10:00:00 19.39167 C 13.23 g/m*3 19.39 C 6.01667 km/h
2292 29-07-2019 11:00:00 20.475 C 13.1 g/m*3 20.48 C 6.84167 km/h
2293 29-07-2019 12:00:00 21.95 C 12.85 g/m*3 21.95 C 7.94167 km/h
2294 29-07-2019 13:00:00 23.25 C 12.93 g/m*3 23.25 C 8.2 km/h
2295 29-07-2019 14:00:00 24.41667 C 12.81 g/m*3 24.42 C 6.58333 km/h
2296 29-07-2019 15:00:00 25.83333 C 12.4 g/m*3 25.83 C 10.88333 km/h
2297 29-07-2019 16:00:00 27.6 C 12.17 g/m*3 27.6 C 7.79167 km/h
2298 29-07-2019 17:00:00 28.23333 C 11.91 g/m*3 28.23 C 7.79167 km/h
2299 29-07-2019 18:00:00 27.70833 C 11.64 g/m*3 27.71 C 4.94167 km/h
2300 29-07-2019 19:00:00 28.1 C 11.85 g/m*3 28.1 C 6.29167 km/h
Sensor: Nr:Datum:Temp:Abs-Feuchte:Windchill:Wind:
Aussen-T/F 2301 29-07-2019 20:00:00 26.33333 C 12.19 g/m*3 26.33 C 3.475 km/h
2302 29-07-2019 21:00:00 23.05833 C 12.72 g/m*3 23.06 C 0 km/h
2303 29-07-2019 22:00:00 20.75833 C 12.58 g/m*3 20.76 C 0 km/h
2304 29-07-2019 23:00:00 19.34167 C 12.57 g/m*3 19.34 C 0 km/h
2305 30-07-2019 00:00:00 17.95 C 12.42 g/m*3 17.95 C 0 km/h
2306 30-07-2019 01:00:00 17.425 C 12.39 g/m*3 17.43 C 0 km/h
2307 30-07-2019 02:00:00 16.6 C 12.08 g/m*3 16.6 C 0 km/h
2308 30-07-2019 03:00:00 15.875 C 11.92 g/m*3 15.88 C 0 km/h
2309 30-07-2019 04:00:00 15.4 C 11.84 g/m*3 15.4 C 0 km/h
2310 30-07-2019 05:00:00 15.03333 C 11.76 g/m*3 15.03 C 0 km/h
2311 30-07-2019 06:00:00 14.725 C 11.71 g/m*3 14.73 C 0 km/h
2312 30-07-2019 07:00:00 14.93333 C 11.98 g/m*3 14.93 C 0 km/h
2313 30-07-2019 08:00:00 15.88333 C 12.71 g/m*3 15.88 C 0 km/h
2314 30-07-2019 09:00:00 17.4 C 13.61 g/m*3 17.4 C 0 km/h
2315 30-07-2019 10:00:00 20.275 C 14.44 g/m*3 20.27 C 0 km/h
2316 30-07-2019 11:00:00 24.96667 C 13.31 g/m*3 24.97 C 9.80833 km/h
2317 30-07-2019 12:00:00 27.025 C 11.73 g/m*3 27.03 C 13.3 km/h
2318 30-07-2019 13:00:00 28.24167 C 10.82 g/m*3 28.24 C 11.43333 km/h
2319 30-07-2019 14:00:00 29.49167 C 11.11 g/m*3 29.49 C 13.43333 km/h
2320 30-07-2019 15:00:00 30.69167 C 11.36 g/m*3 30.69 C 15.83333 km/h
2321 30-07-2019 16:00:00 31.20833 C 11.08 g/m*3 31.21 C 16.5 km/h
2322 30-07-2019 17:00:00 29.30833 C 11.05 g/m*3 29.31 C 17.56667 km/h
2323 30-07-2019 18:00:00 26.625 C 10.27 g/m*3 26.63 C 12.48333 km/h
2324 30-07-2019 19:00:00 24.55833 C 11.47 g/m*3 24.56 C 10.21667 km/h
2325 30-07-2019 20:00:00 24.09167 C 12.06 g/m*3 24.09 C 6.16667 km/h
Sensor: Nr:Datum:Temp:Abs-Feuchte:Windchill:Wind:
Aussen-T/F 2326 30-07-2019 21:00:00 23.675 C 12.12 g/m*3 23.68 C 0 km/h
2327 30-07-2019 22:00:00 22.20833 C 12.33 g/m*3 22.21 C 0 km/h
2328 30-07-2019 23:00:00 21.175 C 12.58 g/m*3 21.18 C 0 km/h
2329 31-07-2019 00:00:00 20.55 C 12.46 g/m*3 20.55 C 0 km/h
2330 31-07-2019 01:00:00 20.325 C 12.51 g/m*3 20.33 C 1.06667 km/h
2331 31-07-2019 02:00:00 19.70833 C 12.18 g/m*3 19.71 C 0 km/h
2332 31-07-2019 03:00:00 18.63333 C 11.97 g/m*3 18.63 C 0.26667 km/h
2333 31-07-2019 04:00:00 18.575 C 12.24 g/m*3 18.58 C 0.93333 km/h
2334 31-07-2019 05:00:00 17.83333 C 11.86 g/m*3 17.83 C 0 km/h
2335 31-07-2019 06:00:00 17.64167 C 11.79 g/m*3 17.64 C 0 km/h
2336 31-07-2019 07:00:00 17.375 C 11.83 g/m*3 17.38 C 0.26667 km/h
2337 31-07-2019 08:00:00 18.44167 C 11.89 g/m*3 18.44 C 4.825 km/h
2338 31-07-2019 09:00:00 20.01667 C 11.71 g/m*3 20.02 C 10.74167 km/h
2339 31-07-2019 10:00:00 21.35833 C 10.99 g/m*3 21.36 C 13.16667 km/h
2340 31-07-2019 11:00:00 21.60833 C 10.48 g/m*3 21.61 C 13.55833 km/h
2341 31-07-2019 12:00:00 22.66667 C 10.25 g/m*3 22.67 C 16.63333 km/h
2342 31-07-2019 13:00:00 23.69167 C 10.05 g/m*3 23.69 C 15.3 km/h
2343 31-07-2019 14:00:00 24.76667 C 9.64 g/m*3 24.77 C 14.23333 km/h
2344 31-07-2019 15:00:00 25.55 C 9.52 g/m*3 25.55 C 14.09167 km/h
2345 31-07-2019 16:00:00 24.95833 C 9.72 g/m*3 24.96 C 13.7 km/h
2346 31-07-2019 17:00:00 25.25 C 10.02 g/m*3 25.25 C 14.23333 km/h
2347 31-07-2019 18:00:00 23.875 C 10.17 g/m*3 23.88 C 8.06667 km/h
2348 31-07-2019 19:00:00 23.49167 C 10.25 g/m*3 23.49 C 6.975 km/h
2349 31-07-2019 20:00:00 22.09167 C 10.88 g/m*3 22.09 C 1.46667 km/h
2350 31-07-2019 21:00:00 19.925 C 10.27 g/m*3 19.93 C 0 km/h
Sensor: Nr:Datum:Temp:Abs-Feuchte:Windchill:Wind:
Aussen-T/F 2351 31-07-2019 22:00:00 18.68333 C 9.76 g/m*3 18.68 C 0.4 km/h
2352 31-07-2019 23:00:00 18.45 C 9.95 g/m*3 18.45 C 0.4 km/h
2353 01-08-2019 00:00:00 16.88333 C 10.09 g/m*3 16.88 C 0.4 km/h
2354 01-08-2019 01:00:00 15.525 C 9.93 g/m*3 15.53 C 0.13333 km/h
2355 01-08-2019 02:00:00 14.73333 C 9.96 g/m*3 14.73 C 0.4 km/h
2356 01-08-2019 03:00:00 14.15833 C 9.87 g/m*3 14.16 C 0.26667 km/h
2357 01-08-2019 04:00:00 12.95833 C 9.61 g/m*3 12.96 C 0.66667 km/h
2358 01-08-2019 05:00:00 12.625 C 9.62 g/m*3 12.63 C 0.4 km/h
2359 01-08-2019 06:00:00 12.125 C 9.51 g/m*3 12.13 C 0 km/h
2360 01-08-2019 07:00:00 12.55833 C 9.84 g/m*3 12.56 C 0.4 km/h
2361 01-08-2019 08:00:00 15.175 C 10.56 g/m*3 15.18 C 0.93333 km/h
2362 01-08-2019 09:00:00 17.56667 C 11.01 g/m*3 17.57 C 5.075 km/h
2363 01-08-2019 10:00:00 20.3 C 10.98 g/m*3 20.3 C 10.5 km/h
2364 01-08-2019 11:00:00 21.775 C 10.68 g/m*3 21.78 C 11.825 km/h
2365 01-08-2019 12:00:00 22.45 C 10.66 g/m*3 22.45 C 9.275 km/h
2366 01-08-2019 13:00:00 23.16667 C 11 g/m*3 23.17 C 6.43333 km/h
2367 01-08-2019 14:00:00 24.15 C 10.84 g/m*3 24.15 C 8.60833 km/h
2368 01-08-2019 15:00:00 24.575 C 10.99 g/m*3 24.58 C 8.45833 km/h
2369 01-08-2019 16:00:00 24.4 C 11.13 g/m*3 24.4 C 7.375 km/h
2370 01-08-2019 17:00:00 25.13333 C 11.06 g/m*3 25.13 C 6.28333 km/h
2371 01-08-2019 18:00:00 26.35 C 11.11 g/m*3 26.35 C 7.53333 km/h
2372 01-08-2019 19:00:00 26.26667 C 11.16 g/m*3 26.27 C 6.025 km/h
2373 01-08-2019 20:00:00 24.10833 C 11.78 g/m*3 24.11 C 2.53333 km/h
2374 01-08-2019 21:00:00 21.15 C 11.58 g/m*3 21.15 C 0 km/h
2375 01-08-2019 22:00:00 19.76667 C 11.54 g/m*3 19.77 C 0 km/h
Sensor: Nr:Datum:Temp:Abs-Feuchte:Windchill:Wind:
Aussen-T/F 2376 01-08-2019 23:00:00 19.24167 C 11.5 g/m*3 19.24 C 0 km/h
2377 02-08-2019 00:00:00 18.81667 C 11.81 g/m*3 18.82 C 0 km/h
2378 02-08-2019 01:00:00 18.34167 C 11.86 g/m*3 18.34 C 0 km/h
2379 02-08-2019 02:00:00 17.86667 C 11.71 g/m*3 17.87 C 0 km/h
2380 02-08-2019 03:00:00 16.94167 C 11.49 g/m*3 16.94 C 0 km/h
2381 02-08-2019 04:00:00 16.31667 C 11.46 g/m*3 16.32 C 0 km/h
2382 02-08-2019 05:00:00 16.2 C 11.54 g/m*3 16.2 C 0 km/h
2383 02-08-2019 06:00:00 16.25 C 11.76 g/m*3 16.25 C 0 km/h
2384 02-08-2019 07:00:00 16.925 C 12.17 g/m*3 16.93 C 0 km/h
2385 02-08-2019 08:00:00 17.93333 C 12.6 g/m*3 17.93 C 0 km/h
2386 02-08-2019 09:00:00 19.35 C 12.96 g/m*3 19.35 C 0 km/h
2387 02-08-2019 10:00:00 20.71667 C 13 g/m*3 20.72 C 0 km/h
2388 02-08-2019 11:00:00 22.16667 C 12.7 g/m*3 22.17 C 4.96667 km/h
2389 02-08-2019 12:00:00 21.275 C 14.05 g/m*3 21.28 C 4.03333 km/h
2390 02-08-2019 13:00:00 21.125 C 13.15 g/m*3 21.13 C 2.94167 km/h
2391 02-08-2019 14:00:00 23.16667 C 12.81 g/m*3 23.17 C 5.625 km/h
2392 02-08-2019 15:00:00 24.58333 C 12.67 g/m*3 24.58 C 7.38333 km/h
2393 02-08-2019 16:00:00 25.59167 C 12.16 g/m*3 25.59 C 5.24167 km/h
2394 02-08-2019 17:00:00 26.725 C 11.66 g/m*3 26.73 C 7.925 km/h
2395 02-08-2019 18:00:00 25.00833 C 12.3 g/m*3 25.01 C 11.95833 km/h
2396 02-08-2019 19:00:00 23.7 C 11.73 g/m*3 23.7 C 8.45833 km/h
2397 02-08-2019 20:00:00 22.45833 C 12.04 g/m*3 22.46 C 1.6 km/h
2398 02-08-2019 21:00:00 21.275 C 11.83 g/m*3 21.28 C 4.425 km/h
2399 02-08-2019 22:00:00 20.95 C 11.93 g/m*3 20.95 C 9.80833 km/h
2400 02-08-2019 23:00:00 18.975 C 12.83 g/m*3 18.98 C 4.96667 km/h
Sensor: Nr:Datum:Temp:Abs-Feuchte:Windchill:Wind:
Aussen-T/F 2401 03-08-2019 00:00:00 17.75833 C 12.77 g/m*3 17.76 C 5.91667 km/h
2402 03-08-2019 01:00:00 18.28333 C 12.89 g/m*3 18.28 C 10.89167 km/h
2403 03-08-2019 02:00:00 18.24167 C 13.15 g/m*3 18.24 C 11.29167 km/h
2404 03-08-2019 03:00:00 18.2 C 13.32 g/m*3 18.2 C 8.05833 km/h
2405 03-08-2019 04:00:00 18.15 C 13.47 g/m*3 18.15 C 7.225 km/h
2406 03-08-2019 05:00:00 18.14167 C 13.48 g/m*3 18.14 C 6.31667 km/h
2407 03-08-2019 06:00:00 17.89167 C 13.32 g/m*3 17.89 C 5.75833 km/h
2408 03-08-2019 07:00:00 17.84167 C 13.03 g/m*3 17.84 C 6.84167 km/h
2409 03-08-2019 08:00:00 17.95 C 12.94 g/m*3 17.95 C 8.60833 km/h
2410 03-08-2019 09:00:00 18.6 C 12.61 g/m*3 18.6 C 11.96667 km/h
2411 03-08-2019 10:00:00 19.61667 C 12.76 g/m*3 19.62 C 11.3 km/h
2412 03-08-2019 11:00:00 20.35833 C 12.91 g/m*3 20.36 C 11.16667 km/h
2413 03-08-2019 12:00:00 21.55833 C 12.66 g/m*3 21.56 C 10.76667 km/h
2414 03-08-2019 13:00:00 22.05 C 12.91 g/m*3 22.05 C 11.00833 km/h
2415 03-08-2019 14:00:00 22.20833 C 12.93 g/m*3 22.21 C 10.49167 km/h
2416 03-08-2019 15:00:00 23.80833 C 12.48 g/m*3 23.81 C 12.35833 km/h
2417 03-08-2019 16:00:00 25.16667 C 12.35 g/m*3 25.17 C 12.36667 km/h
2418 03-08-2019 17:00:00 25.49167 C 12.07 g/m*3 25.49 C 12.63333 km/h
2419 03-08-2019 18:00:00 25.46667 C 12.05 g/m*3 25.47 C 11.825 km/h
2420 03-08-2019 19:00:00 24.30833 C 12.07 g/m*3 24.31 C 11.15833 km/h
2421 03-08-2019 20:00:00 22.61667 C 12.03 g/m*3 22.62 C 7.39167 km/h
2422 03-08-2019 21:00:00 20.55833 C 11.74 g/m*3 20.56 C 3.875 km/h
2423 03-08-2019 22:00:00 18.10833 C 11.47 g/m*3 18.11 C 0.13333 km/h
2424 03-08-2019 23:00:00 17.05 C 11.51 g/m*3 17.05 C 0 km/h
2425 04-08-2019 00:00:00 16.225 C 11.3 g/m*3 16.23 C 0 km/h
Sensor: Nr:Datum:Temp:Abs-Feuchte:Windchill:Wind:
Aussen-T/F 2426 04-08-2019 01:00:00 15.125 C 11.05 g/m*3 15.13 C 0 km/h
2427 04-08-2019 02:00:00 14 C 10.71 g/m*3 14 C 0 km/h
2428 04-08-2019 03:00:00 13.3 C 10.5 g/m*3 13.3 C 0 km/h
2429 04-08-2019 04:00:00 12.88333 C 10.37 g/m*3 12.88 C 0 km/h
2430 04-08-2019 05:00:00 12.49167 C 10.22 g/m*3 12.49 C 0 km/h
2431 04-08-2019 06:00:00 12.34167 C 10.22 g/m*3 12.34 C 0 km/h
2432 04-08-2019 07:00:00 12.725 C 10.53 g/m*3 12.73 C 0 km/h
2433 04-08-2019 08:00:00 13.73333 C 11.27 g/m*3 13.73 C 0 km/h
2434 04-08-2019 09:00:00 15.34167 C 12.19 g/m*3 15.34 C 0.66667 km/h
2435 04-08-2019 10:00:00 18.10833 C 12.88 g/m*3 18.11 C 3.33333 km/h
2436 04-08-2019 11:00:00 21.31667 C 12.59 g/m*3 21.32 C 5.34167 km/h
2437 04-08-2019 12:00:00 23.3 C 12.44 g/m*3 23.3 C 7.23333 km/h
2438 04-08-2019 13:00:00 24.75 C 12.18 g/m*3 24.75 C 6.01667 km/h
2439 04-08-2019 14:00:00 25.86667 C 11.74 g/m*3 25.87 C 6.7 km/h
2440 04-08-2019 15:00:00 28.225 C 11.2 g/m*3 28.23 C 8.45833 km/h
2441 04-08-2019 16:00:00 30.03333 C 10.48 g/m*3 30.03 C 9.4 km/h
2442 04-08-2019 17:00:00 30.95833 C 10.24 g/m*3 30.96 C 8.45833 km/h
2443 04-08-2019 18:00:00 30.79167 C 10.68 g/m*3 30.79 C 7.25 km/h
2444 04-08-2019 19:00:00 28.75833 C 11.81 g/m*3 28.76 C 2.00833 km/h
2445 04-08-2019 20:00:00 25.78333 C 12.49 g/m*3 25.78 C 0 km/h
2446 04-08-2019 21:00:00 22.51667 C 12.06 g/m*3 22.52 C 0.26667 km/h
2447 04-08-2019 22:00:00 21.95833 C 12.33 g/m*3 21.96 C 1.06667 km/h
2448 04-08-2019 23:00:00 22.39167 C 12.16 g/m*3 22.39 C 2.53333 km/h
2449 05-08-2019 00:00:00 22.875 C 11.8 g/m*3 22.88 C 1.46667 km/h
2450 05-08-2019 01:00:00 21.65833 C 11.88 g/m*3 21.66 C 0 km/h
Sensor: Nr:Datum:Temp:Abs-Feuchte:Windchill:Wind:
Aussen-T/F 2451 05-08-2019 02:00:00 20.28333 C 11.74 g/m*3 20.28 C 0 km/h
2452 05-08-2019 03:00:00 19.6 C 11.76 g/m*3 19.6 C 0.26667 km/h
2453 05-08-2019 04:00:00 19.31667 C 12.58 g/m*3 19.32 C 0 km/h
2454 05-08-2019 05:00:00 19.325 C 12.96 g/m*3 19.33 C 1.74167 km/h
2455 05-08-2019 06:00:00 18.28333 C 13.64 g/m*3 18.28 C 1.06667 km/h
2456 05-08-2019 07:00:00 17.53333 C 13.79 g/m*3 17.53 C 1.46667 km/h
2457 05-08-2019 08:00:00 17.64167 C 14.21 g/m*3 17.64 C 0.53333 km/h
2458 05-08-2019 09:00:00 18.75 C 15.24 g/m*3 18.75 C 0.66667 km/h
2459 05-08-2019 10:00:00 20.08333 C 16.08 g/m*3 20.08 C 1.06667 km/h
2460 05-08-2019 11:00:00 21.99167 C 16.31 g/m*3 21.99 C 1.86667 km/h
2461 05-08-2019 12:00:00 24.25 C 15.17 g/m*3 24.25 C 12.89167 km/h
2462 05-08-2019 13:00:00 26 C 14.55 g/m*3 26 C 12.5 km/h
2463 05-08-2019 14:00:00 27.11667 C 14.16 g/m*3 27.12 C 11.56667 km/h
2464 05-08-2019 15:00:00 28.375 C 12.91 g/m*3 28.38 C 10.9 km/h
2465 05-08-2019 16:00:00 28.875 C 11.79 g/m*3 28.88 C 12.23333 km/h
2466 05-08-2019 17:00:00 28.225 C 11.59 g/m*3 28.23 C 11.43333 km/h
2467 05-08-2019 18:00:00 27.7 C 11.28 g/m*3 27.7 C 9.15833 km/h
2468 05-08-2019 19:00:00 26.7 C 11.75 g/m*3 26.7 C 5.89167 km/h
2469 05-08-2019 20:00:00 25.1 C 12.4 g/m*3 25.1 C 1.6 km/h
2470 05-08-2019 21:00:00 22.075 C 11.92 g/m*3 22.08 C 0 km/h
2471 05-08-2019 22:00:00 20.53333 C 12.36 g/m*3 20.53 C 0 km/h
2472 05-08-2019 23:00:00 19.28333 C 12.26 g/m*3 19.28 C 0 km/h
2473 06-08-2019 00:00:00 18.00833 C 12.02 g/m*3 18.01 C 0 km/h
2474 06-08-2019 01:00:00 17.10833 C 11.86 g/m*3 17.11 C 0 km/h
2475 06-08-2019 02:00:00 17.00833 C 12 g/m*3 17.01 C 0 km/h
Sensor: Nr:Datum:Temp:Abs-Feuchte:Windchill:Wind:
Aussen-T/F 2476 06-08-2019 03:00:00 17.45833 C 12.36 g/m*3 17.46 C 0.8 km/h
2477 06-08-2019 04:00:00 17.20833 C 12.28 g/m*3 17.21 C 0.26667 km/h
2478 06-08-2019 05:00:00 16.60833 C 12.11 g/m*3 16.61 C 0.13333 km/h
2479 06-08-2019 06:00:00 16.66667 C 12.28 g/m*3 16.67 C 0.13333 km/h
2480 06-08-2019 07:00:00 17.83333 C 12.66 g/m*3 17.83 C 2.40833 km/h
2481 06-08-2019 08:00:00 18.675 C 12.96 g/m*3 18.68 C 3.475 km/h
2482 06-08-2019 09:00:00 20.1 C 13.3 g/m*3 20.1 C 6.29167 km/h
2483 06-08-2019 10:00:00 19.91667 C 14.4 g/m*3 19.92 C 2.14167 km/h
2484 06-08-2019 11:00:00 19.65 C 15.1 g/m*3 19.65 C 0.8 km/h
2485 06-08-2019 12:00:00 21.31667 C 15.35 g/m*3 21.32 C 4.40833 km/h
2486 06-08-2019 13:00:00 22.325 C 15.31 g/m*3 22.33 C 7.66667 km/h
2487 06-08-2019 14:00:00 23.61667 C 14.87 g/m*3 23.62 C 13.43333 km/h
2488 06-08-2019 15:00:00 24.725 C 14.68 g/m*3 24.73 C 11.825 km/h
2489 06-08-2019 16:00:00 25.39167 C 14.57 g/m*3 25.39 C 10.63333 km/h
2490 06-08-2019 17:00:00 26.4 C 14.31 g/m*3 26.4 C 10.09167 km/h
2491 06-08-2019 18:00:00 25.20833 C 14.4 g/m*3 25.21 C 4.84167 km/h
2492 06-08-2019 19:00:00 22.54167 C 15.37 g/m*3 22.54 C 6.16667 km/h
2493 06-08-2019 20:00:00 19.05 C 14.78 g/m*3 19.05 C 0.13333 km/h
2494 06-08-2019 21:00:00 18.00833 C 14.32 g/m*3 18.01 C 0.53333 km/h
2495 06-08-2019 22:00:00 17.51667 C 14.03 g/m*3 17.52 C 0.13333 km/h
2496 06-08-2019 23:00:00 17.08333 C 13.8 g/m*3 17.08 C 1.075 km/h
2497 07-08-2019 00:00:00 16.68333 C 13.49 g/m*3 16.68 C 0.13333 km/h
2498 07-08-2019 01:00:00 16.3 C 13.25 g/m*3 16.3 C 0 km/h
2499 07-08-2019 02:00:00 16.45833 C 13.45 g/m*3 16.46 C 1.2 km/h
2500 07-08-2019 03:00:00 16.58333 C 13.58 g/m*3 16.58 C 0 km/h
Sensor: Nr:Datum:Temp:Abs-Feuchte:Windchill:Wind:
Aussen-T/F 2501 07-08-2019 04:00:00 16.63333 C 13.73 g/m*3 16.63 C 0 km/h
2502 07-08-2019 05:00:00 16.66667 C 13.76 g/m*3 16.67 C 0 km/h
2503 07-08-2019 06:00:00 16.875 C 13.93 g/m*3 16.88 C 0.13333 km/h
2504 07-08-2019 07:00:00 17.25 C 14.25 g/m*3 17.25 C 0.26667 km/h
2505 07-08-2019 08:00:00 17.75833 C 14.69 g/m*3 17.76 C 0.66667 km/h
2506 07-08-2019 09:00:00 18.25 C 15.12 g/m*3 18.25 C 4.15 km/h
2507 07-08-2019 10:00:00 18.96667 C 15.68 g/m*3 18.97 C 1.6 km/h
2508 07-08-2019 11:00:00 19.725 C 15.83 g/m*3 19.73 C 2.275 km/h
2509 07-08-2019 12:00:00 20.83333 C 15.33 g/m*3 20.83 C 3.88333 km/h
2510 07-08-2019 13:00:00 21.85833 C 14.69 g/m*3 21.86 C 5.76667 km/h
2511 07-08-2019 14:00:00 22.525 C 15.07 g/m*3 22.53 C 7.375 km/h
2512 07-08-2019 15:00:00 22.59167 C 14.64 g/m*3 22.59 C 10.48333 km/h
2513 07-08-2019 16:00:00 22.08333 C 14.2 g/m*3 22.08 C 9.7 km/h
2514 07-08-2019 17:00:00 22.53333 C 14.26 g/m*3 22.53 C 8.35 km/h
2515 07-08-2019 18:00:00 23.35833 C 14.35 g/m*3 23.36 C 8.75 km/h
2516 07-08-2019 19:00:00 22.38333 C 14.63 g/m*3 22.38 C 4.03333 km/h
2517 07-08-2019 20:00:00 20.05833 C 14.48 g/m*3 20.06 C 2.55 km/h
2518 07-08-2019 21:00:00 18.05 C 13.36 g/m*3 18.05 C 0.8 km/h
2519 07-08-2019 22:00:00 16.74167 C 12.79 g/m*3 16.74 C 0.53333 km/h
2520 07-08-2019 23:00:00 16.64167 C 12.63 g/m*3 16.64 C 1.06667 km/h
2521 08-08-2019 00:00:00 15.76667 C 12.28 g/m*3 15.77 C 1.88333 km/h
2522 08-08-2019 01:00:00 16.35 C 12.8 g/m*3 16.35 C 1.6 km/h
2523 08-08-2019 02:00:00 16.45 C 12.88 g/m*3 16.45 C 0.66667 km/h
2524 08-08-2019 03:00:00 16.44167 C 12.86 g/m*3 16.44 C 2.00833 km/h
2525 08-08-2019 04:00:00 16.06667 C 12.68 g/m*3 16.07 C 0.13333 km/h
Sensor: Nr:Datum:Temp:Abs-Feuchte:Windchill:Wind:
Aussen-T/F 2526 08-08-2019 05:00:00 15.31667 C 12.19 g/m*3 15.32 C 0.53333 km/h
2527 08-08-2019 06:00:00 15.7 C 12.58 g/m*3 15.7 C 4.40833 km/h
2528 08-08-2019 07:00:00 15.95 C 12.71 g/m*3 15.95 C 1.73333 km/h
2529 08-08-2019 08:00:00 17.05833 C 13.24 g/m*3 17.06 C 8.75833 km/h
2530 08-08-2019 09:00:00 18.55833 C 13.35 g/m*3 18.56 C 8.20833 km/h
2531 08-08-2019 10:00:00 20.05833 C 12.66 g/m*3 20.06 C 11.29167 km/h
2532 08-08-2019 11:00:00 21.74167 C 12.57 g/m*3 21.74 C 11.825 km/h
2533 08-08-2019 12:00:00 22.99167 C 12.57 g/m*3 22.99 C 15.56667 km/h
2534 08-08-2019 13:00:00 24.025 C 12.51 g/m*3 24.03 C 11.95833 km/h
2535 08-08-2019 14:00:00 24.20833 C 12.62 g/m*3 24.21 C 10.1 km/h
2536 08-08-2019 15:00:00 24.51667 C 12.81 g/m*3 24.52 C 7.51667 km/h
2537 08-08-2019 16:00:00 26.58333 C 12.93 g/m*3 26.58 C 12.1 km/h
2538 08-08-2019 17:00:00 27.18333 C 12.52 g/m*3 27.18 C 11.15833 km/h
2539 08-08-2019 18:00:00 27.46667 C 12.5 g/m*3 27.47 C 8.875 km/h
2540 08-08-2019 19:00:00 25.43333 C 14.64 g/m*3 25.43 C 0.94167 km/h
2541 08-08-2019 20:00:00 23.575 C 14.35 g/m*3 23.58 C 0 km/h
2542 08-08-2019 21:00:00 20.625 C 13.7 g/m*3 20.63 C 0 km/h
2543 08-08-2019 22:00:00 19.15833 C 13.68 g/m*3 19.16 C 0 km/h
2544 08-08-2019 23:00:00 18.16667 C 13.57 g/m*3 18.17 C 0 km/h
2545 09-08-2019 00:00:00 17.15833 C 13.06 g/m*3 17.16 C 0 km/h
2546 09-08-2019 01:00:00 16.25833 C 12.63 g/m*3 16.26 C 0 km/h
2547 09-08-2019 02:00:00 15.875 C 12.44 g/m*3 15.88 C 0 km/h
2548 09-08-2019 03:00:00 15.21667 C 12.05 g/m*3 15.22 C 0 km/h
2549 09-08-2019 04:00:00 14.725 C 11.81 g/m*3 14.73 C 0 km/h
2550 09-08-2019 05:00:00 14.44167 C 11.66 g/m*3 14.44 C 0 km/h
Sensor: Nr:Datum:Temp:Abs-Feuchte:Windchill:Wind:
Aussen-T/F 2551 09-08-2019 06:00:00 14.56667 C 11.86 g/m*3 14.57 C 0 km/h
2552 09-08-2019 07:00:00 15.40833 C 12.53 g/m*3 15.41 C 0 km/h
2553 09-08-2019 08:00:00 16.44167 C 13.04 g/m*3 16.44 C 0.53333 km/h
2554 09-08-2019 09:00:00 18.26667 C 13.71 g/m*3 18.27 C 0 km/h
2555 09-08-2019 10:00:00 20.60833 C 14.46 g/m*3 20.61 C 0 km/h
2556 09-08-2019 11:00:00 23.8 C 15.4 g/m*3 23.8 C 0.26667 km/h
2557 09-08-2019 12:00:00 25.26667 C 15.38 g/m*3 25.27 C 0.26667 km/h
2558 09-08-2019 13:00:00 25.275 C 15.53 g/m*3 25.28 C 0.13333 km/h
2559 09-08-2019 14:00:00 24.75 C 17.55 g/m*3 24.75 C 0 km/h
2560 09-08-2019 15:00:00 24.43333 C 18.3 g/m*3 24.43 C 0.26667 km/h
2561 09-08-2019 16:00:00 27.25 C 18.24 g/m*3 27.25 C 4.55833 km/h
2562 09-08-2019 17:00:00 25.45 C 19.24 g/m*3 25.45 C 0.8 km/h
2563 09-08-2019 18:00:00 22.78333 C 18.05 g/m*3 22.78 C 1.33333 km/h
2564 09-08-2019 19:00:00 21.5 C 17.55 g/m*3 21.5 C 8.59167 km/h
2565 09-08-2019 20:00:00 19.63333 C 15.91 g/m*3 19.63 C 0.93333 km/h
2566 09-08-2019 21:00:00 19.31667 C 15.86 g/m*3 19.32 C 0.93333 km/h
2567 09-08-2019 22:00:00 19.30833 C 15.93 g/m*3 19.31 C 0.26667 km/h
2568 09-08-2019 23:00:00 18.86667 C 15.52 g/m*3 18.87 C 0.13333 km/h
2569 10-08-2019 00:00:00 18.775 C 15.53 g/m*3 18.77 C 0.26667 km/h
2570 10-08-2019 01:00:00 18.73333 C 15.55 g/m*3 18.73 C 0 km/h
2571 10-08-2019 02:00:00 18.50833 C 15.35 g/m*3 18.51 C 0 km/h
2572 10-08-2019 03:00:00 18.29167 C 15.16 g/m*3 18.29 C 0.4 km/h
2573 10-08-2019 04:00:00 18.11667 C 15 g/m*3 18.12 C 0 km/h
2574 10-08-2019 05:00:00 17.53333 C 14.49 g/m*3 17.53 C 0 km/h
2575 10-08-2019 06:00:00 17.45 C 14.42 g/m*3 17.45 C 0 km/h
Sensor: Nr:Datum:Temp:Abs-Feuchte:Windchill:Wind:
Aussen-T/F 2576 10-08-2019 07:00:00 17.33333 C 14.32 g/m*3 17.33 C 4.96667 km/h
2577 10-08-2019 08:00:00 17.41667 C 14.11 g/m*3 17.42 C 11.01667 km/h
2578 10-08-2019 09:00:00 19.125 C 14.12 g/m*3 19.13 C 14.76667 km/h
2579 10-08-2019 10:00:00 20.36667 C 14.04 g/m*3 20.37 C 14.36667 km/h
2580 10-08-2019 11:00:00 21.43333 C 13.96 g/m*3 21.43 C 13.7 km/h
2581 10-08-2019 12:00:00 22.38333 C 13.69 g/m*3 22.38 C 16.23333 km/h
2582 10-08-2019 13:00:00 23.26667 C 13.23 g/m*3 23.27 C 16.76667 km/h
2583 10-08-2019 14:00:00 23.83333 C 13.09 g/m*3 23.83 C 17.43333 km/h
2584 10-08-2019 15:00:00 24.99167 C 12.75 g/m*3 24.99 C 17.43333 km/h
2585 10-08-2019 16:00:00 25.24167 C 12.48 g/m*3 25.24 C 15.29167 km/h
2586 10-08-2019 17:00:00 26.29167 C 12.19 g/m*3 26.29 C 15.3 km/h
2587 10-08-2019 18:00:00 25.99167 C 11.94 g/m*3 25.99 C 13.43333 km/h
2588 10-08-2019 19:00:00 25.00833 C 11.44 g/m*3 25.01 C 10.89167 km/h
2589 10-08-2019 20:00:00 22.63333 C 12.33 g/m*3 22.63 C 2.275 km/h
2590 10-08-2019 21:00:00 19.41667 C 12.14 g/m*3 19.42 C 0.26667 km/h
2591 10-08-2019 22:00:00 17.71667 C 11.89 g/m*3 17.72 C 0 km/h
2592 10-08-2019 23:00:00 16.45833 C 11.49 g/m*3 16.46 C 0.13333 km/h
2593 11-08-2019 00:00:00 15.75833 C 11.39 g/m*3 15.76 C 0 km/h
2594 11-08-2019 01:00:00 15.375 C 11.46 g/m*3 15.38 C 0 km/h
2595 11-08-2019 02:00:00 15.7 C 11.57 g/m*3 15.7 C 0 km/h
2596 11-08-2019 03:00:00 15.20833 C 11.23 g/m*3 15.21 C 0 km/h
2597 11-08-2019 04:00:00 14.43333 C 10.94 g/m*3 14.43 C 0 km/h
2598 11-08-2019 05:00:00 13.58333 C 10.6 g/m*3 13.58 C 0 km/h
2599 11-08-2019 06:00:00 13.40833 C 10.78 g/m*3 13.41 C 0.26667 km/h
2600 11-08-2019 07:00:00 14.04167 C 11.16 g/m*3 14.04 C 0 km/h
Sensor: Nr:Datum:Temp:Abs-Feuchte:Windchill:Wind:
Aussen-T/F 2601 11-08-2019 08:00:00 14.9 C 11.64 g/m*3 14.9 C 0 km/h
2602 11-08-2019 09:00:00 16.21667 C 12.02 g/m*3 16.22 C 0.53333 km/h
2603 11-08-2019 10:00:00 19.375 C 11.62 g/m*3 19.38 C 9.00833 km/h
2604 11-08-2019 11:00:00 21.26667 C 11.02 g/m*3 21.27 C 11.825 km/h
2605 11-08-2019 12:00:00 22.09167 C 10.89 g/m*3 22.09 C 10.75833 km/h
2606 11-08-2019 13:00:00 22.775 C 10.37 g/m*3 22.78 C 14.5 km/h
2607 11-08-2019 14:00:00 22.89167 C 10.74 g/m*3 22.89 C 9.14167 km/h
2608 11-08-2019 15:00:00 21.50833 C 11.57 g/m*3 21.51 C 3.2 km/h
2609 11-08-2019 16:00:00 20.05 C 12.13 g/m*3 20.05 C 3.34167 km/h
2610 11-08-2019 17:00:00 17.18333 C 12.7 g/m*3 17.18 C 2.26667 km/h
2611 11-08-2019 18:00:00 16.475 C 12.68 g/m*3 16.48 C 1.73333 km/h
2612 11-08-2019 19:00:00 16.075 C 12.27 g/m*3 16.08 C 1.06667 km/h
2613 11-08-2019 20:00:00 15.775 C 12.23 g/m*3 15.78 C 0.26667 km/h
2614 11-08-2019 21:00:00 15.23333 C 11.93 g/m*3 15.23 C 0.8 km/h
2615 11-08-2019 22:00:00 14.3 C 11.28 g/m*3 14.3 C 0.66667 km/h
2616 11-08-2019 23:00:00 14.24167 C 11.43 g/m*3 14.24 C 1.46667 km/h
2617 12-08-2019 00:00:00 14.85833 C 11.77 g/m*3 14.86 C 2.4 km/h
2618 12-08-2019 01:00:00 14.325 C 11.33 g/m*3 14.33 C 1.33333 km/h
2619 12-08-2019 02:00:00 13.66667 C 11.04 g/m*3 13.67 C 0.26667 km/h
2620 12-08-2019 03:00:00 13.125 C 10.74 g/m*3 13.13 C 0 km/h
2621 12-08-2019 04:00:00 12.89167 C 10.7 g/m*3 12.89 C 0 km/h
2622 12-08-2019 05:00:00 12.675 C 10.56 g/m*3 12.68 C 0 km/h
2623 12-08-2019 06:00:00 12.69167 C 10.63 g/m*3 12.69 C 0 km/h
2624 12-08-2019 07:00:00 13.05833 C 10.93 g/m*3 13.06 C 0 km/h
2625 12-08-2019 08:00:00 13.5 C 11.23 g/m*3 13.5 C 0 km/h
Sensor: Nr:Datum:Temp:Abs-Feuchte:Windchill:Wind:
Aussen-T/F 2626 12-08-2019 09:00:00 15.05 C 11.91 g/m*3 15.05 C 3.075 km/h
2627 12-08-2019 10:00:00 17.65 C 12.41 g/m*3 17.65 C 6.58333 km/h
2628 12-08-2019 11:00:00 20.08333 C 12.61 g/m*3 20.08 C 7.525 km/h
2629 12-08-2019 12:00:00 21.275 C 12.22 g/m*3 21.28 C 8.60833 km/h
2630 12-08-2019 13:00:00 21.775 C 11.64 g/m*3 21.78 C 10.89167 km/h
2631 12-08-2019 14:00:00 22.55 C 12.07 g/m*3 22.55 C 11.3 km/h
2632 12-08-2019 15:00:00 23.475 C 11.74 g/m*3 23.48 C 12.625 km/h
2633 12-08-2019 16:00:00 22.54167 C 11.71 g/m*3 22.54 C 14.5 km/h
2634 12-08-2019 17:00:00 17.89167 C 11.79 g/m*3 17.89 C 5.89167 km/h
2635 12-08-2019 18:00:00 15.925 C 12.21 g/m*3 15.93 C 0.4 km/h
2636 12-08-2019 19:00:00 15.925 C 12.48 g/m*3 15.93 C 0.53333 km/h
2637 12-08-2019 20:00:00 15.54167 C 12.21 g/m*3 15.54 C 0.26667 km/h
2638 12-08-2019 21:00:00 15.19167 C 12.14 g/m*3 15.19 C 0.26667 km/h
2639 12-08-2019 22:00:00 14.975 C 12.04 g/m*3 14.98 C 0.66667 km/h
2640 12-08-2019 23:00:00 14.01667 C 11.19 g/m*3 14.02 C 0.53333 km/h
2641 13-08-2019 00:00:00 13.55833 C 11.06 g/m*3 13.56 C 0.26667 km/h
2642 13-08-2019 01:00:00 13.025 C 10.71 g/m*3 13.03 C 0.26667 km/h
2643 13-08-2019 02:00:00 12.83333 C 10.69 g/m*3 12.83 C 0.53333 km/h
2644 13-08-2019 03:00:00 12.9 C 10.77 g/m*3 12.9 C 0 km/h
2645 13-08-2019 04:00:00 13.275 C 11.05 g/m*3 13.28 C 2.14167 km/h
2646 13-08-2019 05:00:00 13.18333 C 10.9 g/m*3 13.18 C 1.475 km/h
2647 13-08-2019 06:00:00 12.75 C 10.63 g/m*3 12.75 C 0.53333 km/h
2648 13-08-2019 07:00:00 12.9 C 10.74 g/m*3 12.9 C 2.13333 km/h
2649 13-08-2019 08:00:00 13.39167 C 10.78 g/m*3 13.39 C 6.85 km/h
2650 13-08-2019 09:00:00 14.85 C 11.03 g/m*3 14.85 C 6.96667 km/h
Sensor: Nr:Datum:Temp:Abs-Feuchte:Windchill:Wind:
Aussen-T/F 2651 13-08-2019 10:00:00 16.225 C 10.31 g/m*3 16.23 C 10.08333 km/h
2652 13-08-2019 11:00:00 17.175 C 9.83 g/m*3 17.18 C 10.625 km/h
2653 13-08-2019 12:00:00 18.13333 C 9.82 g/m*3 18.13 C 11.15833 km/h
2654 13-08-2019 13:00:00 19.025 C 9.08 g/m*3 19.02 C 10.76667 km/h
2655 13-08-2019 14:00:00 19.875 C 9.06 g/m*3 19.88 C 11.01667 km/h
2656 13-08-2019 15:00:00 21.275 C 9.37 g/m*3 21.28 C 13.56667 km/h
2657 13-08-2019 16:00:00 21.38333 C 9.54 g/m*3 21.38 C 11.15833 km/h
2658 13-08-2019 17:00:00 21.25833 C 9.39 g/m*3 21.26 C 9.41667 km/h
2659 13-08-2019 18:00:00 21.175 C 9.59 g/m*3 21.18 C 8.73333 km/h
2660 13-08-2019 19:00:00 18.53333 C 10.26 g/m*3 18.53 C 9.39167 km/h
2661 13-08-2019 20:00:00 14.91667 C 11.06 g/m*3 14.92 C 0.93333 km/h
2662 13-08-2019 21:00:00 13.99167 C 11.01 g/m*3 13.99 C 0 km/h
2663 13-08-2019 22:00:00 13.63333 C 10.92 g/m*3 13.63 C 0 km/h
2664 13-08-2019 23:00:00 13.36667 C 10.79 g/m*3 13.37 C 0 km/h
2665 14-08-2019 00:00:00 13.05 C 10.59 g/m*3 13.05 C 0 km/h
2666 14-08-2019 01:00:00 12.61667 C 10.32 g/m*3 12.62 C 0 km/h
2667 14-08-2019 02:00:00 12.10833 C 10 g/m*3 12.11 C 0 km/h
2668 14-08-2019 03:00:00 11.93333 C 9.98 g/m*3 11.93 C 0 km/h
2669 14-08-2019 04:00:00 11.43333 C 9.68 g/m*3 11.43 C 0 km/h
2670 14-08-2019 05:00:00 11.00833 C 9.51 g/m*3 11.01 C 0 km/h
2671 14-08-2019 06:00:00 10.61667 C 9.3 g/m*3 10.62 C 0 km/h
2672 14-08-2019 07:00:00 10.61667 C 9.38 g/m*3 10.62 C 0 km/h
2673 14-08-2019 08:00:00 11.4 C 9.89 g/m*3 11.4 C 2.01667 km/h
2674 14-08-2019 09:00:00 13.28333 C 10.79 g/m*3 13.28 C 5.625 km/h
2675 14-08-2019 10:00:00 14.26667 C 11.26 g/m*3 14.27 C 0.13333 km/h
Sensor: Nr:Datum:Temp:Abs-Feuchte:Windchill:Wind:
Aussen-T/F 2676 14-08-2019 11:00:00 15.66667 C 11.12 g/m*3 15.67 C 2 km/h
2677 14-08-2019 12:00:00 18.1 C 9.7 g/m*3 18.1 C 8.70833 km/h
2678 14-08-2019 13:00:00 19.59167 C 9.28 g/m*3 19.59 C 9.00833 km/h
2679 14-08-2019 14:00:00 21.08333 C 9.23 g/m*3 21.08 C 11.00833 km/h
2680 14-08-2019 15:00:00 22.60833 C 9.9 g/m*3 22.61 C 10.475 km/h
2681 14-08-2019 16:00:00 23.74167 C 9.92 g/m*3 23.74 C 11.69167 km/h
2682 14-08-2019 17:00:00 24.44167 C 9.98 g/m*3 24.44 C 13.43333 km/h
2683 14-08-2019 18:00:00 24 C 10.17 g/m*3 24 C 11.96667 km/h
2684 14-08-2019 19:00:00 22.31667 C 11.17 g/m*3 22.32 C 5.1 km/h
2685 14-08-2019 20:00:00 19.675 C 11.46 g/m*3 19.68 C 0 km/h
2686 14-08-2019 21:00:00 18.1 C 11.45 g/m*3 18.1 C 0 km/h
2687 14-08-2019 22:00:00 17.63333 C 11.45 g/m*3 17.63 C 0 km/h
2688 14-08-2019 23:00:00 17.4 C 11.34 g/m*3 17.4 C 0 km/h
2689 15-08-2019 00:00:00 17.35833 C 11.32 g/m*3 17.36 C 0.26667 km/h
2690 15-08-2019 01:00:00 17.38333 C 11.47 g/m*3 17.38 C 0.13333 km/h
2691 15-08-2019 02:00:00 16.2 C 12.19 g/m*3 16.2 C 0.66667 km/h
2692 15-08-2019 03:00:00 15.275 C 12.05 g/m*3 15.28 C 0 km/h
2693 15-08-2019 04:00:00 14.90833 C 11.94 g/m*3 14.91 C 0.13333 km/h
2694 15-08-2019 05:00:00 14.84167 C 11.96 g/m*3 14.84 C 0 km/h
2695 15-08-2019 06:00:00 14.96667 C 12.14 g/m*3 14.97 C 0.4 km/h
2696 15-08-2019 07:00:00 15.6 C 12.28 g/m*3 15.6 C 3.35833 km/h
2697 15-08-2019 08:00:00 17.59167 C 12.58 g/m*3 17.59 C 11.025 km/h
2698 15-08-2019 09:00:00 18.48333 C 12.88 g/m*3 18.48 C 11.025 km/h
2699 15-08-2019 10:00:00 19.14167 C 13.31 g/m*3 19.14 C 12.76667 km/h
2700 15-08-2019 11:00:00 19.28333 C 13.52 g/m*3 19.28 C 12.49167 km/h
Sensor: Nr:Datum:Temp:Abs-Feuchte:Windchill:Wind:
Aussen-T/F 2701 15-08-2019 12:00:00 19.90833 C 13.69 g/m*3 19.91 C 12.89167 km/h
2702 15-08-2019 13:00:00 18.94167 C 14.4 g/m*3 18.94 C 8.73333 km/h
2703 15-08-2019 14:00:00 19.73333 C 14.63 g/m*3 19.73 C 10.20833 km/h
2704 15-08-2019 15:00:00 20.79167 C 14.72 g/m*3 20.79 C 12.88333 km/h
2705 15-08-2019 16:00:00 19.325 C 14.88 g/m*3 19.33 C 11.95833 km/h
2706 15-08-2019 17:00:00 17.3 C 13.69 g/m*3 17.3 C 4.41667 km/h
2707 15-08-2019 18:00:00 16.975 C 13.61 g/m*3 16.98 C 2.66667 km/h
2708 15-08-2019 19:00:00 17.25 C 13.89 g/m*3 17.25 C 1.2 km/h
2709 15-08-2019 20:00:00 17.09167 C 13.76 g/m*3 17.09 C 1.33333 km/h
2710 15-08-2019 21:00:00 16.40833 C 13.23 g/m*3 16.41 C 2.54167 km/h
2711 15-08-2019 22:00:00 15.93333 C 12.83 g/m*3 15.93 C 1.46667 km/h
2712 15-08-2019 23:00:00 15.54167 C 12.59 g/m*3 15.54 C 1.06667 km/h
2713 16-08-2019 00:00:00 15.29167 C 12.41 g/m*3 15.29 C 0.53333 km/h
2714 16-08-2019 01:00:00 14.63333 C 11.94 g/m*3 14.63 C 0.13333 km/h
2715 16-08-2019 02:00:00 14.575 C 11.99 g/m*3 14.58 C 0.8 km/h
2716 16-08-2019 03:00:00 14.64167 C 12.04 g/m*3 14.64 C 0.4 km/h
2717 16-08-2019 04:00:00 14.08333 C 11.64 g/m*3 14.08 C 0 km/h
2718 16-08-2019 05:00:00 13.575 C 11.31 g/m*3 13.58 C 0.66667 km/h
2719 16-08-2019 06:00:00 13.69167 C 11.48 g/m*3 13.69 C 2.26667 km/h
2720 16-08-2019 07:00:00 14.18333 C 11.78 g/m*3 14.18 C 2.54167 km/h
2721 16-08-2019 08:00:00 14.45833 C 11.8 g/m*3 14.46 C 5.1 km/h
2722 16-08-2019 09:00:00 15.54167 C 11.89 g/m*3 15.54 C 9.29167 km/h
2723 16-08-2019 10:00:00 16.26667 C 11.87 g/m*3 16.27 C 12.36667 km/h
2724 16-08-2019 11:00:00 17.1 C 12 g/m*3 17.1 C 11.56667 km/h
2725 16-08-2019 12:00:00 18.43333 C 12.04 g/m*3 18.43 C 12.9 km/h
Sensor: Nr:Datum:Temp:Abs-Feuchte:Windchill:Wind:
Aussen-T/F 2726 16-08-2019 13:00:00 19.65 C 11.98 g/m*3 19.65 C 16.5 km/h
2727 16-08-2019 14:00:00 20.4 C 11.97 g/m*3 20.4 C 12.76667 km/h
2728 16-08-2019 15:00:00 21.90833 C 11.78 g/m*3 21.91 C 10.9 km/h
2729 16-08-2019 16:00:00 23.63333 C 11.61 g/m*3 23.63 C 11.03333 km/h
2730 16-08-2019 17:00:00 24.475 C 11.58 g/m*3 24.48 C 11.41667 km/h
2731 16-08-2019 18:00:00 24.43333 C 11.61 g/m*3 24.43 C 9.94167 km/h
2732 16-08-2019 19:00:00 23.41667 C 12.24 g/m*3 23.42 C 6.325 km/h
2733 16-08-2019 20:00:00 20.075 C 12.43 g/m*3 20.08 C 0.13333 km/h
2734 16-08-2019 21:00:00 17.75833 C 12.16 g/m*3 17.76 C 0 km/h
2735 16-08-2019 22:00:00 16.88333 C 12.19 g/m*3 16.88 C 0 km/h
2736 16-08-2019 23:00:00 16.23333 C 11.96 g/m*3 16.23 C 0 km/h
2737 17-08-2019 00:00:00 15.69167 C 11.75 g/m*3 15.69 C 0 km/h
2738 17-08-2019 01:00:00 15.86667 C 11.93 g/m*3 15.87 C 0 km/h
2739 17-08-2019 02:00:00 15.76667 C 11.91 g/m*3 15.77 C 0 km/h
2740 17-08-2019 03:00:00 15.76667 C 12.24 g/m*3 15.77 C 0 km/h
2741 17-08-2019 04:00:00 15.69167 C 12.47 g/m*3 15.69 C 0 km/h
2742 17-08-2019 05:00:00 15.63333 C 12.53 g/m*3 15.63 C 0 km/h
2743 17-08-2019 06:00:00 15.65833 C 12.55 g/m*3 15.66 C 0 km/h
2744 17-08-2019 07:00:00 16.13333 C 12.91 g/m*3 16.13 C 0.26667 km/h
2745 17-08-2019 08:00:00 16.95833 C 13.1 g/m*3 16.96 C 3.075 km/h
2746 17-08-2019 09:00:00 18.66667 C 12.81 g/m*3 18.67 C 7.76667 km/h
2747 17-08-2019 10:00:00 19.01667 C 13.23 g/m*3 19.02 C 2.13333 km/h
2748 17-08-2019 11:00:00 18.59167 C 13.81 g/m*3 18.59 C 1.60833 km/h
2749 17-08-2019 12:00:00 19.275 C 14.11 g/m*3 19.27 C 2.14167 km/h
2750 17-08-2019 13:00:00 20.68333 C 13.73 g/m*3 20.68 C 12.625 km/h
Sensor: Nr:Datum:Temp:Abs-Feuchte:Windchill:Wind:
Aussen-T/F 2751 17-08-2019 14:00:00 21 C 13.72 g/m*3 21 C 10.35 km/h
2752 17-08-2019 15:00:00 21.31667 C 13.96 g/m*3 21.32 C 8.34167 km/h
2753 17-08-2019 16:00:00 21 C 13.91 g/m*3 21 C 8.85833 km/h
2754 17-08-2019 17:00:00 20.44167 C 13.82 g/m*3 20.44 C 4.55833 km/h
2755 17-08-2019 18:00:00 19.975 C 14.34 g/m*3 19.98 C 0.93333 km/h
2756 17-08-2019 19:00:00 19.125 C 14.49 g/m*3 19.13 C 0.4 km/h
2757 17-08-2019 20:00:00 18.325 C 14.26 g/m*3 18.33 C 0.13333 km/h
2758 17-08-2019 21:00:00 17.84167 C 14.1 g/m*3 17.84 C 0.26667 km/h
2759 17-08-2019 22:00:00 17.74167 C 14.22 g/m*3 17.74 C 0.4 km/h
2760 17-08-2019 23:00:00 17.525 C 14.13 g/m*3 17.52 C 0.13333 km/h
2761 18-08-2019 00:00:00 17.4 C 14.08 g/m*3 17.4 C 0 km/h
2762 18-08-2019 01:00:00 17.38333 C 14.15 g/m*3 17.38 C 0 km/h
2763 18-08-2019 02:00:00 17.225 C 14.08 g/m*3 17.23 C 0 km/h
2764 18-08-2019 03:00:00 17.2 C 14.06 g/m*3 17.2 C 0 km/h
2765 18-08-2019 04:00:00 17.18333 C 14.04 g/m*3 17.18 C 0 km/h
2766 18-08-2019 05:00:00 17.3 C 14.25 g/m*3 17.3 C 0 km/h
2767 18-08-2019 06:00:00 17.26667 C 14.26 g/m*3 17.27 C 0 km/h
2768 18-08-2019 07:00:00 17.34167 C 14.33 g/m*3 17.34 C 0 km/h
2769 18-08-2019 08:00:00 17.93333 C 14.84 g/m*3 17.93 C 0 km/h
2770 18-08-2019 09:00:00 18.85833 C 15.72 g/m*3 18.86 C 0 km/h
2771 18-08-2019 10:00:00 19.93333 C 16.77 g/m*3 19.93 C 1.33333 km/h
2772 18-08-2019 11:00:00 22.19167 C 18.07 g/m*3 22.19 C 9.00833 km/h
2773 18-08-2019 12:00:00 24.075 C 16.99 g/m*3 24.08 C 17.03333 km/h
2774 18-08-2019 13:00:00 24.4 C 16.88 g/m*3 24.4 C 15.98333 km/h
2775 18-08-2019 14:00:00 24.725 C 16.96 g/m*3 24.73 C 17.84167 km/h
Sensor: Nr:Datum:Temp:Abs-Feuchte:Windchill:Wind:
Aussen-T/F 2776 18-08-2019 15:00:00 24.7 C 17.16 g/m*3 24.7 C 15.03333 km/h
2777 18-08-2019 16:00:00 24.99167 C 16.74 g/m*3 24.99 C 14.9 km/h
2778 18-08-2019 17:00:00 24.35 C 16.14 g/m*3 24.35 C 15.83333 km/h
2779 18-08-2019 18:00:00 20.49167 C 16.3 g/m*3 20.49 C 1.33333 km/h
2780 18-08-2019 19:00:00 20.00833 C 16.22 g/m*3 20.01 C 1.2 km/h
2781 18-08-2019 20:00:00 19.45833 C 15.85 g/m*3 19.46 C 1.86667 km/h
2782 18-08-2019 21:00:00 18.8 C 15.19 g/m*3 18.8 C 0.93333 km/h
2783 18-08-2019 22:00:00 17.65 C 14.22 g/m*3 17.65 C 0.8 km/h
2784 18-08-2019 23:00:00 16.59167 C 13.41 g/m*3 16.59 C 1.06667 km/h
2785 19-08-2019 00:00:00 16.14167 C 13.19 g/m*3 16.14 C 0.53333 km/h
2786 19-08-2019 01:00:00 16.10833 C 13.17 g/m*3 16.11 C 0.93333 km/h
2787 19-08-2019 02:00:00 15.81667 C 12.94 g/m*3 15.82 C 0.26667 km/h
2788 19-08-2019 03:00:00 15.38333 C 12.61 g/m*3 15.38 C 0 km/h
2789 19-08-2019 04:00:00 14.78333 C 12.17 g/m*3 14.78 C 0 km/h
2790 19-08-2019 05:00:00 15.125 C 12.53 g/m*3 15.13 C 0.13333 km/h
2791 19-08-2019 06:00:00 14.61667 C 12.13 g/m*3 14.62 C 0 km/h
2792 19-08-2019 07:00:00 15.025 C 12.48 g/m*3 15.03 C 2 km/h
2793 19-08-2019 08:00:00 15.65833 C 12.95 g/m*3 15.66 C 0.93333 km/h
2794 19-08-2019 09:00:00 15.89167 C 13.07 g/m*3 15.89 C 6.03333 km/h
2795 19-08-2019 10:00:00 16.63333 C 12.41 g/m*3 16.63 C 7.79167 km/h
2796 19-08-2019 11:00:00 18.55833 C 11.87 g/m*3 18.56 C 10.36667 km/h
2797 19-08-2019 12:00:00 20.275 C 11.33 g/m*3 20.27 C 11.95833 km/h
2798 19-08-2019 13:00:00 21.525 C 11.02 g/m*3 21.53 C 11.69167 km/h
2799 19-08-2019 14:00:00 22.79167 C 10.93 g/m*3 22.79 C 13.7 km/h
2800 19-08-2019 15:00:00 23.46667 C 10.69 g/m*3 23.47 C 13.55833 km/h
Sensor: Nr:Datum:Temp:Abs-Feuchte:Windchill:Wind:
Aussen-T/F 2801 19-08-2019 16:00:00 23.78333 C 10.89 g/m*3 23.78 C 11.425 km/h
2802 19-08-2019 17:00:00 24.025 C 10.55 g/m*3 24.03 C 11.68333 km/h
2803 19-08-2019 18:00:00 23.51667 C 10.69 g/m*3 23.52 C 7.65 km/h
2804 19-08-2019 19:00:00 22.95833 C 11.55 g/m*3 22.96 C 4.7 km/h
2805 19-08-2019 20:00:00 19.71667 C 11.84 g/m*3 19.72 C 0.8 km/h
2806 19-08-2019 21:00:00 17.30833 C 11.03 g/m*3 17.31 C 0 km/h
2807 19-08-2019 22:00:00 16.51667 C 11.29 g/m*3 16.52 C 0 km/h
2808 19-08-2019 23:00:00 15.21667 C 10.86 g/m*3 15.22 C 0.13333 km/h
2809 20-08-2019 00:00:00 13.975 C 10.43 g/m*3 13.98 C 0 km/h
2810 20-08-2019 01:00:00 13.21667 C 10.16 g/m*3 13.22 C 0.53333 km/h
2811 20-08-2019 02:00:00 12.825 C 10.09 g/m*3 12.83 C 2.13333 km/h
2812 20-08-2019 03:00:00 12.21667 C 9.79 g/m*3 12.22 C 0 km/h
2813 20-08-2019 04:00:00 11.34167 C 9.46 g/m*3 11.34 C 0.4 km/h
2814 20-08-2019 05:00:00 10.9 C 9.32 g/m*3 10.9 C 0.13333 km/h
2815 20-08-2019 06:00:00 10.425 C 9.12 g/m*3 10.43 C 0.26667 km/h
2816 20-08-2019 07:00:00 10.78333 C 9.41 g/m*3 10.78 C 0 km/h
2817 20-08-2019 08:00:00 11.425 C 9.83 g/m*3 11.43 C 0.93333 km/h
2818 20-08-2019 09:00:00 12.61667 C 10.53 g/m*3 12.62 C 1.06667 km/h
2819 20-08-2019 10:00:00 15.26667 C 11.21 g/m*3 15.27 C 0.66667 km/h
2820 20-08-2019 11:00:00 17.375 C 10.89 g/m*3 17.38 C 2.13333 km/h
2821 20-08-2019 12:00:00 18.625 C 10.65 g/m*3 18.63 C 1.46667 km/h
2822 20-08-2019 13:00:00 19.525 C 10.45 g/m*3 19.52 C 3.875 km/h
2823 20-08-2019 14:00:00 20.43333 C 10.16 g/m*3 20.43 C 4.54167 km/h
2824 20-08-2019 15:00:00 21.10833 C 10.37 g/m*3 21.11 C 5.08333 km/h
2825 20-08-2019 16:00:00 21.41667 C 11.04 g/m*3 21.42 C 2.13333 km/h
Sensor: Nr:Datum:Temp:Abs-Feuchte:Windchill:Wind:
Aussen-T/F 2826 20-08-2019 17:00:00 20.68333 C 11.59 g/m*3 20.68 C 2.40833 km/h
2827 20-08-2019 18:00:00 20.375 C 13.06 g/m*3 20.38 C 0.26667 km/h
2828 20-08-2019 19:00:00 18.88333 C 12.11 g/m*3 18.88 C 0.13333 km/h
2829 20-08-2019 20:00:00 17.58333 C 11.35 g/m*3 17.58 C 0.8 km/h
2830 20-08-2019 21:00:00 16.76667 C 11.4 g/m*3 16.77 C 0.26667 km/h
2831 20-08-2019 22:00:00 15.925 C 11.36 g/m*3 15.93 C 0.4 km/h
2832 20-08-2019 23:00:00 15.175 C 11.02 g/m*3 15.18 C 0.26667 km/h
2833 21-08-2019 00:00:00 14.11667 C 10.59 g/m*3 14.12 C 0 km/h
2834 21-08-2019 01:00:00 13.55833 C 10.42 g/m*3 13.56 C 0 km/h
2835 21-08-2019 02:00:00 12.65833 C 10.08 g/m*3 12.66 C 0.13333 km/h
2836 21-08-2019 03:00:00 11.99167 C 9.85 g/m*3 11.99 C 0.13333 km/h
2837 21-08-2019 04:00:00 11.30833 C 9.54 g/m*3 11.31 C 0.13333 km/h
2838 21-08-2019 05:00:00 10.73333 C 9.25 g/m*3 10.73 C 0 km/h
2839 21-08-2019 06:00:00 10.325 C 9.1 g/m*3 10.33 C 0 km/h
2840 21-08-2019 07:00:00 10.35833 C 9.16 g/m*3 10.36 C 0.26667 km/h
2841 21-08-2019 08:00:00 10.85833 C 9.52 g/m*3 10.86 C 0.13333 km/h
2842 21-08-2019 09:00:00 11.86667 C 10.15 g/m*3 11.87 C 0.66667 km/h
2843 21-08-2019 10:00:00 13.33333 C 11.14 g/m*3 13.33 C 0 km/h
2844 21-08-2019 11:00:00 15.80833 C 12.13 g/m*3 15.81 C 0.93333 km/h
2845 21-08-2019 12:00:00 18.54167 C 11.58 g/m*3 18.54 C 1.46667 km/h
2846 21-08-2019 13:00:00 20.375 C 10.25 g/m*3 20.38 C 5.38333 km/h
2847 21-08-2019 14:00:00 21.79167 C 10.04 g/m*3 21.79 C 6.575 km/h
2848 21-08-2019 15:00:00 22.95833 C 10.3 g/m*3 22.96 C 2.13333 km/h
2849 21-08-2019 16:00:00 24.475 C 9.39 g/m*3 24.48 C 7.23333 km/h
2850 21-08-2019 17:00:00 24.65 C 9.4 g/m*3 24.65 C 4.28333 km/h
Sensor: Nr:Datum:Temp:Abs-Feuchte:Windchill:Wind:
Aussen-T/F 2851 21-08-2019 18:00:00 24.64167 C 10 g/m*3 24.64 C 4.94167 km/h
2852 21-08-2019 19:00:00 23.46667 C 11.61 g/m*3 23.47 C 1.6 km/h
2853 21-08-2019 20:00:00 19.875 C 11.09 g/m*3 19.88 C 0 km/h
2854 21-08-2019 21:00:00 17.49167 C 9.97 g/m*3 17.49 C 0.4 km/h
2855 21-08-2019 22:00:00 16.29167 C 9.59 g/m*3 16.29 C 0 km/h
2856 21-08-2019 23:00:00 15.05833 C 9.99 g/m*3 15.06 C 0 km/h
2857 22-08-2019 00:00:00 13.475 C 9.75 g/m*3 13.48 C 0 km/h
2858 22-08-2019 01:00:00 12.41667 C 9.41 g/m*3 12.42 C 0 km/h
2859 22-08-2019 02:00:00 11.66667 C 9.25 g/m*3 11.67 C 0 km/h
2860 22-08-2019 03:00:00 11.125 C 9.12 g/m*3 11.13 C 0 km/h
2861 22-08-2019 04:00:00 10.55833 C 8.92 g/m*3 10.56 C 0 km/h
2862 22-08-2019 05:00:00 9.99167 C 8.7 g/m*3 9.99 C 0 km/h
2863 22-08-2019 06:00:00 9.71667 C 8.65 g/m*3 9.72 C 0 km/h
2864 22-08-2019 07:00:00 9.7 C 8.73 g/m*3 9.7 C 0 km/h
2865 22-08-2019 08:00:00 10.30833 C 9.13 g/m*3 10.31 C 0 km/h
2866 22-08-2019 09:00:00 11.525 C 9.93 g/m*3 11.53 C 0 km/h
2867 22-08-2019 10:00:00 13.51667 C 11.07 g/m*3 13.52 C 0 km/h
2868 22-08-2019 11:00:00 16.925 C 11.87 g/m*3 16.93 C 0 km/h
2869 22-08-2019 12:00:00 20.11667 C 11.46 g/m*3 20.12 C 3.46667 km/h
2870 22-08-2019 13:00:00 22.71667 C 10.89 g/m*3 22.72 C 5.09167 km/h
2871 22-08-2019 14:00:00 24.08333 C 10.49 g/m*3 24.08 C 6.71667 km/h
2872 22-08-2019 15:00:00 25.89167 C 9.9 g/m*3 25.89 C 6.84167 km/h
2873 22-08-2019 16:00:00 27.33333 C 9.76 g/m*3 27.33 C 6.16667 km/h
2874 22-08-2019 17:00:00 28.01667 C 9.41 g/m*3 28.02 C 6.16667 km/h
2875 22-08-2019 18:00:00 28.38333 C 9.67 g/m*3 28.38 C 3.46667 km/h
Sensor: Nr:Datum:Temp:Abs-Feuchte:Windchill:Wind:
Aussen-T/F 2876 22-08-2019 19:00:00 26.06667 C 11.97 g/m*3 26.07 C 0.26667 km/h
2877 22-08-2019 20:00:00 21.49167 C 11.04 g/m*3 21.49 C 0.26667 km/h
2878 22-08-2019 21:00:00 18.25 C 10.74 g/m*3 18.25 C 0 km/h
2879 22-08-2019 22:00:00 16.40833 C 10.6 g/m*3 16.41 C 0 km/h
2880 22-08-2019 23:00:00 14.90833 C 10.12 g/m*3 14.91 C 0 km/h
2881 23-08-2019 00:00:00 13.94167 C 9.97 g/m*3 13.94 C 0 km/h
2882 23-08-2019 01:00:00 13.26667 C 9.81 g/m*3 13.27 C 0 km/h
2883 23-08-2019 02:00:00 12.775 C 9.72 g/m*3 12.78 C 0 km/h
2884 23-08-2019 03:00:00 11.975 C 9.49 g/m*3 11.98 C 0 km/h
2885 23-08-2019 04:00:00 11.56667 C 9.45 g/m*3 11.57 C 0 km/h
2886 23-08-2019 05:00:00 11.06667 C 9.24 g/m*3 11.07 C 0 km/h
2887 23-08-2019 06:00:00 10.66667 C 9.14 g/m*3 10.67 C 0 km/h
2888 23-08-2019 07:00:00 10.7 C 9.25 g/m*3 10.7 C 0 km/h
2889 23-08-2019 08:00:00 11.3 C 9.68 g/m*3 11.3 C 0 km/h
2890 23-08-2019 09:00:00 12.35 C 10.35 g/m*3 12.35 C 0 km/h
2891 23-08-2019 10:00:00 14.34167 C 11.59 g/m*3 14.34 C 0 km/h
2892 23-08-2019 11:00:00 17.6 C 12.75 g/m*3 17.6 C 0 km/h
2893 23-08-2019 12:00:00 21.16667 C 12.76 g/m*3 21.17 C 1.46667 km/h
2894 23-08-2019 13:00:00 24.1 C 11.12 g/m*3 24.1 C 3.86667 km/h
2895 23-08-2019 14:00:00 26.13333 C 10.36 g/m*3 26.13 C 7.925 km/h
2896 23-08-2019 15:00:00 27.85833 C 10.32 g/m*3 27.86 C 6.84167 km/h
2897 23-08-2019 16:00:00 29.15 C 10.11 g/m*3 29.15 C 9.28333 km/h
2898 23-08-2019 17:00:00 29.375 C 9.97 g/m*3 29.38 C 12.5 km/h
2899 23-08-2019 18:00:00 28.94167 C 9.47 g/m*3 28.94 C 12.36667 km/h
2900 23-08-2019 19:00:00 27.20833 C 12.06 g/m*3 27.21 C 1.875 km/h
Sensor: Nr:Datum:Temp:Abs-Feuchte:Windchill:Wind:
Aussen-T/F 2901 23-08-2019 20:00:00 23.01667 C 11.42 g/m*3 23.02 C 0.66667 km/h
2902 23-08-2019 21:00:00 20.16667 C 11.34 g/m*3 20.17 C 0 km/h
2903 23-08-2019 22:00:00 17.85 C 11.09 g/m*3 17.85 C 0 km/h
2904 23-08-2019 23:00:00 16.23333 C 10.61 g/m*3 16.23 C 0 km/h
2905 24-08-2019 00:00:00 14.96667 C 10.33 g/m*3 14.97 C 0 km/h
2906 24-08-2019 01:00:00 14.05833 C 10.23 g/m*3 14.06 C 0 km/h
2907 24-08-2019 02:00:00 13.425 C 10.07 g/m*3 13.43 C 0 km/h
2908 24-08-2019 03:00:00 12.7 C 9.88 g/m*3 12.7 C 0 km/h
2909 24-08-2019 04:00:00 12.06667 C 9.67 g/m*3 12.07 C 0 km/h
2910 24-08-2019 05:00:00 11.66667 C 9.58 g/m*3 11.67 C 0 km/h
2911 24-08-2019 06:00:00 11.425 C 9.54 g/m*3 11.43 C 0 km/h
2912 24-08-2019 07:00:00 11.575 C 9.75 g/m*3 11.58 C 0 km/h
2913 24-08-2019 08:00:00 12.06667 C 10.08 g/m*3 12.07 C 0 km/h
2914 24-08-2019 09:00:00 13.23333 C 10.82 g/m*3 13.23 C 0 km/h
2915 24-08-2019 10:00:00 15.5 C 12.09 g/m*3 15.5 C 0.4 km/h
2916 24-08-2019 11:00:00 18.88333 C 12.89 g/m*3 18.88 C 0.66667 km/h
2917 24-08-2019 12:00:00 22.24167 C 13.01 g/m*3 22.24 C 2.66667 km/h
2918 24-08-2019 13:00:00 25.4 C 12.28 g/m*3 25.4 C 7.78333 km/h
2919 24-08-2019 14:00:00 27.05 C 11.27 g/m*3 27.05 C 8.58333 km/h
2920 24-08-2019 15:00:00 28.69167 C 10.64 g/m*3 28.69 C 8.875 km/h
2921 24-08-2019 16:00:00 29.81667 C 10.33 g/m*3 29.82 C 11.69167 km/h
2922 24-08-2019 17:00:00 30.29167 C 10.09 g/m*3 30.29 C 11.15833 km/h
2923 24-08-2019 18:00:00 30.66667 C 10.95 g/m*3 30.67 C 9.55 km/h
2924 24-08-2019 19:00:00 28.56667 C 13.72 g/m*3 28.57 C 1.6 km/h
2925 24-08-2019 20:00:00 24.29167 C 13.11 g/m*3 24.29 C 0.66667 km/h
Sensor: Nr:Datum:Temp:Abs-Feuchte:Windchill:Wind:
Aussen-T/F 2926 24-08-2019 21:00:00 22.01667 C 12.87 g/m*3 22.02 C 0.4 km/h
2927 24-08-2019 22:00:00 19.78333 C 12.64 g/m*3 19.78 C 0.13333 km/h
2928 24-08-2019 23:00:00 18.175 C 12.16 g/m*3 18.18 C 0 km/h
2929 25-08-2019 00:00:00 17.35833 C 12.09 g/m*3 17.36 C 0 km/h
2930 25-08-2019 01:00:00 16.96667 C 11.95 g/m*3 16.97 C 0.26667 km/h
2931 25-08-2019 02:00:00 16.15833 C 11.73 g/m*3 16.16 C 0 km/h
2932 25-08-2019 03:00:00 15.53333 C 11.66 g/m*3 15.53 C 0.26667 km/h
2933 25-08-2019 04:00:00 15.19167 C 11.47 g/m*3 15.19 C 0.13333 km/h
2934 25-08-2019 05:00:00 14.65833 C 11.28 g/m*3 14.66 C 0 km/h
2935 25-08-2019 06:00:00 14.41667 C 11.24 g/m*3 14.42 C 0 km/h
2936 25-08-2019 07:00:00 14.80833 C 11.59 g/m*3 14.81 C 0.26667 km/h
2937 25-08-2019 08:00:00 15.84167 C 12.21 g/m*3 15.84 C 0 km/h
2938 25-08-2019 09:00:00 17.2 C 12.94 g/m*3 17.2 C 0 km/h
2939 25-08-2019 10:00:00 18.78333 C 13.62 g/m*3 18.78 C 0 km/h
2940 25-08-2019 11:00:00 21.64167 C 14.72 g/m*3 21.64 C 1.46667 km/h
2941 25-08-2019 12:00:00 24.54167 C 15.7 g/m*3 24.54 C 3.33333 km/h
2942 25-08-2019 13:00:00 26.76667 C 15.98 g/m*3 26.77 C 3.33333 km/h
2943 25-08-2019 14:00:00 28.375 C 15.82 g/m*3 28.38 C 4.28333 km/h
2944 25-08-2019 15:00:00 30.28333 C 15.83 g/m*3 30.28 C 5.5 km/h
2945 25-08-2019 16:00:00 31.18333 C 16.05 g/m*3 31.18 C 6.05833 km/h
2946 25-08-2019 17:00:00 32.3 C 16.12 g/m*3 32.3 C 3.875 km/h
2947 25-08-2019 18:00:00 30.05 C 16.09 g/m*3 30.05 C 4.425 km/h
2948 25-08-2019 19:00:00 27.125 C 16.41 g/m*3 27.13 C 0.13333 km/h
2949 25-08-2019 20:00:00 24.31667 C 15.82 g/m*3 24.32 C 0.13333 km/h
2950 25-08-2019 21:00:00 22.98333 C 15.85 g/m*3 22.98 C 0 km/h
Sensor: Nr:Datum:Temp:Abs-Feuchte:Windchill:Wind:
Aussen-T/F 2951 25-08-2019 22:00:00 21.19167 C 15.27 g/m*3 21.19 C 0 km/h
2952 25-08-2019 23:00:00 20.10833 C 14.86 g/m*3 20.11 C 0 km/h
2953 26-08-2019 00:00:00 19.475 C 14.76 g/m*3 19.48 C 0 km/h
2954 26-08-2019 01:00:00 19.14167 C 14.65 g/m*3 19.14 C 0 km/h
2955 26-08-2019 02:00:00 18.53333 C 14.39 g/m*3 18.53 C 0.13333 km/h
2956 26-08-2019 03:00:00 18.025 C 14.1 g/m*3 18.02 C 0 km/h
2957 26-08-2019 04:00:00 17.41667 C 13.8 g/m*3 17.42 C 0 km/h
2958 26-08-2019 05:00:00 17.14167 C 13.74 g/m*3 17.14 C 0.13333 km/h
2959 26-08-2019 06:00:00 16.76667 C 13.46 g/m*3 16.77 C 0 km/h
2960 26-08-2019 07:00:00 16.71667 C 13.55 g/m*3 16.72 C 0 km/h
2961 26-08-2019 08:00:00 17.475 C 14.29 g/m*3 17.48 C 0 km/h
2962 26-08-2019 09:00:00 18.55 C 15.21 g/m*3 18.55 C 0 km/h
2963 26-08-2019 10:00:00 20.15833 C 16.12 g/m*3 20.16 C 0.13333 km/h
2964 26-08-2019 11:00:00 22.95 C 17.15 g/m*3 22.95 C 0.93333 km/h
2965 26-08-2019 12:00:00 25.70833 C 17.45 g/m*3 25.71 C 1.86667 km/h
2966 26-08-2019 13:00:00 28.3 C 16.68 g/m*3 28.3 C 5.075 km/h
2967 26-08-2019 14:00:00 30.01667 C 15.99 g/m*3 30.02 C 5.08333 km/h
2968 26-08-2019 15:00:00 30.85833 C 16.04 g/m*3 30.86 C 4.95 km/h
2969 26-08-2019 16:00:00 28.55 C 16.58 g/m*3 28.55 C 2 km/h
2970 26-08-2019 17:00:00 27.475 C 17.77 g/m*3 27.48 C 0 km/h
2971 26-08-2019 18:00:00 27.10833 C 18.14 g/m*3 27.11 C 0 km/h
2972 26-08-2019 19:00:00 28.06667 C 18.01 g/m*3 28.07 C 0 km/h
2973 26-08-2019 20:00:00 24.69167 C 16.65 g/m*3 24.69 C 0 km/h
2974 26-08-2019 21:00:00 22.45 C 16.03 g/m*3 22.45 C 0 km/h
2975 26-08-2019 22:00:00 21.09167 C 15.61 g/m*3 21.09 C 0 km/h
Sensor: Nr:Datum:Temp:Abs-Feuchte:Windchill:Wind:
Aussen-T/F 2976 26-08-2019 23:00:00 20.175 C 15.34 g/m*3 20.18 C 0.13333 km/h
2977 27-08-2019 00:00:00 19.40833 C 15.01 g/m*3 19.41 C 0 km/h
2978 27-08-2019 01:00:00 19.01667 C 15.01 g/m*3 19.02 C 0 km/h
2979 27-08-2019 02:00:00 18.39167 C 14.59 g/m*3 18.39 C 0 km/h
2980 27-08-2019 03:00:00 17.91667 C 14.38 g/m*3 17.92 C 0.13333 km/h
2981 27-08-2019 04:00:00 17.55833 C 14.1 g/m*3 17.56 C 0 km/h
2982 27-08-2019 05:00:00 17.15833 C 13.88 g/m*3 17.16 C 0 km/h
2983 27-08-2019 06:00:00 16.79167 C 13.62 g/m*3 16.79 C 0 km/h
2984 27-08-2019 07:00:00 16.85 C 13.77 g/m*3 16.85 C 0 km/h
2985 27-08-2019 08:00:00 17.325 C 14.24 g/m*3 17.33 C 0 km/h
2986 27-08-2019 09:00:00 18.4 C 15.26 g/m*3 18.4 C 0 km/h
2987 27-08-2019 10:00:00 19.78333 C 16.4 g/m*3 19.78 C 0 km/h
2988 27-08-2019 11:00:00 22.275 C 17.8 g/m*3 22.28 C 0 km/h
2989 27-08-2019 12:00:00 25.41667 C 17.97 g/m*3 25.42 C 0 km/h
2990 27-08-2019 13:00:00 28.99167 C 16.36 g/m*3 28.99 C 1.06667 km/h
2991 27-08-2019 14:00:00 30.54167 C 15.38 g/m*3 30.54 C 2 km/h
2992 27-08-2019 15:00:00 31.89167 C 14.46 g/m*3 31.89 C 4.95833 km/h
2993 27-08-2019 16:00:00 33.23333 C 15.02 g/m*3 33.23 C 4.28333 km/h
2994 27-08-2019 17:00:00 32.29167 C 16.29 g/m*3 32.29 C 1.46667 km/h
2995 27-08-2019 18:00:00 29.55833 C 16.9 g/m*3 29.56 C 1.2 km/h
2996 27-08-2019 19:00:00 27.7 C 17.08 g/m*3 27.7 C 5.23333 km/h
2997 27-08-2019 20:00:00 23.50833 C 17.31 g/m*3 23.51 C 0.53333 km/h
2998 27-08-2019 21:00:00 22.09167 C 16.5 g/m*3 22.09 C 0.4 km/h
2999 27-08-2019 22:00:00 21.14167 C 15.96 g/m*3 21.14 C 0 km/h
3000 27-08-2019 23:00:00 20.43333 C 15.63 g/m*3 20.43 C 0.13333 km/h
Sensor: Nr:Datum:Temp:Abs-Feuchte:Windchill:Wind:
Aussen-T/F 3001 28-08-2019 00:00:00 19.9 C 15.48 g/m*3 19.9 C 0.4 km/h
3002 28-08-2019 01:00:00 19.61667 C 15.5 g/m*3 19.62 C 0 km/h
3003 28-08-2019 02:00:00 19.24167 C 15.32 g/m*3 19.24 C 0 km/h
3004 28-08-2019 03:00:00 18.71667 C 14.98 g/m*3 18.72 C 0.4 km/h
3005 28-08-2019 04:00:00 18.33333 C 14.71 g/m*3 18.33 C 0 km/h
3006 28-08-2019 05:00:00 17.96667 C 14.47 g/m*3 17.97 C 0 km/h
3007 28-08-2019 06:00:00 18.01667 C 14.62 g/m*3 18.02 C 0 km/h
3008 28-08-2019 07:00:00 17.85833 C 14.51 g/m*3 17.86 C 0 km/h
3009 28-08-2019 08:00:00 18.64167 C 15.28 g/m*3 18.64 C 0.93333 km/h
3010 28-08-2019 09:00:00 19.75833 C 15.89 g/m*3 19.76 C 2.8 km/h
3011 28-08-2019 10:00:00 22.45 C 15.49 g/m*3 22.45 C 7.4 km/h
3012 28-08-2019 11:00:00 23.975 C 15.57 g/m*3 23.98 C 4.40833 km/h
3013 28-08-2019 12:00:00 24.49167 C 15.85 g/m*3 24.49 C 4.025 km/h
3014 28-08-2019 13:00:00 26.54167 C 14.76 g/m*3 26.54 C 7.66667 km/h
3015 28-08-2019 14:00:00 29.44167 C 14.81 g/m*3 29.44 C 9.29167 km/h
3016 28-08-2019 15:00:00 30.35833 C 13.68 g/m*3 30.36 C 11.43333 km/h
3017 28-08-2019 16:00:00 31.55833 C 13.63 g/m*3 31.56 C 11.29167 km/h
3018 28-08-2019 17:00:00 31.80833 C 14.03 g/m*3 31.81 C 7.39167 km/h
3019 28-08-2019 18:00:00 31.18333 C 14.79 g/m*3 31.18 C 4.96667 km/h
3020 28-08-2019 19:00:00 27.875 C 14.09 g/m*3 27.88 C 0.53333 km/h
3021 28-08-2019 20:00:00 25.59167 C 13.46 g/m*3 25.59 C 0.4 km/h
3022 28-08-2019 21:00:00 24.2 C 13.75 g/m*3 24.2 C 0.53333 km/h
3023 28-08-2019 22:00:00 22.43333 C 13.94 g/m*3 22.43 C 0 km/h
3024 28-08-2019 23:00:00 21.38333 C 13.92 g/m*3 21.38 C 0 km/h
3025 29-08-2019 00:00:00 20.775 C 13.89 g/m*3 20.78 C 0 km/h
Sensor: Nr:Datum:Temp:Abs-Feuchte:Windchill:Wind:
Aussen-T/F 3026 29-08-2019 01:00:00 20.10833 C 13.75 g/m*3 20.11 C 0 km/h
3027 29-08-2019 02:00:00 19.2 C 13.55 g/m*3 19.2 C 0 km/h
3028 29-08-2019 03:00:00 18.225 C 13.21 g/m*3 18.23 C 0 km/h
3029 29-08-2019 04:00:00 17.53333 C 13.15 g/m*3 17.53 C 0 km/h
3030 29-08-2019 05:00:00 17.78333 C 13.63 g/m*3 17.78 C 0 km/h
3031 29-08-2019 06:00:00 18.34167 C 14.08 g/m*3 18.34 C 0.53333 km/h
3032 29-08-2019 07:00:00 19.04167 C 14.58 g/m*3 19.04 C 2.4 km/h
3033 29-08-2019 08:00:00 19.89167 C 14.95 g/m*3 19.89 C 3.06667 km/h
3034 29-08-2019 09:00:00 20.7 C 15.27 g/m*3 20.7 C 2.4 km/h
3035 29-08-2019 10:00:00 21.175 C 16.01 g/m*3 21.18 C 0.4 km/h
3036 29-08-2019 11:00:00 22.13333 C 16.14 g/m*3 22.13 C 2.94167 km/h
3037 29-08-2019 12:00:00 23.29167 C 16.23 g/m*3 23.29 C 5.075 km/h
3038 29-08-2019 13:00:00 25.45 C 16.23 g/m*3 25.45 C 8.475 km/h
3039 29-08-2019 14:00:00 26.78333 C 16.49 g/m*3 26.78 C 7.925 km/h
3040 29-08-2019 15:00:00 27.53333 C 16.59 g/m*3 27.53 C 9.41667 km/h
3041 29-08-2019 16:00:00 27.875 C 16.18 g/m*3 27.88 C 9.40833 km/h
3042 29-08-2019 17:00:00 27.28333 C 15.75 g/m*3 27.28 C 8.74167 km/h
3043 29-08-2019 18:00:00 26.44167 C 15.18 g/m*3 26.44 C 8.325 km/h
3044 29-08-2019 19:00:00 24.73333 C 14.66 g/m*3 24.73 C 4.675 km/h
3045 29-08-2019 20:00:00 22.80833 C 14.37 g/m*3 22.81 C 1.2 km/h
3046 29-08-2019 21:00:00 20.89167 C 13.97 g/m*3 20.89 C 0.4 km/h
3047 29-08-2019 22:00:00 20.525 C 14.05 g/m*3 20.53 C 0.13333 km/h
3048 29-08-2019 23:00:00 20.48333 C 14.15 g/m*3 20.48 C 0.26667 km/h
3049 30-08-2019 00:00:00 20.30833 C 13.9 g/m*3 20.31 C 2.4 km/h
3050 30-08-2019 01:00:00 19.18333 C 13.66 g/m*3 19.18 C 0 km/h
Sensor: Nr:Datum:Temp:Abs-Feuchte:Windchill:Wind:
Aussen-T/F 3051 30-08-2019 02:00:00 18.2 C 13.38 g/m*3 18.2 C 0 km/h
3052 30-08-2019 03:00:00 17.48333 C 13.17 g/m*3 17.48 C 0 km/h
3053 30-08-2019 04:00:00 16.65833 C 12.77 g/m*3 16.66 C 0 km/h
3054 30-08-2019 05:00:00 15.975 C 12.62 g/m*3 15.98 C 0.13333 km/h
3055 30-08-2019 06:00:00 15.91667 C 12.64 g/m*3 15.92 C 0.13333 km/h
3056 30-08-2019 07:00:00 15.41667 C 12.32 g/m*3 15.42 C 0 km/h
3057 30-08-2019 08:00:00 16.09167 C 12.94 g/m*3 16.09 C 0.26667 km/h
3058 30-08-2019 09:00:00 17.96667 C 13.59 g/m*3 17.97 C 1.06667 km/h
3059 30-08-2019 10:00:00 19.41667 C 13.65 g/m*3 19.42 C 1.2 km/h
3060 30-08-2019 11:00:00 20.825 C 13.78 g/m*3 20.83 C 1.46667 km/h
3061 30-08-2019 12:00:00 22.16667 C 14.24 g/m*3 22.17 C 3.86667 km/h
3062 30-08-2019 13:00:00 23.59167 C 14.51 g/m*3 23.59 C 4.84167 km/h
3063 30-08-2019 14:00:00 25 C 14 g/m*3 25 C 6.01667 km/h
3064 30-08-2019 15:00:00 26.16667 C 12.59 g/m*3 26.17 C 5.75833 km/h
3065 30-08-2019 16:00:00 27.98333 C 12.41 g/m*3 27.98 C 5.49167 km/h
3066 30-08-2019 17:00:00 29.66667 C 11.27 g/m*3 29.67 C 3.73333 km/h
3067 30-08-2019 18:00:00 29.54167 C 11.12 g/m*3 29.54 C 6.29167 km/h
3068 30-08-2019 19:00:00 27.175 C 12.24 g/m*3 27.18 C 2.13333 km/h
3069 30-08-2019 20:00:00 23 C 11.42 g/m*3 23 C 0.26667 km/h
3070 30-08-2019 21:00:00 20.38333 C 11.5 g/m*3 20.38 C 0 km/h
3071 30-08-2019 22:00:00 18.64167 C 11.58 g/m*3 18.64 C 0 km/h
3072 30-08-2019 23:00:00 17.38333 C 11.44 g/m*3 17.38 C 0 km/h
3073 31-08-2019 00:00:00 16.65 C 11.48 g/m*3 16.65 C 0 km/h
3074 31-08-2019 01:00:00 15.825 C 11.35 g/m*3 15.83 C 0 km/h
3075 31-08-2019 02:00:00 15.21667 C 11.21 g/m*3 15.22 C 0 km/h
Sensor: Nr:Datum:Temp:Abs-Feuchte:Windchill:Wind:
Aussen-T/F 3076 31-08-2019 03:00:00 14.75 C 11.18 g/m*3 14.75 C 0 km/h
3077 31-08-2019 04:00:00 14.31667 C 11.09 g/m*3 14.32 C 0 km/h
3078 31-08-2019 05:00:00 14.15 C 11.15 g/m*3 14.15 C 0 km/h
3079 31-08-2019 06:00:00 14.1 C 11.17 g/m*3 14.1 C 0 km/h
3080 31-08-2019 07:00:00 14.10833 C 11.25 g/m*3 14.11 C 0 km/h
3081 31-08-2019 08:00:00 14.76667 C 11.71 g/m*3 14.77 C 0 km/h
3082 31-08-2019 09:00:00 15.89167 C 12.49 g/m*3 15.89 C 0 km/h
3083 31-08-2019 10:00:00 17.8 C 13.51 g/m*3 17.8 C 0 km/h
3084 31-08-2019 11:00:00 20.6 C 14.54 g/m*3 20.6 C 0 km/h
3085 31-08-2019 12:00:00 23.625 C 15.57 g/m*3 23.63 C 0.675 km/h
3086 31-08-2019 13:00:00 28.49167 C 15.25 g/m*3 28.49 C 7.24167 km/h
3087 31-08-2019 14:00:00 30.36667 C 14.64 g/m*3 30.37 C 6.83333 km/h
3088 31-08-2019 15:00:00 31.43333 C 14.19 g/m*3 31.43 C 8.2 km/h
3089 31-08-2019 16:00:00 32.48333 C 14.66 g/m*3 32.48 C 6.16667 km/h
3090 31-08-2019 17:00:00 33.89167 C 14.86 g/m*3 33.89 C 8.05 km/h
3091 31-08-2019 18:00:00 33.71667 C 14.79 g/m*3 33.72 C 6.43333 km/h
3092 31-08-2019 19:00:00 31.13333 C 15.74 g/m*3 31.13 C 0.8 km/h
3093 31-08-2019 20:00:00 25.89167 C 14.52 g/m*3 25.89 C 0.4 km/h
3094 31-08-2019 21:00:00 24.875 C 14.17 g/m*3 24.88 C 4.95833 km/h
3095 31-08-2019 22:00:00 24.58333 C 15.85 g/m*3 24.58 C 4.81667 km/h
3096 31-08-2019 23:00:00 20.69167 C 15.76 g/m*3 20.69 C 1.73333 km/h
3097 01-09-2019 00:00:00 19.66667 C 15.46 g/m*3 19.67 C 0.66667 km/h
3098 01-09-2019 01:00:00 19.34167 C 15.12 g/m*3 19.34 C 0.53333 km/h
3099 01-09-2019 02:00:00 19.10833 C 14.09 g/m*3 19.11 C 0 km/h
3100 01-09-2019 03:00:00 18.325 C 13.17 g/m*3 18.33 C 1.33333 km/h
Sensor: Nr:Datum:Temp:Abs-Feuchte:Windchill:Wind:
Aussen-T/F 3101 01-09-2019 04:00:00 17.88333 C 12.23 g/m*3 17.88 C 2.66667 km/h
3102 01-09-2019 05:00:00 17.84167 C 12.03 g/m*3 17.84 C 4.81667 km/h
3103 01-09-2019 06:00:00 17.30833 C 11.73 g/m*3 17.31 C 2.80833 km/h
3104 01-09-2019 07:00:00 16.1 C 11.74 g/m*3 16.1 C 0.53333 km/h
3105 01-09-2019 08:00:00 17.48333 C 12.3 g/m*3 17.48 C 4.28333 km/h
3106 01-09-2019 09:00:00 18.13333 C 12.46 g/m*3 18.13 C 5.75 km/h
3107 01-09-2019 10:00:00 19.10833 C 12.55 g/m*3 19.11 C 7.65 km/h
3108 01-09-2019 11:00:00 20.025 C 12.85 g/m*3 20.02 C 8.05833 km/h
3109 01-09-2019 12:00:00 20.05 C 12.97 g/m*3 20.05 C 10.08333 km/h
3110 01-09-2019 13:00:00 19.69167 C 13.22 g/m*3 19.69 C 11.29167 km/h
3111 01-09-2019 14:00:00 20.075 C 13.13 g/m*3 20.08 C 8.04167 km/h
3112 01-09-2019 15:00:00 20.61667 C 12.84 g/m*3 20.62 C 8.05 km/h
3113 01-09-2019 16:00:00 20.38333 C 12.02 g/m*3 20.38 C 11.01667 km/h
3114 01-09-2019 17:00:00 19.975 C 11.29 g/m*3 19.98 C 10.49167 km/h
3115 01-09-2019 18:00:00 20.75833 C 10.94 g/m*3 20.76 C 10.1 km/h
3116 01-09-2019 19:00:00 20.60833 C 10.37 g/m*3 20.61 C 6.725 km/h
3117 01-09-2019 20:00:00 18.38333 C 10.45 g/m*3 18.38 C 1.475 km/h
3118 01-09-2019 21:00:00 16.68333 C 10.27 g/m*3 16.68 C 0 km/h
3119 01-09-2019 22:00:00 16.39167 C 9.96 g/m*3 16.39 C 0 km/h
3120 01-09-2019 23:00:00 15.59167 C 9.97 g/m*3 15.59 C 0 km/h
3121 02-09-2019 00:00:00 14.44167 C 9.36 g/m*3 14.44 C 0 km/h
3122 02-09-2019 01:00:00 13.29167 C 8.99 g/m*3 13.29 C 0 km/h
3123 02-09-2019 02:00:00 13.3 C 9.27 g/m*3 13.3 C 0 km/h
3124 02-09-2019 03:00:00 13.025 C 9.37 g/m*3 13.03 C 0 km/h
3125 02-09-2019 04:00:00 12 C 8.94 g/m*3 12 C 0.4 km/h
Sensor: Nr:Datum:Temp:Abs-Feuchte:Windchill:Wind:
Aussen-T/F 3126 02-09-2019 05:00:00 11.21667 C 8.72 g/m*3 11.22 C 0 km/h
3127 02-09-2019 06:00:00 10.15 C 8.45 g/m*3 10.15 C 0 km/h
3128 02-09-2019 07:00:00 9.73333 C 8.47 g/m*3 9.73 C 0.53333 km/h
3129 02-09-2019 08:00:00 10.03333 C 8.75 g/m*3 10.03 C 0 km/h
3130 02-09-2019 09:00:00 10.83333 C 9.17 g/m*3 10.83 C 0 km/h
3131 02-09-2019 10:00:00 12.85833 C 9.9 g/m*3 12.86 C 0.8 km/h
3132 02-09-2019 11:00:00 16.2 C 9.16 g/m*3 16.2 C 7.93333 km/h
3133 02-09-2019 12:00:00 17.53333 C 8.44 g/m*3 17.53 C 8.74167 km/h
3134 02-09-2019 13:00:00 18.70833 C 7.96 g/m*3 18.71 C 9.95833 km/h
3135 02-09-2019 14:00:00 19.83333 C 7.92 g/m*3 19.83 C 9.28333 km/h
3136 02-09-2019 15:00:00 20.175 C 7.9 g/m*3 20.18 C 7.90833 km/h
3137 02-09-2019 16:00:00 21.80833 C 7.98 g/m*3 21.81 C 9.68333 km/h
3138 02-09-2019 17:00:00 23.09167 C 7.83 g/m*3 23.09 C 6.70833 km/h
3139 02-09-2019 18:00:00 22.99167 C 7.67 g/m*3 22.99 C 5.48333 km/h
3140 02-09-2019 19:00:00 20.575 C 8.35 g/m*3 20.58 C 1.2 km/h
3141 02-09-2019 20:00:00 16.9 C 8.1 g/m*3 16.9 C 0.93333 km/h
3142 02-09-2019 21:00:00 15.39167 C 7.97 g/m*3 15.39 C 0.26667 km/h
3143 02-09-2019 22:00:00 13.475 C 8.19 g/m*3